     2              OBSERVATION DATA    GPS                 RINEX VERSION / TYPE
teqc 2000Feb29 Daniel Johnson 20010928 19:02:14UTC          PGM / RUN BY / DATE
                                                            COMMENT
L2: 1 -> 1; 5 -> 5; 60 -> 9                                 COMMENT
L2: 1 -> 1; 5 -> 5; 60 -> 9                                 COMMENT
L2: 1 -> 1; 5 -> 5; 60 -> 9                                 COMMENT
L2: 1 -> 1; 5 -> 5; 60 -> 9                                 COMMENT
L2: 1 -> 1; 5 -> 5; 60 -> 9                                 COMMENT
L2: 1 -> 1; 5 -> 5; 60 -> 9                                 COMMENT
L2: 1 -> 1; 5 -> 5; 60 -> 9                                 COMMENT
L2: 1 -> 1; 5 -> 5; 60 -> 9                                 COMMENT
L2: 1 -> 1; 5 -> 5; 60 -> 9                                 COMMENT
L2: 1 -> 1; 5 -> 5; 60 -> 9                                 COMMENT
L2: 1 -> 1; 5 -> 5; 60 -> 9                                 COMMENT
L2: 1 -> 1; 5 -> 5; 60 -> 9                                 COMMENT
L2: 1 -> 1; 5 -> 5; 60 -> 9                                 COMMENT
L2: 1 -> 1; 5 -> 5; 60 -> 9                                 COMMENT
Original Marker Name: BAMA                                  COMMENT
Campaign Name: CWU ECSZ 2001                                COMMENT
4-Character Station Name: BAMA                              COMMENT
6-Character Antenna Code: DMRCHT                            COMMENT
Vertical Measurement Point: BPA                             COMMENT
Vertical Offset to Rinex Ref. Point: 0.0000                 COMMENT
Radial Measurement Point: RRP                               COMMENT
Radial Offset to Rinex Ref. Point: 0.0000                   COMMENT
Antenna Height from Field Measurement: 0.0814 m             COMMENT
Additional Antenna Identification Info.:                    COMMENT
Turborogue and Ashtech Choke Ring                           COMMENT
Original XYZ: -2416660.2721 -4522301.0079 3782899.3180      COMMENT
New XYZ position is based on association with SCEC monument COMMENT
E1G0A8N0+0011. Position of that monument is believed to be  COMMENT
valid to within 1 m horizontally; vertical accuracy         COMMENT
should be no worse than 3-times this value.                 COMMENT
                                                            COMMENT
Revised Rinex header created by UCSD GPS archive for        COMMENT
GSAC on 09-Nov-2004 (2004:314) 22:57:28 GMT                 COMMENT
For assistance contact dagnew@ucsd.edu                      COMMENT
or anderson@python.ucsd.edu                                 COMMENT
                                                            COMMENT
3190 S                                                      MARKER NAME
BAMA                                                        MARKER NUMBER
DJ CENTRAL WASHINGTON UNIVERSITY                            OBSERVER / AGENCY
24360 TRIMBLE 4700 NP 7.19; SP 3.04                         REC # / TYPE / VERS
8192 DORNE-MARGOL. TYPE T                                   ANT # / TYPE
 -2416660.0000 -4522300.0000  3782897.0000                  APPROX POSITION XYZ
        0.0814        0.0000        0.0000                  ANTENNA: DELTA H/E/N
     1     1     0                                          WAVELENGTH FACT L1/2
     9    L1    L2    C1    P2    P1    D1    D2    S1    S2# / TYPES OF OBSERV
    30                                                      INTERVAL
  2001     6    30     0     0   30.000000                  TIME OF FIRST OBS
  2001     6    30    23    59    0.000000                  TIME OF LAST OBS
                                                            END OF HEADER
 01  6 30  0  0 30.0000000  0  8G21G29G30G20G11G14G 1G25
  19533259.66355    126309.55055  23035737.5474   23035747.6414
     -3691.3124      -2876.3474         11.2504          9.2504
   3958159.49557   3192208.25656  21479872.1954   21479878.0204
     -3010.8124      -2346.0884         22.7504         20.5004
    480431.77755    462846.80255  24524297.0234   24524304.5984
      -801.3914       -624.4604          8.2504          6.7504
  -5752908.28156  -4195238.65856  22842080.1644   22842086.7734
      1542.9534       1202.3014         13.5004         12.2504
  -7497049.96057  -5708856.94256  21322984.4304   21322990.5124
     -1153.9844       -899.2094         26.0004         22.0004
   8487161.11056   6764686.16256  22438418.0164   22438423.8754
     -3669.4224      -2859.2904         17.0004         14.2504
  -1659441.45055  -1206119.78955  24047112.3524   24047126.2074
      1250.2034        974.1844         10.7504         10.7504
  -9575993.63858  -7332008.36457  20709954.1414   20709960.0704
      -914.2504       -712.4034         31.5004         29.0004
 01  6 30  0  1  0.0000000  0  8G21G29G30G20G11G14G 1G25
  19644145.14345    212713.68645  23056838.7504   23056848.4694
     -3700.4694      -2883.4824         10.7504         10.0004
   4048561.03147   3262650.98846  21497075.1024   21497081.1954
     -3015.3754      -2349.6434         22.7504         20.5004
    504727.76044    481778.80345  24528919.5634   24528928.8484
      -817.7504       -637.2084          7.2504          6.5004
  -5799145.63546  -4231267.65046  22833281.1094   22833287.6954
      1540.1094       1200.0854         14.0004         12.0004
  -7462133.47547  -5681649.30146  21329628.8754   21329634.8754
     -1173.1874       -914.1724         26.2504         21.7504
   8597296.75346   6850506.10846  22459376.1884   22459382.0944
     -3672.3594      -2861.5794         17.2504         14.0004
  -1696861.41645  -1235277.87845  24039991.2734   24040006.3244
      1245.0634        970.1794         10.5004         10.2504
  -9548292.79448  -7310423.26347  20715225.3754   20715231.3164
      -931.8914       -726.1494         31.7504         29.2504
 01  6 30  0  1 30.0000000  0  8G21G29G30G20G11G14G 1G25
  19755308.31345    299334.16245  23077992.2274   23078001.9344
     -3710.5944      -2891.3724         11.0004          9.5004
   4139101.61547   3333202.07346  21514304.4694   21514310.5634
     -3020.8444      -2353.9044         23.0004         20.5004
    529518.23744    501096.13045  24533637.0634   24533646.9454
      -835.1254       -650.7474          6.5004          5.7504
  -5845293.83146  -4267227.18145  22824499.1094   22824505.9694
      1536.2344       1197.0664         13.7504         11.7504
  -7426637.25647  -5653989.90846  21336383.6884   21336389.6764
     -1193.4064       -929.9274         25.7504         21.7504
   8707523.13546   6936396.75546  22480351.4144   22480357.2384
     -3676.2344      -2864.5984         17.2504         14.5004
  -1734123.51145  -1264312.96145  24032900.4844   24032914.1174
      1238.8914        965.3694         11.0004         10.0004
  -9520058.61048  -7288422.56547  20720598.1334   20720604.1564
      -950.5624       -740.6984         31.5004         29.2504
 01  6 30  0  2  0.0000000  0  8G21G29G30G20G11G14G 1G25
  19866772.41645    386189.16145  23099203.3674   23099212.8284
     -3719.3914      -2898.2264         11.0004          9.0004
   4229803.44147   3403878.80746  21531564.3444   21531570.3324
     -3024.9694      -2357.1194         22.2504         20.0004
    554827.75743    520817.95745  24538451.8364   24538461.1564
      -851.2504       -663.3124          6.0004          6.5004
  -5891328.29646  -4303098.11345  22815739.3284   22815747.3244
      1533.6724       1195.0694         13.5004         11.7504
  -7390538.07547  -5625860.68246  21343253.2424   21343259.3484
     -1212.2504       -944.6104         25.7504         21.7504
   8817862.45446   7022375.39646  22501347.9614   22501353.7734
     -3678.7504      -2866.5584         16.5004         14.2504
  -1771204.14945  -1293206.64845  24025844.3914   24025858.8444
      1234.1094        961.6444         10.5004         10.2504
  -9491267.85548  -7265988.18647  20726076.8984   20726082.8054
      -967.8594       -754.1764         31.5004         29.2504
 01  6 30  0  2 30.0000000  0  8G21G29G30G20G11G14G 1G25
  19978520.44445    473265.36545  23120469.7274   23120477.1134
     -3730.2344      -2906.6764         11.7504          9.7504
   4320649.34547   3474667.80746  21548851.7194   21548857.5084
     -3031.1874      -2361.9644         22.2504         20.0004
    580641.31444    540932.45545  24543365.3054   24543373.6524
      -869.4694       -677.5084          7.2504          7.0004
  -5937263.74046  -4338891.85546  22806997.6644   22807004.8054
      1528.9224       1191.3684         13.7504         12.0004
  -7353851.84147  -5597274.01246  21350234.1804   21350240.2384
     -1233.2344       -960.9624         26.0004         22.0004
   8928297.44246   7108428.58646  22522363.1414   22522369.3404
     -3683.3284      -2870.1264         16.2504         14.0004
  -1808119.40045  -1321971.45045  24018818.6484   24018832.8674
      1227.1724        956.2384         10.7504         10.7504
  -9461936.93748  -7243132.89147  20731658.4064   20731664.3714
      -987.2814       -769.3104         31.5004         29.2504
 01  6 30  0  3  0.0000000  0  8G21G29G30G20G11G14G 1G25
  20090569.01245    560575.81045  23141790.9304   23141800.4494
     -3739.1564      -2913.6284         11.0004          9.5004
   4411655.71447   3545581.83946  21566169.6094   21566175.5274
     -3035.3754      -2365.2274         22.2504         20.0004
    606977.75244    561454.43045  24548377.2974   24548387.9064
      -885.7814       -690.2194          7.0004          5.7504
  -5983081.33346  -4374593.79246  22798279.3834   22798286.2274
      1526.0784       1189.1524         14.0004         12.0004
  -7316561.52847  -5568216.62246  21357330.2584   21357336.2114
     -1252.2814       -975.8044         26.0004         22.0004
   9038844.27246   7194568.92146  22543400.3284   22543406.5984
     -3685.9374      -2872.1594         16.5004         14.0004
  -1844852.06945  -1350593.98145  24011828.6414   24011842.7424
      1222.1884        952.3544         10.5004         10.0004
  -9432048.84748  -7219843.44547  20737345.9614   20737351.8204
     -1004.7504       -782.9224         31.7504         29.5004
 01  6 30  0  3 30.0000000  0  8G21G29G30G20G11G14G 1G25
  20202890.58445    648098.95945  23163164.8524   23163173.8914
     -3748.9224      -2921.2384         11.0004         10.0004
   4502793.91347   3616598.58846  21583512.9924   21583518.8984
     -3040.4374      -2369.1724         22.7504         20.2504
    633810.68045    582363.18745  24553483.7584   24553487.9534
      -903.0624       -703.6854          7.7504          5.7504
  -6028806.87446  -4410223.98245  22789578.0164   22789585.4264
      1522.3134       1186.2184         13.5004         11.7504
  -7278694.74947  -5538710.04346  21364536.1724   21364542.3714
     -1272.1564       -991.2914         26.2504         22.0004
   9149474.34446   7280774.11346  22564452.4384   22564458.3914
     -3689.3754      -2874.8384         16.7504         13.7504
  -1881429.48445  -1379095.54645  24004867.9454   24004881.7894
      1216.3284        947.7884         10.2504         10.7504
  -9401631.21548  -7196141.36047  20743134.0004   20743139.8484
     -1023.0784       -797.2044         31.5004         29.0004
 01  6 30  0  4  0.0000000  0  8G21G29G30G20G11G14G 1G25
  20315491.99145    735840.15345  23184593.1024   23184601.7894
     -3758.5784      -2928.7624         11.0004          9.2504
   4594070.21847   3687722.97246  21600881.9924   21600887.9224
     -3045.3914      -2373.0324         22.2504         19.7504
    661148.37845    603665.32145  24558686.4224   24558694.5474
      -920.2344       -717.0664          8.2504          7.5004
  -6074432.05346  -4445775.98045  22780895.2974   22780902.8244
      1518.5944       1183.3204         12.7504         11.5004
  -7240244.48147  -5508748.79946  21371853.1174   21371859.1884
     -1291.9534      -1006.7174         26.2504         21.7504
   9260193.58346   7367048.80046  22585521.6254   22585527.7304
     -3692.6724      -2877.4074         16.7504         13.7504
  -1917844.37845  -1407470.49345  23997938.6484   23997952.1994
      1210.5474        943.2834         10.5004         10.5004
  -9370677.15848  -7172021.29247  20749024.3674   20749030.2974
     -1041.2814       -811.3884         31.2504         29.0004
 01  6 30  0  4 30.0000000  0  8G21G29G30G20G11G14G 1G25
  20428375.13945    823800.90245  23206073.2034   23206083.3794
     -3766.9224      -2935.2644         10.7504          8.7504
   4685486.17947   3758956.16546  21618277.8204   21618283.6454
     -3049.0004      -2375.8444         22.0004         20.0004
    688994.56544    625363.67145  24563984.6024   24563994.1914
      -936.1724       -729.4854          7.2504          7.2504
  -6119952.64946  -4481246.47245  22772233.1724   22772239.8634
      1516.1254       1181.3964         13.2504         11.7504
  -7201208.17247  -5478330.88946  21379281.3134   21379287.2544
     -1310.4374      -1021.1204         26.0004         21.7504
   9371003.66846   7453394.25746  22606607.7504   22606613.7854
     -3694.6414      -2878.9414         16.0004         13.5004
  -1954094.04045  -1435716.64845  23991039.8594   23991052.7304
      1206.1094        939.8254         10.0004         10.2504
  -9339184.50148  -7147481.52847  20755017.2344   20755023.1414
     -1058.1874       -824.5624         31.5004         29.5004
 01  6 30  0  5  0.0000000  0  8G21G29G30G20G11G14G 1G25
  20541529.63145    911973.05545  23227605.6094   23227616.8634
     -3777.3124      -2943.3604         10.5004          8.7504
   4777030.95647   3830289.74346  21635698.4774   21635704.6174
     -3054.5784      -2380.1914         22.0004         20.0004
    717340.70645    647451.70545  24569378.8984   24569388.5944
      -954.1724       -743.5114          7.7504          6.5004
  -6165377.00846  -4516641.99746  22763588.8984   22763595.8984
      1511.5784       1177.8534         13.7504         12.0004
  -7161596.01847  -5447464.28046  21386819.3524   21386825.4694
     -1330.9534      -1037.1064         26.0004         21.7504
   9481893.71346   7539802.02746  22627709.4924   22627715.4224
     -3698.6094      -2882.0334         16.2504         13.7504
  -1990188.46745  -1463841.86245  23984171.6644   23984185.8954
      1199.6094        934.7614         10.0004         10.5004
  -9307163.52248  -7122530.08447  20761110.6174   20761116.5824
     -1077.1254       -839.3184         31.7504         29.2504
 01  6 30  0  5 30.0000000  0  8G21G29G30G20G11G14G 1G25
  20654965.85645   1000364.76445  23249192.5554   23249203.8324
     -3786.4064      -2950.4464         11.0004          9.7504
   4868713.88947   3901730.96846  21653144.7734   21653150.6334
     -3058.8914      -2383.5514         21.2504         19.7504
    746198.16345    669938.07545  24574869.9774   24574879.2974
      -970.9374       -756.5754          8.0004          7.2504
  -6210693.56346  -4551953.50246  22754965.7034   22754971.8674
      1508.2034       1175.2234         14.2504         12.0004
  -7121397.87847  -5416141.05146  21394468.7504   21394474.8444
     -1350.2194      -1052.1194         26.0004         21.5004
   9592872.95246   7626279.31746  22648827.9694   22648833.6764
     -3701.2974      -2884.1274         15.5004         13.2504
  -2026117.11745  -1491837.88445  23977333.6724   23977347.0944
      1194.3444        930.6574         10.2504         10.0004
  -9274604.12848  -7097159.09547  20767306.2814   20767312.0474
     -1094.7974       -853.0884         31.2504         29.2504
 01  6 30  0  6  0.0000000  0  8G21G29G30G20G11G14G 1G25
  20768692.20145   1088982.51845  23270834.4064   23270845.2274
     -3794.5474      -2956.7904         10.7504          9.2504
   4960543.02847   3973286.11846  21670619.4064   21670625.3954
     -3062.2504      -2386.1694         21.5004         19.5004
    775576.96044    692830.61845  24580460.4454   24580470.3634
      -986.8444       -768.9694          6.7504          7.5004
  -6255891.31946  -4587172.46046  22746364.7424   22746371.4924
      1505.7504       1173.3124         14.7504         12.2504
  -7080604.75247  -5384354.21246  21402231.2114   21402237.1764
     -1368.5164      -1066.3764         26.0004         21.5004
   9703949.35146   7712832.28446  22669964.8914   22669970.8094
     -3703.0164      -2885.4674         15.2504         13.2504
  -2061871.01045  -1519697.72145  23970530.6094   23970543.7624
      1190.0474        927.3094          9.7504          9.7504
  -9241497.33348  -7071361.56247  20773606.3914   20773612.3794
     -1111.5164       -866.1164         31.5004         29.2504
 01  6 30  0  6 30.0000000  0  8G21G29G30G20G11G14G 1G25
  20882686.79545   1177809.31645  23292525.4614   23292534.7934
     -3805.0784      -2964.9964          9.7504          9.2504
   5052496.03447   4044937.78346  21688117.3524   21688123.1644
     -3067.9534      -2390.6134         21.7504         19.7504
    805456.90944    716113.77345  24586146.1724   24586155.2584
     -1005.1414       -783.2264          6.7504          7.2504
  -6300990.21546  -4622314.39645  22737782.6954   22737789.3754
      1500.8594       1169.5014         15.0004         11.7504
  -7039238.53847  -5352120.80946  21410103.2504   21410109.3674
     -1389.2034      -1082.4964         26.2504         21.5004
   9815100.65046   7799443.63046  22691116.5474   22691122.5234
     -3707.0624      -2888.6204         15.0004         13.2504
  -2097471.33245  -1547437.92245  23963755.4614   23963768.0984
      1183.3284        922.0744          9.7504         10.5004
  -9207864.97648  -7045154.50047  20780006.4694   20780012.3634
     -1130.6094       -880.9944         31.5004         29.2504
 01  6 30  0  7  0.0000000  0  8G21G29G30G20G11G14G 1G25
  20996990.19845   1266876.75445  23314278.3134   23314288.2194
     -3815.0624      -2972.7764         10.5004          9.0004
   5144613.01247   4116717.22746  21705646.7424   21705652.7424
     -3073.0784      -2394.6064         21.2504         19.5004
    835879.97644    739820.03545  24591935.5634   24591943.7704
     -1022.9844       -797.1314          6.5004          7.5004
  -6345947.70446  -4657346.09946  22729227.1484   22729233.8404
      1496.4064       1166.0314         15.2504         12.5004
  -6997258.33147  -5319408.95746  21418091.8754   21418098.0044
     -1409.3754      -1098.2144         26.5004         21.5004
   9926366.58246   7886144.28946  22712290.3204   22712296.0514
     -3710.5624      -2891.3474         16.0004         13.0004
  -2132877.33745  -1575026.67845  23957017.6724   23957031.5744
      1177.1564        917.2654          9.5004         10.2504
  -9173666.37948  -7018506.21047  20786514.1484   20786520.1024
     -1149.2034       -895.4834         31.5004         29.5004
 01  6 30  0  7 30.0000000  0  8G21G29G30G20G11G14G 1G25
  21111579.02845   1356166.58045  23336084.0704   23336091.8674
     -3824.1874      -2979.8864         10.7504          9.0004
   5236869.90347   4188605.68346  21723202.9224   21723208.9574
     -3077.3594      -2397.9424         21.5004         19.5004
    866824.26945    763932.50645  24597824.7034   24597831.8444
     -1040.0004       -810.3904          7.5004          7.2504
  -6390785.38746  -4692284.45046  22720695.2194   22720701.3484
      1492.7664       1163.1944         15.7504         12.7504
  -6954687.58747  -5286236.95446  21426192.6564   21426198.6334
     -1428.6874      -1113.2634         26.2504         21.5004
  10037723.23546   7972915.65846  22733480.8524   22733486.6524
     -3713.2034      -2893.4054         16.0004         13.5004
  -2168111.87745  -1602481.84645  23950312.4844   23950325.8594
      1171.8134        913.1014          9.7504         10.7504
  -9138924.96448  -6991434.94547  20793125.2584   20793131.1994
     -1166.9064       -909.2784         31.2504         29.2504
 01  6 30  0  8  0.0000000  0  8G21G29G30G20G11G14G 1G25
  21226422.43145   1445654.76145  23357937.7504   23357947.1294
     -3832.0004      -2985.9744         10.5004          8.7504
   5329235.63147   4260578.94646  21740779.5784   21740785.4144
     -3080.2974      -2400.2314         22.0004         19.5004
    898260.60944    788428.40945  24603806.3984   24603813.6454
     -1055.7344       -822.6504          6.2504          6.2504
  -6435532.03046  -4727151.88746  22712180.1174   22712186.6334
      1490.3754       1161.3314         15.2504         12.7504
  -6911556.67647  -5252628.45946  21434400.2504   21434406.2734
     -1446.6724      -1127.2774         26.2504         21.5004
  10149139.54346   8059733.49346  22754682.4534   22754688.3244
     -3714.5004      -2894.4164         15.7504         13.0004
  -2203205.03545  -1629826.83445  23943633.8524   23943646.3714
      1167.7814        909.9594          9.5004         10.5004
  -9103671.48548  -6963964.67047  20799833.8204   20799839.7384
     -1183.2974       -922.0504         31.5004         29.2504
 01  6 30  0  8 30.0000000  0  8G21G29G30G20G11G14G 1G25
  21341555.89545   1535369.00145  23379846.8134   23379857.4454
     -3843.0004      -2994.5454          9.7504          9.0004
   5421745.40047   4332664.46346  21758383.3284   21758389.4574
     -3086.4534      -2405.0284         21.5004         19.2504
    930225.86444    813336.47645  24609889.1334   24609901.1844
     -1074.7504       -837.4684          7.0004          7.5004
  -6480149.62646  -4761918.74246  22703689.4144   22703696.2854
      1484.6884       1156.8994         14.7504         13.0004
  -6867829.88047  -5218555.64746  21442721.3204   21442727.3324
     -1467.8914      -1143.8114         26.2504         21.7504
  10260650.73546   8146625.26346  22775902.2664   22775908.3954
     -3719.0164      -2897.9344         15.0004         13.0004
  -2238120.65845  -1657033.47845  23936989.6724   23937003.7854
      1160.4844        904.2744          9.7504          9.7504
  -9067869.79048  -6936067.21347  20806646.5314   20806652.3914
     -1202.9374       -937.3544         31.2504         29.2504
 01  6 30  0  9  0.0000000  0  8G21G29G30G20G11G14G 1G25
  21456993.04445   1625319.83945  23401813.7114   23401823.8054
     -3852.6564      -3002.0704          9.5004          8.5004
   5514412.43347   4404872.50846  21776017.2114   21776023.0594
     -3091.2034      -2408.7304         21.2504         19.2504
    962735.54645    838668.74445  24616075.1174   24616083.8754
     -1092.4374       -851.2504          7.5004          7.0004
  -6524622.55746  -4796572.87546  22695226.5004   22695232.9104
      1480.3134       1153.4904         14.5004         13.0004
  -6823493.59247  -5184007.89246  21451158.2034   21451164.0864
     -1487.7344      -1159.2744         26.5004         22.0004
  10372269.60046   8233600.93946  22797142.3674   22797148.3674
     -3722.1094      -2900.3454         14.7504         13.0004
  -2272844.67345  -1684090.83245  23930381.4694   23930394.3054
      1154.6094        899.6964          9.2504         10.0004
  -9031506.40448  -6907732.07247  20813566.1804   20813572.0274
     -1221.1564       -951.5504         31.5004         29.2504
 01  6 30  0  9 30.0000000  0  8G21G29G30G20G11G14G 1G25
  21572706.74945   1715486.17245  23423834.1724   23423845.8954
     -3862.0314      -3009.3754         10.0004          8.5004
   5607208.99847   4477181.49446  21793676.1094   21793682.0394
     -3095.6724      -2412.2124         21.2504         19.0004
    995763.93845    864405.25245  24622360.7894   24622369.5004
     -1109.8914       -864.8504          7.5004          7.0004
  -6568976.00246  -4831133.90046  22686786.1094   22686792.4494
      1476.1414       1150.2394         14.2504         12.7504
  -6778574.82447  -5149006.28346  21459705.9774   21459712.0124
     -1507.2814      -1174.5054         26.2504         21.5004
  10483968.57746   8320639.05546  22818398.5164   22818404.2584
     -3724.9224      -2902.5374         15.2504         13.2504
  -2307403.86045  -1711019.76445  23923804.9384   23923817.8554
      1148.9384        895.2764          9.2504          9.5004
  -8994608.68848  -6878980.57647  20820587.6644   20820593.5004
     -1239.1094       -965.5404         31.5004         29.0004
 01  6 30  0 10  0.0000000  0  8G21G29G30G20G11G14G 1G25
  21688690.44545   1805862.92145  23445904.7734   23445915.1024
     -3870.2664      -3015.7914          9.7504          9.0004
   5700128.26947   4549586.10446  21811358.2974   21811364.2384
     -3099.0004      -2414.8054         21.2504         19.0004
   1029305.59645    890541.62345  24628743.7504   24628755.8834
     -1126.2664       -877.6104          8.2504          7.5004
  -6613214.61446  -4865605.45946  22678368.1644   22678374.4454
      1473.0164       1147.8044         14.7504         13.0004
  -6733079.93847  -5113555.73846  21468363.1094   21468369.1334
     -1525.7504      -1188.8964         26.0004         21.7504
  10595740.59946   8407734.08446  22839667.8674   22839674.2774
     -3726.5944      -2903.8394         14.7504         12.7504
  -2341804.19245  -1737824.91745  23917258.4694   23917271.0354
      1144.3754        891.7214          9.0004          9.5004
  -8957183.33448  -6849817.93047  20827709.5314   20827715.5314
     -1255.9534       -978.6654         31.5004         29.2504
 01  6 30  0 10 30.0000000  0  8G21G29G30G20G11G14G 1G25
  21804916.96345   1896428.84245  23468022.6564   23468033.6054
     -3878.6094      -3022.2934          9.7504          8.2504
   5793142.69347   4622064.84646  21829057.6414   21829063.5594
     -3102.3914      -2417.4474         20.5004         19.2504
   1063335.18644    917058.13645  24635218.8054   24635224.8754
     -1142.7974       -890.4914          7.0004          7.0004
  -6657362.98846  -4900006.70246  22669966.5314   22669973.4024
      1469.7664       1145.2724         15.0004         13.0004
  -6687036.01547  -5077677.37846  21477125.2974   21477131.4144
     -1544.2814      -1203.3364         26.2504         21.5004
  10707558.41146   8494864.77246  22860946.2114   22860951.7894
     -3728.3594      -2905.2154         15.0004         13.0004
  -2376071.91245  -1764526.73345  23910736.7974   23910749.4694
      1139.7194        888.0934          9.0004          9.5004
  -8919256.76048  -6820264.73147  20834926.6094   20834932.4454
     -1272.9064       -991.8754         31.5004         29.2504
 01  6 30  0 11  0.0000000  0  8G21G29G30G20G11G14G 1G25
  21921426.79845   1987215.56345  23490193.4304   23490205.2584
     -3887.9844      -3029.5984          9.7504          8.5004
   5886292.17547   4694648.83546  21846784.0314   21846789.9144
     -3106.8444      -2420.9174         21.0004         18.5004
   1097894.14844    943987.20745  24641794.6564   24641803.3444
     -1160.4224       -904.2254          7.2504          7.7504
  -6701379.01446  -4934304.81546  22661590.7424   22661597.4924
      1465.3594       1141.8384         15.2504         13.0004
  -6640402.78047  -5041339.81546  21485999.1954   21486005.1254
     -1563.8754      -1218.6044         26.2504         21.5004
  10819461.52546   8582061.95846  22882240.9144   22882246.9844
     -3731.1414      -2907.3824         15.0004         13.2504
  -2410166.58245  -1791093.69145  23904249.1884   23904262.4104
      1133.9844        883.6244          9.0004          9.7504
  -8880788.77048  -6790289.64747  20842246.7034   20842252.4224
     -1290.9064      -1005.9014         31.2504         29.2504
 01  6 30  0 11 30.0000000  0  8G21G29G30G20G11G14G 1G25
  22038213.88345   2078218.29345  23512417.3054   23512426.8134
     -3896.7814      -3036.4534          9.2504          8.7504
   5979570.32447   4767333.07946  21864534.2034   21864540.3204
     -3110.6874      -2423.9124         20.5004         18.7504
   1132977.88145    971325.21245  24648471.7974   24648477.8794
     -1177.4694       -917.5084          7.5004          6.5004
  -6745266.38246  -4968502.69346  22653239.0394   22653245.2854
      1461.5004       1138.8314         16.0004         13.5004
  -6593185.99647  -5004547.53746  21494984.2034   21494990.4384
     -1582.8754      -1233.4094         26.2504         21.5004
  10931443.66746   8669320.72846  22903550.0704   22903555.8714
     -3733.2974      -2909.0624         14.2504         12.5004
  -2444093.55145  -1817529.99545  23897792.5554   23897805.2384
      1128.8444        879.6194          8.7504          9.5004
  -8841785.53048  -6759897.48447  20849668.8594   20849674.7894
     -1308.2814      -1019.4404         31.5004         29.2504
 01  6 30  0 12  0.0000000  0  8G21G29G30G20G11G14G 1G25
  22155270.25745   2169430.87845  23534692.9774   23534702.0274
     -3907.1254      -3044.5134          9.5004          8.2504
   6072968.84147   4840111.12946  21882307.1954   21882313.3364
     -3116.0474      -2428.0884         20.2504         18.7504
   1168579.78844    999066.99745  24655246.2034   24655253.2624
     -1196.1414       -932.0584          7.2504          7.0004
  -6789030.93346  -5002604.85546  22644910.6804   22644917.1484
      1456.0004       1134.5454         16.2504         13.7504
  -6545393.66647  -4967306.79946  21504078.7504   21504084.9384
     -1603.4224      -1249.4204         26.2504         22.0004
  11043496.59446   8756634.63046  22924873.1724   22924879.2774
     -3737.0314      -2911.9724         14.5004         12.5004
  -2477860.24545  -1843841.41745  23891367.2274   23891379.6414
      1122.1254        874.3834          9.0004          9.5004
  -8802255.39448  -6729094.75847  20857191.0234   20857196.9184
     -1327.2034      -1034.1844         31.2504         29.2504
 01  6 30  0 12 30.0000000  0  8G21G29G30G20G11G14G 1G25
  22272598.17345   2260854.98945  23557019.9844   23557030.4774
     -3915.0624      -3050.6984          9.7504          8.5004
   6166489.85147   4912984.61646  21900103.7274   21900109.6684
     -3119.0164      -2430.4024         20.5004         18.5004
   1204703.65945   1027215.54645  24662120.2344   24662129.0274
     -1212.4534       -944.7694          7.5004          7.5004
  -6832667.99446  -5036607.69046  22636606.8914   22636613.7854
      1452.7974       1132.0504         16.2504         13.7504
  -6497023.55947  -4929615.83446  21513283.3204   21513289.2274
     -1621.5944      -1263.5804         26.5004         21.7504
  11155622.19546   8844005.19046  22946209.9774   22946215.8594
     -3738.3444      -2912.9954         14.5004         12.0004
  -2511463.72945  -1870025.69145  23884972.5084   23884985.7774
      1117.7814        870.9984          9.0004          9.2504
  -8762195.94648  -6697879.57647  20864814.0554   20864820.0904
     -1343.7664      -1047.0904         31.2504         29.2504
 01  6 30  0 13  0.0000000  0  8G21G29G30G20G11G14G 1G25
  22390210.35845   2352500.65045  23579400.7344   23579412.0944
     -3924.3594      -3057.9424          9.7504          8.5004
   6260146.18447   4985963.55746  21917925.8134   21917931.8714
     -3123.3594      -2433.7874         20.2504         18.7504
   1241363.88844   1055782.00045  24669096.1174   24669103.2934
     -1230.1874       -958.5884          6.5004          7.2504
  -6876162.31446  -5070499.30246  22628330.1334   22628336.0164
      1448.1884       1128.4584         16.0004         13.7504
  -6448062.32647  -4891464.25546  21522600.4304   21522606.4774
     -1641.1254      -1278.7994         26.5004         21.7504
  11267833.28046   8931442.32646  22967562.5164   22967568.7624
     -3741.0164      -2915.0774         14.0004         12.2504
  -2544890.45845  -1896072.21745  23878611.5234   23878622.5554
      1112.0474        866.5304          9.0004          9.7504
  -8721593.77648  -6666241.50047  20872540.4534   20872546.2894
     -1361.6874      -1061.0554         31.2504         29.2504
 01  6 30  0 13 30.0000000  0  8G21G29G30G20G11G14G 1G25
  22508077.78245   2444345.12245  23601829.9304   23601840.7624
     -3933.3754      -3064.9684          9.0004          8.7504
   6353908.20947   5059024.84546  21935768.5474   21935774.5124
     -3127.3444      -2436.8914         21.0004         18.5004
   1278532.73144   1084744.77445  24676169.9844   24676180.5124
     -1247.6564       -972.2004          7.0004          6.5004
  -6919540.98246  -5104300.79546  22620075.3054   22620081.5634
      1443.8134       1125.0494         16.0004         13.7504
  -6398539.33047  -4852874.94046  21532024.2344   21532030.3404
     -1660.3284      -1293.7624         26.5004         21.7504
  11380100.22346   9018922.98846  22988926.8054   22988932.5474
     -3743.3594      -2916.9034         14.5004         12.0004
  -2578168.97245  -1922003.26745  23872278.2194   23872291.2774
      1106.6094        862.2934          9.0004          8.7504
  -8680478.33748  -6634203.47547  20880364.5164   20880370.2934
     -1379.2664      -1074.7524         31.5004         29.2504
 01  6 30  0 14  0.0000000  0  8G21G29G30G20G11G14G 1G25
  22626223.85045   2536406.81045  23624312.9614   23624323.8984
     -3943.4694      -3072.8334          9.2504          8.5004
   6447798.65246   5132186.21546  21953634.5634   21953640.3524
     -3132.4534      -2440.8734         19.7504         18.2504
   1316234.72844   1114122.92045  24683344.1024   24683353.1884
     -1266.2814       -986.7134          7.0004          7.5004
  -6962778.62346  -5137992.38946  22611847.5944   22611853.6764
      1438.2504       1120.7144         16.2504         13.2504
  -6348431.59147  -4813829.98146  21541559.5394   21541565.5864
     -1680.6414      -1309.5904         26.5004         21.7504
  11492445.68846   9106464.86246  23010305.4224   23010311.2814
     -3746.7974      -2919.5824         14.2504         12.2504
  -2611275.49345  -1947800.31545  23865977.7664   23865990.9884
      1100.0474        857.1794          9.0004          9.5004
  -8638826.46848  -6601747.45347  20888290.4384   20888296.2504
     -1397.9534      -1089.3144         31.5004         29.5004
 01  6 30  0 14 30.0000000  0  8G21G29G30G20G11G14G 1G25
  22744676.67345   2628707.50745  23646854.2734   23646864.0984
     -3953.2194      -3080.4304          9.5004          7.7504
   6541845.72847   5205469.61246  21971531.9454   21971537.9454
     -3137.1874      -2444.5624         20.5004         18.2504
   1354499.33945   1143939.58745  24690625.9144   24690632.7464
     -1284.5474      -1000.9464          7.5004          6.7504
  -7005844.56646  -5171550.20646  22603652.5084   22603658.9064
      1432.9844       1116.6114         16.2504         14.0004
  -6297710.77647  -4774307.30246  21551211.4064   21551217.4414
     -1700.5944      -1325.1384         26.2504         21.2504
  11604897.81046   9194089.83345  23031704.3204   23031710.1804
     -3749.8594      -2921.9684         14.0004         11.7504
  -2644181.33145  -1973440.95645  23859716.3284   23859729.9844
      1093.8284        852.3344          9.0004          9.0004
  -8596610.26048  -6568851.68947  20896324.0164   20896329.8984
     -1416.2974      -1103.6084         31.2504         29.2504
 01  6 30  0 15  0.0000000  0  8G21G29G30G20G11G14G 1G25
  22863382.01945   2721204.93645  23669442.9144   23669451.9184
     -3960.8754      -3086.3964          8.7504          8.2504
   6635995.03647   5278832.67446  21989447.8834   21989453.7424
     -3139.8284      -2446.6194         20.2504         18.2504
   1393273.48745   1174153.17145  24698004.7424   24698013.6764
     -1300.8124      -1013.6204          8.0004          6.7504
  -7048790.96246  -5205014.85846  22595479.8364   22595485.9774
      1429.7034       1114.0544         16.0004         13.7504
  -6246431.20747  -4734349.22746  21560969.5164   21560975.5864
     -1718.4534      -1339.0544         26.2504         21.5004
  11717401.96646   9281755.35846  23053113.0864   23053119.1094
     -3750.8284      -2922.7234         14.0004         12.0004
  -2676939.91245  -1998966.86845  23853482.1414   23853493.8634
      1089.6724        849.0954          9.0004          9.2504
  -8553883.79548  -6535558.32347  20904454.5784   20904460.3914
     -1432.5474      -1116.2704         31.2504         29.2504
 01  6 30  0 15 30.0000000  0  8G21G29G30G20G11G14G 1G25
  22982333.03445   2813893.83545  23692078.4144   23692088.0044
     -3968.5944      -3092.4114          8.7504          8.0004
   6730239.71647   5352270.07246  22007382.1024   22007388.0784
     -3142.5474      -2448.7384         20.2504         18.2504
   1432552.17345   1204760.00745  24705479.1174   24705486.1644
     -1317.1724      -1026.3684          8.2504          6.7504
  -7091621.82246  -5238389.48346  22587329.2274   22587335.4494
      1426.2814       1111.3884         16.0004         14.0004
  -6194599.47147  -4693960.90246  21570832.9924   21570838.9574
     -1736.3914      -1353.0324         26.5004         21.5004
  11829951.57346   9369456.28046  23074530.6724   23074536.7074
     -3751.8754      -2923.5394         14.2504         12.0004
  -2709557.28345  -2024382.76345  23847275.5234   23847287.4574
      1085.4064        845.7714          9.0004          9.5004
  -8510653.41548  -6501872.29047  20912680.8834   20912686.8594
     -1448.8754      -1128.9944         31.0004         29.2504
 01  6 30  0 16  0.0000000  0  8G21G29G30G20G11G14G 1G25
  23101564.40945   2906801.15045  23714767.5234   23714778.8714
     -3979.4064      -3100.8364          8.7504          7.5004
   6824614.21047   5425808.59646  22025340.6334   22025346.6454
     -3148.3444      -2453.2554         20.0004         18.0004
   1472371.12743   1235787.74045  24713054.8674   24713064.3284
     -1336.6724      -1041.5624          6.0004          6.5004
  -7134300.34446  -5271645.39846  22579207.6334   22579213.9734
      1419.6884       1106.2504         16.5004         14.2504
  -6142181.32847  -4653115.63246  21580807.8364   21580814.0234
     -1757.4064      -1369.4074         26.2504         21.5004
  11942580.97646   9457219.38946  23095964.0004   23095970.0824
     -3756.0004      -2926.7534         14.5004         12.0004
  -2741998.20545  -2049661.14145  23841101.7974   23841113.3444
      1078.0474        840.0374          9.2504          9.0004
  -8466884.75248  -6467766.82247  20921009.8834   20921015.6954
     -1468.2814      -1144.1154         31.5004         29.5004
 01  6 30  0 16 30.0000000  0  8G21G29G30G20G11G14G 1G25
  23221067.61945   2999920.34345  23737508.9924   23737519.6954
     -3987.6564      -3107.2654          9.0004          8.5004
   6919109.82347   5499441.51046  22043322.5944   22043328.5824
     -3151.5474      -2455.7514         20.0004         17.7504
   1512723.28544   1267231.03345  24720734.7734   24720745.1254
     -1353.6414      -1054.7854          7.2504          7.0004
  -7176832.60246  -5304787.34746  22571113.9844   22571120.0314
      1415.6094       1103.0724         16.5004         14.2504
  -6089185.09347  -4611819.89646  21590892.5004   21590898.5594
     -1775.8594      -1383.7874         26.0004         21.5004
  12055281.16046   9545037.65446  23117410.0004   23117416.3164
     -3757.5164      -2927.9344         14.0004         12.0004
  -2774270.79745  -2074808.36345  23834960.0394   23834972.2664
      1073.2664        836.3114          9.2504          9.2504
  -8422586.44148  -6433248.63947  20929439.4694   20929445.4224
     -1485.1094      -1157.2284         31.2504         29.7504
 01  6 30  0 17  0.0000000  0  8G21G29G30G20G11G14G 1G25
  23340848.14845   3093255.57845  23760302.6724   23760313.9614
     -3997.5314      -3114.9594          9.2504          7.5004
   7013731.43247   5573172.60046  22061328.6254   22061334.6724
     -3156.3594      -2459.5014         20.0004         17.7504
   1553614.90044   1299094.65245  24728515.9224   24728525.4884
     -1372.2814      -1069.3104          7.2504          7.0004
  -7219211.10146  -5337809.47646  22563049.8284   22563056.6134
      1409.7974       1098.5434         17.0004         14.7504
  -6035605.64147  -4570069.70746  21601088.5314   21601094.6604
     -1795.9224      -1399.4204         26.2504         21.5004
  12168057.12946   9632914.96145  23138870.2344   23138876.4804
     -3760.6874      -2930.4064         13.5004         11.5004
  -2806369.27445  -2099819.96145  23828851.5864   23828863.7774
      1066.8134        831.2824          9.2504          9.5004
  -8377753.43748  -6398313.81347  20937970.9304   20937976.8244
     -1503.5624      -1171.6074         31.2504         29.2504
 01  6 30  0 17 30.0010000  0  8G21G29G30G20G11G14G 1G25
  23460911.51745   3186811.22945  23783149.4274   23783160.9274
     -4005.7974      -3121.4004          8.2504          7.7504
   7108484.13646   5647005.84646  22079359.3414   22079365.3884
     -3159.6094      -2462.0334         19.5004         18.0004
   1595050.52944   1331382.25245  24736400.0134   24736408.1384
     -1389.3594      -1082.6184          7.2504          7.0004
  -7261432.92646  -5370709.52446  22555015.1614   22555021.1964
      1405.5164       1095.2074         17.7504         14.7504
  -5981439.33647  -4527862.23846  21611396.1064   21611402.1304
     -1814.3914      -1413.8114         26.5004         21.5004
  12280914.65346   9720855.83346  23160345.9584   23160352.8414
     -3762.2344      -2931.6114         13.2504         12.2504
  -2838292.04645  -2124694.57745  23822777.0444   23822788.6494
      1061.9384        827.4844          9.5004          9.2504
  -8332382.31348  -6362959.66847  20946604.7474   20946610.5604
     -1520.4224      -1184.7444         31.2504         29.5004
 01  6 30  0 18  0.0010000  0  9G21G29G30G20G11G14G 1G25G22
  23581220.15845   3280558.01445  23806044.4584   23806054.2714
     -4015.1564      -3128.6934          9.0004          7.2504
   7203331.35847   5720912.72346  22097408.6224   22097414.6344
     -3163.9374      -2465.4064         20.0004         17.7504
   1636998.54144   1364068.97945  24744383.0444   24744387.4034
     -1407.5784      -1096.8144          7.0004          5.7504
  -7303523.11346  -5403507.00346  22547005.3174   22547011.6694
      1400.0784       1090.9704         17.5004         14.7504
  -5926720.16647  -4485223.95646  21621808.7554   21621814.8134
     -1833.9534      -1429.0544         26.5004         22.0004
  12393815.70846   9808830.61945  23181830.7244   23181836.5834
     -3764.8914      -2933.6814         14.0004         11.5004
  -2870066.46745  -2149453.63145  23816730.8414   23816743.2204
      1055.9534        822.8214          9.7504          9.0004
  -8286506.86648  -6327212.54747  20955334.6774   20955340.5134
     -1538.3594      -1198.7224         31.5004         29.2504
    -56813.22243                  25107013.5134
      1960.7504                          5.7504
 01  6 30  0 18 30.0010000  0  9G21G29G30G20G11G14G 1G25G22
  23701796.06145   3374513.03945  23828988.0914   23828999.8844
     -4023.0624      -3134.8544          7.7504          7.5004
   7298294.36246   5794909.83646  22115479.6774   22115485.4314
     -3166.7664      -2467.6104         19.5004         17.5004
   1679479.79044   1397171.33845  24752466.6304   24752475.4464
     -1424.3594      -1109.8904          6.2504          5.5004
  -7345462.28646  -5436186.79846  22539024.6384   22539030.6964
      1396.0164       1087.8044         17.7504         15.2504
  -5871428.36647  -4442139.47646  21632330.5754   21632336.6344
     -1852.0164      -1443.1294         26.5004         21.7504
  12506782.18646   9896856.39045  23203327.6224   23203333.1184
     -3766.0474      -2934.5824         13.5004         11.5004
  -2901674.86045  -2174083.28145  23810715.3024   23810726.6614
      1051.4224        819.2904          9.7504          9.5004
  -8240107.21148  -6291056.95047  20964163.9194   20964169.8134
     -1554.8124      -1211.5424         31.2504         29.2504
   -115711.12243                  25095805.8724
      1965.8754                          5.7504
 01  6 30  0 19  0.0010000  0  9G21G29G30G20G11G14G 1G25G22
  23822623.16745   3468663.79145  23851981.5444   23851992.4234
     -4031.1094      -3141.1244          8.7504          7.5004
   7393357.33647   5868984.85046  22133569.3024   22133575.2904
     -3169.7814      -2469.9594         20.0004         17.5004
   1722479.97344   1430677.89845  24760649.6924   24760659.6814
     -1441.3444      -1123.1254          7.0004          7.0004
  -7387263.56846  -5468759.15646  22531070.0524   22531076.4624
      1391.7034       1084.4444         17.7504         15.0004
  -5815579.86847  -4398621.20646  21642958.2474   21642964.2594
     -1870.2504      -1457.3384         26.5004         21.5004
  12619798.30846   9984920.83845  23224833.6694   23224839.9974
     -3767.3914      -2935.6294         13.5004         11.7504
  -2933132.19845  -2198595.27345  23804729.1144   23804740.4744
      1046.7034        815.6134         10.2504          9.7504
  -8193198.68648  -6254504.83347  20973090.4114   20973096.1654
     -1571.4374      -1224.4974         31.2504         29.2504
   -174746.94544    -19950.02955  25084571.8564   25084590.8564
      1970.8134       1535.6984          6.2504          5.5004
 01  6 30  0 19 30.0010000  0  9G21G29G30G20G11G14G 1G25G22
  23943693.69845   3563004.27245  23875021.8884   23875031.8414
     -4040.1094      -3148.1374          9.2504          8.0004
   7488512.49746   5943131.68746  22151676.5214   22151682.4854
     -3173.7344      -2473.0404         18.7504         17.2504
   1765992.35344   1464583.71145  24768929.3414   24768942.2244
     -1459.3284      -1137.1394          6.2504          6.5004
  -7428932.64946  -5501228.49946  22523140.7084   22523146.7314
      1386.3754       1080.2924         17.2504         14.5004
  -5759182.76247  -4354675.44246  21653690.1384   21653696.4314
     -1889.4064      -1472.2654         26.5004         21.5004
  12732856.15246  10073017.80645  23246348.2784   23246354.4314
     -3769.6414      -2937.3824         13.5004         11.5004
  -2964445.75645  -2222995.19145  23798770.1224   23798781.3994
      1041.0314        811.1934         10.0004          9.0004
  -8145789.64348  -6217562.70447  20982112.1774   20982118.1424
     -1589.0004      -1238.1824         31.2504         29.2504
   -233925.73144    -66062.85845  25073309.7634   25073328.2004
      1974.6094       1538.6574          6.5004          7.0004
 01  6 30  0 20  0.0010000  0  9G21G29G30G20G11G14G 1G25G22
  24065029.49745   3657551.43045  23898110.0674   23898121.6144
     -4048.0314      -3154.3104          8.5004          8.2504
   7583781.28746   6017367.07046  22169805.6694   22169811.8214
     -3176.6094      -2475.2804         19.0004         17.5004
   1810039.66044   1498906.29745  24777311.6924   24777320.0054
     -1476.2664      -1150.3374          7.2504          8.0004
  -7470445.19746  -5533575.86746  22515241.1774   22515247.2474
      1382.0004       1076.8834         17.5004         14.5004
  -5702215.25247  -4310285.21746  21664530.9584   21664536.9114
     -1907.5314      -1486.3884         26.5004         21.5004
  12845977.18746  10161163.98645  23267874.9274   23267880.3414
     -3770.8594      -2938.3324         13.5004         11.7504
  -2995593.20645  -2247265.70545  23792842.3964   23792853.1464
      1036.3754        807.5654         10.5004          9.7504
  -8097858.93148  -6180214.07747  20991232.9424   20991238.8024
     -1605.4844      -1251.0274         31.2504         29.2504
   -293222.00444   -112267.31345  25062025.1614   25062044.0094
      1979.3594       1542.3584          7.2504          5.7504
 01  6 30  0 20 30.0010000  0  9G21G29G30G20G11G14G 1G25G22
  24186624.15745   3752300.24445  23921249.3724   23921261.1534
     -4057.7974      -3161.9204          8.5004          7.2504
   7679157.70346   6091686.32846  22187955.1854   22187961.1964
     -3181.3444      -2478.9694         18.7504         17.2504
   1854617.11445   1533641.96545  24785795.4584   24785803.5244
     -1495.0784      -1164.9964          7.7504          7.7504
  -7511804.72246  -5565803.99446  22507370.5674   22507376.7674
      1375.7504       1072.0134         17.2504         15.0004
  -5644683.56347  -4265455.36446  21675478.8724   21675484.8604
     -1927.4374      -1501.8994         26.7504         21.5004
  12959155.40146  10249354.76045  23289411.7864   23289418.6574
     -3773.8754      -2940.6824         13.2504         11.5004
  -3026579.77345  -2271410.83045  23786946.2944   23786958.2284
      1029.8754        802.5004         10.5004          9.2504
  -8049412.28448  -6142463.42847  21000451.7244   21000457.5714
     -1623.7974      -1265.2964         30.7504         29.2504
   -352638.25344   -158565.28745  25050719.1854   25050737.0484
      1982.2034       1544.5744          6.7504          6.2504
 01  6 30  0 21  0.0010000  0  9G21G29G30G20G11G14G 1G25G22
  24308462.31944   3847238.84145  23944433.3104   23944446.1924
     -4065.7344      -3168.1054          7.2504          7.2504
   7774626.25446   6166077.37046  22206121.9114   22206127.8884
     -3184.2194      -2481.2094         19.0004         17.0004
   1899710.15044   1568779.44845  24794375.2084   24794384.5054
     -1512.0944      -1178.2554          7.0004          7.5004
  -7553024.45246  -5597923.18946  22499526.5054   22499533.2434
      1371.2034       1068.4704         17.5004         15.0004
  -5586603.78647  -4220198.43046  21686530.9114   21686536.9704
     -1945.5474      -1516.0114         26.5004         21.5004
  13072375.05546  10337577.82445  23310956.1224   23310962.7314
     -3775.0944      -2941.6314         12.7504         11.2504
  -3057420.37045  -2295442.24445  23781076.8564   23781086.9854
      1025.1724        798.8354         10.0004          9.7504
  -8000465.53648  -6104323.08547  21009766.2784   21009772.1494
     -1640.3124      -1278.1664         30.7504         29.2504
   -412186.86744   -204966.42545  25039386.1854   25039402.7824
      1986.7344       1548.1054          6.5004          6.7504
 01  6 30  0 21 30.0010000  0  9G21G29G30G20G11G14G 1G25G22
  24430559.65445   3942379.39945  23967668.7394   23967679.3604
     -4074.3594      -3174.8254          7.7504          8.0004
   7870202.26346   6240552.14246  22224309.6534   22224315.7594
     -3187.7974      -2483.9984         18.7504         17.0004
   1945335.84845   1604331.98345  24803058.4034   24803066.1184
     -1529.8754      -1192.1104          7.5004          7.2504
  -7594086.26246  -5629919.33046  22491712.6854   22491719.0834
      1365.9384       1064.3674         18.0004         15.2504
  -5527960.47947  -4174502.39146  21697690.2784   21697696.4194
     -1964.2974      -1530.6214         26.2504         21.5004
  13185651.77746  10425845.32545  23332512.7554   23332519.7554
     -3776.9694      -2943.0934         13.0004         11.2504
  -3088098.89845  -2319347.37745  23775238.9354   23775251.1034
      1019.7814        794.6354         10.5004         10.0004
  -7951003.28448  -6065781.05747  21019178.6384   21019184.4624
     -1657.4694      -1291.5344         31.2504         29.0004
   -471849.34943   -251456.23745  25028032.1534   25028048.8804
      1990.4844       1551.0274          6.0004          6.0004
 01  6 30  0 22  0.0010000  0  9G21G29G30G20G11G14G 1G25G22
  24552896.83645   4037706.84045  23990948.9664   23990958.8024
     -4081.2344      -3180.1834          7.5004          7.2504
   7965866.48446   6315095.65846  22242514.1304   22242520.1304
     -3189.6254      -2485.4224         19.0004         17.2504
   1991475.69344   1640285.10745  24811837.3104   24811844.7314
     -1545.9064      -1204.6024          6.7504          6.7504
  -7635007.10246  -5661805.63646  22483926.0134   22483932.0714
      1362.2974       1061.5304         18.7504         15.2504
  -5468773.02047  -4128382.33346  21708953.3644   21708959.3064
     -1981.3124      -1543.8804         26.2504         21.2504
  13298966.04646  10514142.13245  23354074.7314   23354080.8604
     -3777.1094      -2943.2024         12.2504         11.5004
  -3118634.08645  -2343140.78045  23769428.2714   23769439.8534
      1016.1094        791.7744         10.7504         10.0004
  -7901045.07048  -6026852.56347  21028685.3494   21028691.3134
     -1672.8754      -1303.5394         30.7504         29.0004
   -531641.81144   -298047.30745  25016654.5754   25016673.4464
      1995.8914       1555.2394          6.2504          7.0004
 01  6 30  0 22 30.0010000  0  9G21G29G30G20G11G14G 1G25G22
  24675491.75845   4133235.10345  24014278.3884   24014290.0874
     -4090.7034      -3187.5614          7.5004          7.2504
   8061637.05946   6389722.04846  22260739.2004   22260745.3764
     -3194.0314      -2488.8564         19.5004         17.0004
   2038148.80744   1676653.86545  24820718.8414   24820728.0564
     -1564.5784      -1219.1524          7.2504          7.2504
  -7675766.35146  -5693566.03046  22476169.1464   22476175.3334
      1356.0164       1056.6364         18.2504         16.0004
  -5409023.92547  -4081824.63746  21720323.4424   21720329.6774
     -2000.9064      -1559.1484         26.2504         21.5004
  13412335.75146  10602482.08445  23375649.4814   23375655.3764
     -3779.8284      -2945.3214         13.0004         10.7504
  -3149007.15445  -2366807.86545  23763648.3804   23763659.3534
      1009.8284        786.8794         10.7504         10.2504
  -7850573.38848  -5987523.96647  21038289.8334   21038295.7634
     -1690.8594      -1317.5534         31.0004         29.0004
   -591542.22844   -344722.55045  25005255.0994   25005273.5714
      1998.5474       1557.3094          7.0004          6.2504
 01  6 30  0 23  0.0010000  0  9G21G29G30G20G11G14G 1G25G22
  24798334.63245   4228956.63345  24037655.2164   24037666.7164
     -4098.7974      -3193.8684          8.0004          6.5004
   8157504.42146   6464423.86146  22278981.9664   22278987.9194
     -3197.1094      -2491.2544         19.0004         17.0004
   2085346.92744   1713431.58545  24829700.6304   24829710.3374
     -1581.9374      -1232.6794          7.2504          6.7504
  -7716370.64346  -5725205.68046  22468442.3724   22468448.4194
      1350.9694       1052.7034         18.5004         15.7504
  -5348722.72547  -4034836.72946  21731798.2634   21731804.4854
     -2019.1414      -1573.3564         26.2504         21.5004
  13525751.73846  10690858.12845  23397231.8884   23397237.5134
     -3781.2034      -2946.3924         13.0004         10.7504
  -3179226.68945  -2390355.37145  23757897.5134   23757907.8294
      1004.8444        782.9954         10.7504         10.0004
  -7799597.39248  -5947802.40547  21047990.0604   21047995.8844
     -1707.5004      -1330.5194         30.7504         29.0004
   -651556.44544   -391486.44745  24993834.4584   24993850.2004
      2002.4384       1560.3414          6.7504          5.5004
 01  6 30  0 23 30.0010000  0  9G21G29G30G20G11G14G 1G25G22
  24921443.15845   4324885.05145  24061081.9194   24061094.8494
     -4107.7814      -3200.8694          8.2504          8.0004
   8253485.98246   6539214.64646  22297246.5524   22297252.4814
     -3201.0164      -2494.2984         19.2504         17.0004
   2133088.01144   1750632.50245  24838785.9504   24838796.2674
     -1600.2034      -1246.9124          7.2504          7.7504
  -7756800.58146  -5756709.46146  22460748.9584   22460754.8764
      1344.9694       1048.0284         18.7504         16.2504
  -5287852.55547  -3987405.47146  21743381.4744   21743387.5094
     -2038.2344      -1588.2354         26.2504         21.5004
  13639231.18446  10779283.61445  23418826.1064   23418831.2634
     -3783.4534      -2948.1454         13.0004         10.7504
  -3209275.19445  -2413769.57145  23752178.5444   23752189.7394
       998.9844        778.4294         10.7504         10.0004
  -7748100.42448  -5907674.88147  21057789.7004   21057795.4544
     -1725.0164      -1344.1684         31.0004         29.2504
   -711664.25144   -438323.25745  24982397.0284   24982416.9544
      2005.3594       1562.6184          6.5004          5.0004
 01  6 30  0 24  0.0010000  0  9G21G29G30G20G11G14G 1G25G22
  25044800.80745   4421007.62045  24084556.0054   24084564.2354
     -4116.5624      -3207.7114          8.0004          6.5004
   8349565.34046   6614081.63746  22315529.8334   22315536.1034
     -3204.7664      -2497.2204         18.7504         16.7504
   2181357.01745   1788244.65945  24847971.3804   24847978.9894
     -1618.2814      -1260.9984          7.5004          7.0004
  -7797069.62746  -5788087.87546  22453086.1304   22453092.0604
      1339.1094       1043.4624         18.7504         16.0004
  -5226430.29047  -3939544.00746  21755069.7004   21755075.9354
     -2057.0944      -1602.9304         26.0004         21.5004
  13752757.63446  10867745.73345  23440429.8644   23440436.0634
     -3785.5004      -2949.7404         12.7504         11.0004
  -3239168.11145  -2437062.54245  23746490.3804   23746501.3534
       993.3444        774.0344         10.7504         10.5004
  -7696098.93048  -5867154.22647  21067685.2314   21067691.1034
     -1742.2814      -1357.6224         31.0004         29.0004
   -771879.11543   -485243.59945  24970937.0284   24970953.8844
      2008.4224       1565.0044          5.5004          6.0004
 01  6 30  0 24 30.0010000  0  9G21G29G30G20G11G14G 1G25G22
  25168403.45745   4517321.13945  24108077.0054   24108089.1734
     -4124.0944      -3213.5804          7.7504          7.5004
   8445738.43546   6689021.68546  22333830.8024   22333836.6264
     -3207.2504      -2499.1564         18.2504         16.5004
   2230151.08045   1826266.02545  24857256.3564   24857264.6464
     -1635.1564      -1274.1484          8.2504          7.2504
  -7837179.16646  -5819342.00146  22445453.3804   22445459.7204
      1334.3594       1039.7614         18.0004         15.7504
  -5164460.03347  -3891255.53346  21766862.2554   21766868.3374
     -2074.7344      -1616.6764         26.0004         21.5004
  13866327.05946  10956241.31245  23462041.2784   23462047.2314
     -3786.3124      -2950.3734         12.5004         10.7504
  -3268908.88745  -2460236.96545  23740830.8334   23740840.9504
       988.8754        770.5524         10.5004         10.5004
  -7643596.98548  -5826243.60347  21077676.0444   21077682.0444
     -1758.3284      -1370.1264         30.7504         29.2504
   -832201.09143   -532247.28045  24959458.1304   24959476.6144
      2012.5474       1568.2184          6.0004          6.2504
 01  6 30  0 25  0.0010000  0  9G21G29G30G20G11G14G 1G25G22
  25292256.14545   4613829.47445  24131646.3644   24131660.1264
     -4132.3754      -3220.0324          8.2504          7.0004
   8542010.85646   6764039.11446  22352150.6774   22352156.8414
     -3210.5164      -2501.7004         18.2504         16.7504
   2279476.67044   1864701.55745  24866642.3724   24866650.3564
     -1652.8284      -1287.9184          7.2504          6.7504
  -7877121.24646  -5850465.63946  22437852.4424   22437858.6654
      1328.7974       1035.4264         18.2504         15.7504
  -5101936.85147  -3842536.21246  21778760.3024   21778766.3254
     -2093.0944      -1630.9824         26.0004         21.0004
  13979945.04746  11044774.77945  23483661.9194   23483668.3414
     -3787.8594      -2951.5794         12.2504         11.2504
  -3298491.42645  -2483288.06745  23735201.1694   23735211.8374
       983.6564        766.4854         10.7504         10.5004
  -7590589.54748  -5784939.09947  21087763.0214   21087768.9274
     -1775.1094      -1383.2024         30.7504         29.0004
   -892620.80343   -579327.19045  24947960.4584   24947977.9934
      2015.8284       1570.7754          5.7504          5.5004
 01  6 30  0 25 30.0010000  0  9G21G29G30G20G11G14G 1G25G22
  25416358.76445   4710532.54845  24155262.0834   24155273.7244
     -4140.6564      -3226.4854          7.5004          7.0004
   8638382.50646   6839133.87046  22370489.9584   22370495.9814
     -3213.7664      -2504.2334         18.2504         16.7504
   2329334.13544   1903551.52345  24876128.8804   24876138.4814
     -1670.5314      -1301.7134          6.7504          7.2504
  -7916893.67246  -5881457.09646  22430284.2634   22430290.2284
      1323.1564       1031.0314         18.2504         15.7504
  -5038861.56247  -3793386.67346  21790763.1384   21790769.4074
     -2111.4374      -1645.2764         26.0004         21.2504
  14093611.27746  11133345.77045  23505293.1384   23505299.7824
     -3789.3754      -2952.7604         13.2504         10.7504
  -3327915.35645  -2506215.61145  23729601.8104   23729612.2674
       978.4224        762.4074         10.7504         10.5004
  -7537077.40248  -5743241.32047  21097946.0284   21097951.8294
     -1791.8754      -1396.2664         30.7504         29.0004
   -953135.30543   -626480.98445  24936444.6144   24936466.5604
      2018.9844       1573.2354          5.2504          5.0004
 01  6 30  0 26  0.0010000  0  9G21G29G30G20G11G14G 1G25G22
  25540720.77145   4807437.73245  24178927.3334   24178937.5564
     -4150.1724      -3233.9004          7.5004          7.2504
   8734863.15046   6914313.56046  22388848.9424   22388855.0604
     -3218.2664      -2507.7394         18.0004         16.7504
   2379734.30143   1942824.42545  24885720.0604   24885733.6104
     -1689.4844      -1316.4814          6.0004          6.2504
  -7956484.08446  -5912306.71246  22422750.0284   22422756.2284
      1316.1884       1025.6014         18.5004         16.0004
  -4975224.75647  -3743799.58946  21802872.9424   21802879.0134
     -2131.0004      -1660.5194         26.5004         21.2504
  14207335.44146  11221961.93545  23526932.7634   23526938.8104
     -3792.2034      -2954.9634         12.2504         10.7504
  -3357170.16145  -2529011.37645  23724034.5834   23724045.3924
       971.9064        757.3304         10.2504         10.7504
  -7483051.59048  -5701143.27747  21108226.7944   21108232.6534
     -1809.8594      -1410.2804         31.0004         29.2504
  -1013731.94543   -673698.68045  24924913.3414   24924934.7004
      2020.7814       1574.6354          6.0004          5.7504
 01  6 30  0 26 30.0010000  0  9G21G29G30G20G11G14G 1G25G22
  25665331.28044   4904536.52045  24202639.5364   24202650.6034
     -4157.7814      -3239.8304          6.5004          6.5004
   8831441.17246   6989569.11446  22407227.9504   22407234.0674
     -3220.8594      -2509.7614         18.5004         16.7504
   2430666.59545   1982511.98645  24895413.8104   24895422.2164
     -1706.5784      -1329.8014          7.5004          7.5004
  -7995901.28846  -5943021.36346  22415249.5524   22415255.6814
      1311.0314       1021.5834         19.2504         16.0004
  -4911038.58147  -3693784.42846  21815086.9194   21815092.9664
     -2148.6414      -1674.2654         26.0004         21.2504
  14321106.15746  11310614.37545  23548583.8724   23548590.9194
     -3793.0784      -2955.6454         12.7504         10.7504
  -3386266.82545  -2551683.90445  23718497.6224   23718508.2554
       967.2814        753.7264         10.5004         10.7504
  -7428523.31448  -5658653.70047  21118603.0364   21118608.9424
     -1825.9374      -1422.8084         30.5004         28.7504
  -1074418.82544   -720986.76245  24913364.8024   24913383.2284
      2024.3754       1577.4354          6.2504          6.0004
 01  6 30  0 27  0.0010000  0  9G21G29G30G20G11G14G 1G25G22
  25790180.56445   5001821.38145  24226399.4274   24226411.9584
     -4164.9694      -3245.4304          9.0004          7.5004
   8928108.03846   7064893.91346  22425622.7864   22425629.1264
     -3223.0314      -2511.4534         18.2504         16.7504
   2482123.21144   2022608.06445  24905204.7164   24905215.4424
     -1723.3124      -1342.8414          6.2504          6.0004
  -8035151.42647  -5973605.84546  22407780.7004   22407786.9934
      1306.1884       1017.8084         20.2504         16.2504
  -4846312.13147  -3643348.26846  21827403.8804   21827410.1384
     -2165.8754      -1687.6954         26.0004         21.2504
  14434914.78146  11399296.34145  23570240.2164   23570246.2744
     -3793.5784      -2956.0354         12.5004         10.5004
  -3415213.47145  -2574239.53145  23712989.2634   23712998.5484
       963.0474        750.4264         10.0004         10.2504
  -7373501.69848  -5615779.70847  21129073.2394   21129079.1574
     -1841.6094      -1435.0204         30.7504         29.0004
  -1135200.53743   -768348.77745  24901797.2784   24901815.8334
      2028.2814       1580.4794          5.7504          6.0004
 01  6 30  0 27 30.0010000  0  9G21G29G30G20G11G14G 1G25G22
  25915270.66445   5099293.90045  24250202.4424   24250213.5674
     -4173.5474      -3252.1144          7.7504          6.5004
   9024865.71246   7140289.45146  22444035.5834   22444041.3964
     -3226.6414      -2514.2654         18.2504         15.7504
   2534106.73043   2063114.72645  24915095.8024   24915104.5714
     -1741.4064      -1356.9404          6.0004          6.7504
  -8074230.19946  -6004056.79246  22400343.9584   22400349.6424
      1299.8754       1012.8904         19.5004         16.2504
  -4781044.13247  -3592490.12046  21839824.2634   21839830.2394
     -2184.4694      -1702.1834         26.2504         21.5004
  14548763.12445  11488009.26845  23591904.3494   23591909.9274
     -3795.4694      -2957.5084         11.5004         10.2504
  -3444007.62545  -2596676.34045  23707509.8644   23707519.8294
       957.4064        746.0314         10.0004         10.2504
  -7317985.40748  -5572520.26047  21139637.9114   21139643.6884
     -1858.6414      -1448.2914         30.7504         29.0004
  -1196071.81643   -815780.44345  24890214.2554   24890233.6774
      2030.6564       1582.3304          5.5004          6.5004
 01  6 30  0 28  0.0010000  0  9G21G29G30G20G11G14G 1G25G22
  26040603.41545   5196955.54845  24274052.9814   24274064.3644
     -4181.6564      -3258.4334          8.0004          7.0004
   9121716.53346   7215757.57746  22462465.5134   22462471.4314
     -3229.7664      -2516.7004         18.5004         16.0004
   2586620.37043   2104034.53345  24925090.7554   24925097.4814
     -1759.1724      -1370.7834          6.0004          5.5004
  -8113132.59346  -6034370.29246  22392940.7784   22392947.1064
      1293.9064       1008.2394         19.7504         16.7504
  -4715232.65247  -3541208.47546  21852347.6924   21852353.8804
     -2202.6414      -1716.3434         26.2504         21.5004
  14662653.66245  11576755.05245  23613577.2864   23613584.2984
     -3796.9224      -2958.6404         11.7504         10.0004
  -3472646.29345  -2618991.99645  23702059.5284   23702069.6464
       952.1564        741.9404          9.7504         10.7504
  -7261972.55648  -5528873.87047  21150296.6144   21150302.4854
     -1875.2504      -1461.2344         30.7504         29.0004
  -1257026.91144   -863277.51945  24878615.1774   24878633.5674
      2033.3284       1584.4124          7.0004          6.2504
 01  6 30  0 28 30.0010000  0  9G21G29G30G20G11G14G 1G25G22
  26166195.09145   5294818.89345  24297952.6224   24297966.0564
     -4190.9224      -3265.6534          7.5004          6.7504
   9218676.47346   7291310.72746  22480916.2164   22480922.3104
     -3234.0164      -2520.0124         17.7504         16.2504
   2639680.64143   2145380.09145  24935185.9894   24935190.3024
     -1778.0004      -1385.4554          6.0004          6.2504
  -8151840.17746  -6064531.99546  22385574.8804   22385580.7744
      1286.7664       1002.6754         19.5004         17.0004
  -4648862.36847  -3489491.40246  21864977.6304   21864983.8174
     -2221.8444      -1731.3074         26.0004         21.2504
  14776602.10245  11665545.99045  23635261.0604   23635267.8564
     -3799.4534      -2960.6134         11.5004          9.7504
  -3501113.09345  -2641173.74945  23696642.3104   23696653.3534
       945.8134        736.9974          9.5004         10.5004
  -7205447.72348  -5484828.54247  21161052.8724   21161058.7784
     -1892.8914      -1474.9804         30.5004         29.0004
  -1318046.98044   -910825.29345  24867002.2474   24867021.1654
      2034.8594       1585.6054          7.2504          6.5004
 01  6 30  0 29  0.0010000  0  9G21G29G30G20G11G14G 1G25G22
  26292024.89844   5392867.80645  24321897.0754   24321909.2434
     -4198.2034      -3271.3274          7.2504          7.7504
   9315725.12246   7366933.02746  22499384.1854   22499390.4074
     -3236.3444      -2521.8264         18.0004         16.2504
   2693268.17144   2187136.63445  24945383.7394   24945392.0994
     -1794.9534      -1398.6654          6.2504          6.2504
  -8190370.49046  -6094555.55646  22378243.0754   22378249.0874
      1281.4534        998.5354         19.5004         16.7504
  -4581954.45647  -3437355.39446  21877709.7634   21877715.8454
     -2239.1254      -1744.7734         26.2504         21.5004
  14890588.12245  11754366.16445  23656951.9814   23656957.9114
     -3800.0784      -2961.1004         11.5004          9.7504
  -3529427.86045  -2663237.01845  23691254.4974   23691264.2044
       941.3594        733.5274          9.2504         10.0004
  -7148431.93948  -5440400.65147  21171902.7554   21171908.5094
     -1908.6254      -1487.2404         30.7504         29.0004
  -1379148.63943   -958436.47145  24855374.3804   24855391.4704
      2038.1254       1588.1494          5.7504          6.5004
 01  6 30  0 29 30.0010000  0  9G21G29G30G20G11G14G 1G25G22
  26418089.14544   5491099.41345  24345886.2394   24345899.8254
     -4205.5474      -3277.0504          7.2504          7.5004
   9412858.82046   7442621.57146  22517868.3494   22517874.3964
     -3238.7034      -2523.6654         18.0004         16.0004
   2747379.83944   2229301.58745  24955682.3104   24955690.2714
     -1811.9694      -1411.9244          6.7504          6.5004
  -8228724.94846  -6124442.08546  22370944.4034   22370950.5324
      1276.0164        994.2984         19.5004         17.0004
  -4514513.54447  -3384804.05946  21890543.4584   21890549.7044
     -2256.4224      -1758.2514         26.0004         21.5004
  15004608.29645  11843212.98045  23678649.2084   23678656.1964
     -3800.7344      -2961.6114         11.5004         10.7504
  -3557593.52145  -2685184.09245  23685893.8334   23685904.8644
       936.8594        730.0204          9.0004         10.2504
  -7090929.43248  -5395593.49447  21182845.0054   21182850.8294
     -1924.3594      -1499.5014         30.5004         29.0004
  -1440331.77143  -1006111.26745  24843730.4584   24843746.3644
      2041.2344       1590.5724          5.5004          6.0004
 01  6 30  0 30  0.0010000  0  9G21G29G30G20G11G14G 1G25G22
  26544377.80044   5589505.90645  24369918.2314   24369932.6034
     -4212.7664      -3282.6754          7.2504          7.2504
   9510068.53546   7518369.36446  22536366.2084   22536372.3844
     -3241.0004      -2525.4554         17.5004         16.2504
   2802007.18643   2271868.33545  24966076.1304   24966086.2594
     -1828.9064      -1425.1224          6.0004          6.5004
  -8266909.95946  -6154196.58246  22363677.8964   22363683.9194
      1270.5944        990.0734         19.5004         17.0004
  -4446549.07447  -3331844.76146  21903476.4274   21903482.8494
     -2273.5944      -1771.6314         25.7504         21.2504
  15118653.40345  11932079.20945  23700351.5524   23700358.3374
     -3801.3124      -2962.0624         11.7504         10.7504
  -3585618.81145  -2707021.77245  23680561.1534   23680570.4154
       932.4384        726.5754          9.0004         10.0004
  -7032949.93348  -5350414.65947  21193878.2784   21193884.1614
     -1940.0004      -1511.6884         30.7504         28.7504
  -1501602.23444  -1053853.96645  24832072.2554   24832090.1064
      2044.3914       1593.0324          6.5004          5.5004
 01  6 30  0 30 30.0010000  0  9G21G29G30G20G11G14G 1G25G22
  26670891.48444   5688087.64645  24393993.4744   24394007.1774
     -4221.4844      -3289.4684          6.7504          7.7504
   9607354.69346   7594176.72646  22554879.2244   22554885.3414
     -3244.7504      -2528.3774         17.5004         16.0004
   2857151.18044   2314837.76845  24976570.7314   24976579.3024
     -1847.3284      -1439.4764          7.2504          6.5004
  -8304922.75847  -6183816.88546  22356444.5214   22356450.5794
      1263.6094        984.6314         20.0004         17.2504
  -4378061.63847  -3278477.95446  21916509.3104   21916515.3804
     -2292.2194      -1786.1444         26.0004         20.7504
  15232723.62445  12020965.01945  23722058.0524   23722065.4624
     -3803.3444      -2963.6444         11.0004         10.7504
  -3613502.91645  -2728749.44545  23675254.8414   23675264.6064
       926.5164        721.9604          8.7504         10.2504
  -6974493.30848  -5304864.03947  21205002.1144   21205007.9154
     -1957.0944      -1525.0084         30.7504         28.7504
  -1562956.64445  -1101662.20545  24820396.3724   24820415.7004
      2045.9064       1594.2134          7.5004          6.7504
 01  6 30  0 31  0.0010000  0  9G21G29G30G20G11G14G 1G25G22
  26797654.05644   5786863.40545  24418115.7634   24418129.5954
     -4229.2344      -3295.5074          7.2504          6.7504
   9704741.54346   7670062.53646  22573411.5754   22573417.4934
     -3247.5784      -2530.5804         17.2504         15.7504
   2912836.86544   2358229.24345  24987167.3804   24987174.6494
     -1864.8914      -1453.1624          7.2504          6.5004
  -8342736.29447  -6213281.91846  22349248.3254   22349254.3964
      1257.4384        979.8214         20.0004         17.5004
  -4309027.58047  -3224685.20546  21929645.8884   21929651.7824
     -2309.9064      -1799.9274         26.0004         21.2504
  15346843.41445  12109889.48145  23743774.8644   23743781.9354
     -3804.4844      -2964.5334         11.7504         10.2504
  -3641220.62445  -2750347.48445  23669979.9354   23669990.1224
       921.4844        718.0404          8.7504         10.5004
  -6915536.02048  -5258923.29147  21216221.3494   21216227.2434
     -1973.2504      -1537.5974         30.7504         29.0004
  -1624367.10144  -1149514.11645  24808709.8024   24808727.5014
      2048.2344       1596.0274          7.2504          6.7504
 01  6 30  0 31 30.0010000  0  9G21G29G30G20G11G14G 1G25G22
  26924653.91244   5885824.04445  24442283.2314   24442296.2084
     -4236.9064      -3301.4854          7.2504          6.7504
   9802218.16946   7746018.31146  22591960.2554   22591966.3844
     -3250.3594      -2532.7484         16.7504         15.5004
   2969053.41944   2402034.36245  24997863.5444   24997872.9584
     -1882.3914      -1466.7984          6.5004          6.5004
  -8380359.14047  -6242598.35946  22342088.7714   22342095.0754
      1251.2504        975.0004         20.2504         17.7504
  -4239458.74047  -3170475.75346  21942884.5134   21942890.5714
     -2327.5004      -1813.6364         26.0004         21.0004
  15461001.66045  12198843.86745  23765498.4664   23765504.1034
     -3805.5624      -2965.3734         11.5004          9.7504
  -3668782.79945  -2771824.29845  23664735.2634   23664746.1424
       916.5164        714.1684          8.5004         10.2504
  -6856089.86148  -5212601.60347  21227533.4814   21227539.3064
     -1989.3124      -1550.1144         30.7504         28.7504
  -1685841.01543  -1197415.39245  24797011.3024   24797029.0014
      2050.5004       1597.7924          5.7504          6.7504
 01  6 30  0 32  0.0010000  0  9G21G29G30G20G11G14G 1G25G22
  27051897.58844   5984974.69145  24466496.3414   24466508.2044
     -4245.6874      -3308.3284          6.5004          7.2504
   9899791.11946   7822049.13646  22610528.4034   22610534.6384
     -3254.2194      -2535.7554         17.5004         15.7504
   3025808.17845   2446258.88545  25008665.1064   25008672.9034
     -1900.9844      -1481.2874          8.2504          7.5004
  -8417781.99147  -6271758.96846  22334967.7314   22334973.8374
      1243.8914        969.2654         20.7504         17.7504
  -4169349.36347  -3115845.10146  21956226.1534   21956232.1774
     -2346.1564      -1828.1744         26.0004         21.2504
  15575204.94845  12287833.39545  23787230.4274   23787238.2824
     -3807.7034      -2967.0414         10.7504          9.7504
  -3696182.43045  -2793174.46745  23659521.1924   23659531.1104
       910.4224        709.4204          9.0004         10.2504
  -6796148.80148  -5165894.27947  21238939.7634   21238945.6694
     -2006.4534      -1563.4704         30.5004         28.7504
  -1747368.04642  -1245358.14445  24785302.1774   24785320.5214
      2051.5474       1598.6084          4.7504          6.2504
 01  6 30  0 32 30.0010000  0  9G21G29G30G20G11G14G 1G25G22
  27179385.14644   6084315.37245  24490757.2714   24490772.0404
     -4253.2194      -3314.1964          7.2504          7.0004
   9997461.03546   7898155.51246  22629114.8254   22629120.9424
     -3256.8754      -2537.8254         17.5004         16.0004
   3083102.26644   2490903.65745  25019567.3724   25019580.4784
     -1918.3914      -1494.8504          6.7504          6.0004
  -8455002.04247  -6300761.53646  22327885.1534   22327891.2824
      1237.6564        964.4074         21.2504         17.5004
  -4098699.88147  -3060793.59446  21969670.3334   21969676.7314
     -2363.5784      -1841.7494         25.7504         21.0004
  15689453.89745  12376858.46145  23808970.1924   23808975.4424
     -3808.6724      -2967.7964         10.2504          9.0004
  -3723418.45945  -2814397.14445  23654338.6144   23654348.5214
       905.5314        705.6094          9.2504         10.5004
  -6735712.63048  -5118801.15747  21250440.6064   21250446.5134
     -2022.3754      -1575.8774         30.7504         28.7504
  -1808944.25945  -1293339.16645  24773585.3414   24773599.7594
      2053.7344       1600.3134          7.7504          6.0004
 01  6 30  0 33  0.0010000  0  9G21G29G30G20G11G14G 1G25G22
  27307095.06944   6183829.31845  24515060.5834   24515074.6144
     -4260.6094      -3319.9554          7.0004          6.2504
  10095206.98446   7974321.14946  22647714.7314   22647720.7204
     -3259.3754      -2539.7734         17.0004         15.2504
   3140914.80644   2535952.37245  25030568.7394   25030578.1654
     -1935.6564      -1508.3044          7.2504          6.7504
  -8492037.63547  -6329620.39246  22320837.4894   22320843.6184
      1231.5164        959.6234         21.0004         17.7504
  -4027531.92347  -3005338.08846  21983213.0674   21983219.2554
     -2380.7974      -1855.1664         26.0004         20.7504
  15803727.48145  12465902.72245  23830717.2164   23830723.3104
     -3809.4224      -2968.3814         11.2504          9.5004
  -3750511.28545  -2835508.26345  23649182.6224   23649192.7284
       900.7814        701.9074          9.2504         10.5004
  -6674803.48448  -5071339.48547  21262031.2244   21262036.9784
     -2038.0784      -1588.1134         30.7504         29.0004
  -1870587.78645  -1341372.74745  24761855.4664   24761871.7714
      2055.9844       1602.0664          8.5004          6.7504
 01  6 30  0 33 30.0010000  0  9G21G29G30G20G11G14G 1G25G22
  27435034.24244   6283521.81045  24539406.3334   24539419.8024
     -4268.6564      -3326.2264          6.2504          6.7504
  10193035.93146   8050551.45246  22666330.6694   22666336.9504
     -3262.5624      -2542.2564         16.2504         15.5004
   3199253.58244   2581411.15645  25041669.5604   25041680.4384
     -1953.6414      -1522.3174          6.7504          6.7504
  -8528879.06647  -6358327.92746  22313826.6384   22313832.8024
      1224.5634        954.2054         20.7504         17.5004
  -3955839.57247  -2949473.95546  21996855.5524   21996861.7284
     -2398.7034      -1869.1194         26.0004         21.0004
  15918032.65945  12554971.62545  23852468.4664   23852475.4194
     -3810.9224      -2969.5504         11.0004         10.0004
  -3777453.64345  -2856502.11545  23644054.9114   23644064.3604
       895.3444        697.6704          9.5004         10.2504
  -6613414.80148  -5023504.14947  21273712.9504   21273718.8214
     -2054.5004      -1600.9094         30.5004         28.7504
  -1932288.06844  -1389450.51245  24750113.3964   24750131.0834
      2057.3444       1603.1254          6.2504          7.2504
 01  6 30  0 34  0.0010000  0  9G21G29G30G20G11G14G 1G25G22
  27563206.36144   6383395.90445  24563796.5914   24563810.5754
     -4275.7034      -3331.7174          6.7504          5.5004
  10290951.92946   8126849.60346  22684964.3804   22684970.2864
     -3264.7504      -2543.9614         17.5004         15.5004
   3258123.04044   2627283.48545  25052872.1224   25052879.7904
     -1970.5944      -1535.5284          6.5004          6.7504
  -8565519.71247  -6386879.00146  22306854.2554   22306860.2314
      1218.5474        949.5174         21.0004         18.2504
  -3883619.97447  -2893198.98746  22010598.8804   22010604.9854
     -2415.5314      -1882.2324         26.0004         21.0004
  16032373.61945  12644068.40345  23874227.7394   23874234.5834
     -3811.3754      -2969.9034         11.2504         10.0004
  -3804240.79645  -2877375.00945  23638957.9424   23638968.6814
       890.8754        694.1884          9.7504         10.5004
  -6551543.46748  -4975292.71447  21285486.6694   21285492.6104
     -2069.8444      -1612.8654         30.2504         28.7504
  -1994037.06642  -1437566.07345  24738360.3494   24738379.8534
      2059.6724       1604.9394          4.5004          5.7504
 01  6 30  0 34 30.0010000  0  9G21G29G30G20G11G14G 1G25G22
  27691602.33944   6483444.39045  24588229.3254   24588245.9114
     -4283.8754      -3338.0844          6.2504          6.5004
  10388946.43846   8203208.91946  22703611.4584   22703617.5404
     -3268.0624      -2546.5424         16.7504         15.0004
   3317515.06944   2673562.98645  25064174.5994   25064181.4704
     -1988.7344      -1549.6634          7.2504          6.2504
  -8601965.72647  -6415278.44146  22299918.4974   22299924.7084
      1211.3134        943.8804         20.5004         17.7504
  -3810882.55047  -2836520.51946  22024440.1534   22024446.5054
     -2433.4844      -1896.2224         25.5004         20.7504
  16146741.72745  12733186.35145  23895990.8414   23895997.9704
     -3813.0004      -2971.1694         11.2504          9.7504
  -3830880.96745  -2898133.39845  23633888.2474   23633897.6264
       885.2664        689.8174         10.5004         10.7504
  -6489198.69448  -4926712.37447  21297350.5604   21297356.3844
     -2086.3284      -1625.7104         30.2504         28.7504
  -2055839.96545  -1485723.73945  24726601.2784   24726618.9664
      2060.6724       1605.7184          7.5004          6.5004
 01  6 30  0 35  0.0010000  0  9G21G29G30G20G11G14G 1G25G22
  27820251.95544   6583690.49945  24612710.9424   24612722.8884
     -4292.1414      -3344.5254          6.5004          6.7504
  10487049.52146   8279652.84246  22722279.5914   22722285.3804
     -3271.5004      -2549.2214         16.0004         15.0004
   3377459.89944   2720273.28145  25075581.6614   25075589.0604
     -2006.9694      -1563.8724          6.5004          6.2504
  -8638184.62047  -6443500.89146  22293025.9194   22293031.9894
      1203.8914        938.0974         21.0004         18.5004
  -3737597.88047  -2779415.63846  22038385.6614   22038391.9194
     -2451.5164      -1910.2724         25.2504         20.7504
  16261167.04545  12822348.86545  23917765.1384   23917771.7474
     -3814.7194      -2972.5084         11.0004         10.0004
  -3857343.69945  -2918753.53645  23628852.4274   23628861.8174
       879.5474        685.3614         10.7504         10.7504
  -6426351.22948  -4877740.33147  21309310.1144   21309315.9274
     -2102.8594      -1638.5924         30.2504         28.5004
  -2117663.38045  -1533897.48145  24714836.5214   24714851.5954
      2061.5004       1606.3644          8.7504          6.7504
 01  6 30  0 35 30.0010000  0  9G21G29G30G20G11G14G 1G25G22
  27949126.19444   6684111.68545  24637235.9114   24637252.9784
     -4299.7814      -3350.4794          7.0004          7.5004
  10585232.82546   8356159.26746  22740963.3964   22740969.6064
     -3274.3754      -2551.4614         16.5004         15.2504
   3437929.22044   2767392.26645  25087087.9814   25087096.8454
     -2024.6414      -1577.6424          6.2504          5.5004
  -8674202.23047  -6471566.49746  22286172.2784   22286178.3374
      1196.9384        932.6794         21.5004         18.7504
  -3663795.75747  -2721907.54946  22052429.8494   22052436.2474
     -2468.9374      -1923.8474         25.5004         21.0004
  16375620.93045  12911533.59745  23939545.3564   23939551.1104
     -3815.8594      -2973.3974         11.2504          9.7504
  -3883657.23745  -2939257.41945  23623844.8644   23623855.1464
       874.3754        681.3314         11.2504         10.5004
  -6363030.62748  -4828399.61247  21321359.6614   21321365.5564
     -2118.8284      -1651.0354         30.5004         28.7504
  -2179533.02843  -1582107.23845  24703062.1384   24703079.7674
      2062.7974       1607.3744          5.7504          6.2504
 01  6 30  0 36  0.0010000  0  9G21G29G30G20G11G14G 1G25G22
  28078234.35645   6784715.11545  24661805.0674   24661823.7514
     -4307.6254      -3356.5914          7.5004          6.0004
  10683506.07546   8432735.77146  22759664.4814   22759670.8104
     -3277.4064      -2553.8234         16.0004         14.7504
   3498933.30244   2814927.89745  25098697.1854   25098703.9354
     -2042.5314      -1591.5834          6.5004          6.0004
  -8710006.02747  -6499465.51446  22279359.0524   22279365.0404
      1189.7344        927.0664         21.7504         18.5004
  -3589467.26147  -2663989.29446  22066574.2714   22066580.5284
     -2486.5164      -1937.5454         25.7504         20.7504
  16490113.39145  13000748.45145  23961332.8024   23961339.8494
     -3817.1874      -2974.4324         11.5004          9.5004
  -3909811.05845  -2959636.84445  23618868.5364   23618878.1034
       868.9844        677.1314         11.5004         11.0004
  -6299227.21348  -4778682.67447  21333500.8104   21333506.7044
     -2134.9374      -1663.5884         30.2504         28.7504
  -2241434.67043  -1630341.75745  24691282.8334   24691299.3724
      2063.7344       1608.1054          5.5004          7.0004
 01  6 30  0 36 30.0010000  0  9G21G29G30G20G11G14G 1G25G22
  28207567.53643   6885493.90645  24686415.9504   24686429.0214
     -4314.6414      -3362.0584          6.0004          6.2504
  10781861.06546   8509375.97046  22778381.1854   22778387.0324
     -3279.6414      -2555.5644         16.5004         14.7504
   3560464.10444   2862874.01845  25110405.7554   25110411.4034
     -2059.5944      -1604.8784          6.2504          7.0004
  -8745602.08847  -6527202.64246  22272584.9664   22272591.0244
      1183.2664        922.0254         21.2504         18.5004
  -3514621.94347  -2605668.32246  22080816.6384   22080822.8964
     -2503.2344      -1950.5724         25.2504         20.7504
  16604636.07445  13089986.80745  23983123.6694   23983130.1494
     -3817.7194      -2974.8464          9.7504          9.5004
  -3935813.32645  -2979898.19645  23613919.5754   23613929.0014
       864.4224        673.5754         11.7504         10.7504
  -6234950.99248  -4728597.31747  21345732.4354   21345738.1424
     -2150.2034      -1675.4834         31.0004         28.7504
  -2303373.18645  -1678605.05345  24679496.1304   24679512.6694
      2065.3914       1609.3954          7.7504          8.0004
 01  6 30  0 37  0.0010000  0  9G21G29G30G20G11G14G 1G25G22
  28337128.77244   6986450.32945  24711070.3884   24711082.2394
     -4323.2504      -3368.7664          6.5004          5.7504
  10880301.40346   8586082.68546  22797113.8804   22797120.1734
     -3283.5164      -2558.5844         16.2504         15.0004
   3622525.35643   2911233.39845  25122215.3644   25122221.4704
     -2078.3284      -1619.4764          6.0004          6.0004
  -8780984.08547  -6554772.98346  22265852.1064   22265858.1534
      1175.0474        915.6214         21.7504         18.5004
  -3439257.44447  -2546942.80446  22095158.2084   22095164.8644
     -2521.5474      -1964.8424         25.0004         20.7504
  16719192.46045  13179251.46945  24004925.2164   24004932.1924
     -3819.8754      -2976.5264         11.0004          9.2504
  -3961659.90946  -3000038.23245  23609001.5524   23609010.4504
       858.1884        668.7184         12.5004         11.0004
  -6170198.61448  -4678140.92347  21358054.4814   21358060.2594
     -2167.0944      -1688.6444         30.5004         28.5004
  -2365341.52145  -1726891.60545  24667703.5914   24667719.8134
      2065.3284       1609.3474          7.7504          7.5004
 01  6 30  0 37 30.0010000  0  9G21G29G30G20G11G14G 1G25G22
  28466928.74044   7087592.84345  24735771.4274   24735784.4034
     -4330.5944      -3374.4894          6.2504          5.5004
  10978838.07846   8662864.44746  22815864.8414   22815870.6064
     -3286.1254      -2560.6174         16.2504         14.5004
   3685128.56243   2960015.09645  25134129.1464   25134135.1464
     -2095.7814      -1633.0764          6.0004          6.0004
  -8816138.37547  -6582165.88446  22259162.4504   22259168.5914
      1168.0004        910.1304         21.7504         18.7504
  -3363363.71747  -2487804.89546  22109600.2714   22109606.4464
     -2538.5784      -1978.1134         25.0004         20.5004
  16833793.74645  13268551.02745  24026732.6614   24026738.5214
     -3820.7504      -2977.2084         10.2504          8.5004
  -3987339.44546  -3020048.10445  23604114.2164   23604122.6344
       853.2034        664.8344         12.5004         11.2504
  -6104960.30748  -4627305.88647  21370468.8334   21370474.6814
     -2182.6724      -1700.7834         30.2504         28.2504
  -2427325.81144  -1775190.61345  24655908.4584   24655924.5634
      2066.3914       1610.1754          6.2504          6.2504
 01  6 30  0 38  0.0020000  0  9G21G29G30G20G11G14G 1G25G22
  28596973.32044   7188925.91044  24760518.4554   24760534.8184
     -4338.9844      -3381.0274          6.2504          4.2504
  11077476.38646   8739725.42146  22834635.3144   22834641.6194
     -3289.7504      -2563.4424         16.5004         14.5004
   3748277.73643   3009222.26145  25146145.1114   25146156.2604
     -2114.2504      -1647.4684          5.7504          6.2504
  -8851061.63247  -6609378.76646  22252516.6894   22252522.6784
      1159.8754        903.7994         22.0004         18.7504
  -3286937.38347  -2428251.97846  22124144.0804   22124150.1864
     -2556.5784      -1992.1394         25.5004         20.7504
  16948445.62445  13357890.08945  24048549.5414   24048557.3504
     -3822.6564      -2978.6934          9.7504          9.0004
  -4012850.37746  -3039926.60345  23599259.7444   23599268.0804
       847.2034        660.1584         13.0004         10.7504
  -6039232.47948  -4576089.40247  21382976.1434   21382981.9794
     -2199.2504      -1713.7014         30.0004         28.2504
  -2489322.54543  -1823499.32945  24644108.7754   24644120.6744
      2066.3284       1610.1264          5.7504          5.2504
 01  6 30  0 38 30.0020000  0  9G21G29G30G20G11G14G 1G25G22
  28727236.06944   7290429.02645  24785307.1434   24785325.4754
     -4346.5004      -3386.8834          6.7504          5.2504
  11176192.74146   8816647.19746  22853419.8854   22853426.0724
     -3292.6094      -2565.6704         15.7504         14.5004
   3811951.63944   3058838.31645  25158262.4634   25158270.9634
     -2131.9534      -1661.2624          6.5004          6.7504
  -8885766.08847  -6636421.15446  22245912.5024   22245918.6314
      1152.4534        898.0154         21.5004         18.7504
  -3210001.85447  -2368302.27546  22138784.2914   22138790.5144
     -2573.7664      -2005.5324         25.0004         20.5004
  17063123.30045  13447249.29645  24070372.6824   24070380.0924
     -3823.7814      -2979.5704         10.0004          8.7504
  -4038207.80646  -3059685.46045  23594433.8854   23594443.5104
       841.9844        656.0924         12.7504         11.2504
  -5973037.99748  -4524509.29447  21395572.7444   21395578.5334
     -2215.0004      -1725.9744         30.5004         28.5004
  -2551340.65445  -1871824.68745  24632308.4634   24632324.5334
      2066.9064       1610.5764          8.0004          7.5004
 01  6 30  0 39  0.0020000  0  9G21G29G30G20G11G14G 1G25G22
  28857721.32743   7392105.52845  24810136.5574   24810150.0494
     -4353.0004      -3391.9484          5.5004          6.2504
  11274991.13346   8893632.88846  22872220.5964   22872226.7134
     -3294.4224      -2567.0824         15.2504         14.0004
   3876153.16045   3108865.50745  25170480.2524   25170488.0614
     -2148.6254      -1674.2534          7.5004          5.7504
  -8920250.01747  -6663291.68846  22239350.6974   22239356.5574
      1145.9844        892.9754         22.0004         18.7504
  -3132554.95847  -2307954.10746  22153522.0334   22153528.4904
     -2589.8444      -2018.0604         24.7504         20.5004
  17177831.12145  13536631.88645  24092201.6584   24092208.8934
     -3823.8594      -2979.6314         10.7504          9.5004
  -4063411.46646  -3079324.51845  23589637.9474   23589647.6434
       837.7814        652.8174         13.2504         11.5004
  -5906374.81148  -4472563.95547  21408258.3774   21408264.3074
     -2229.6874      -1737.4194         30.5004         28.2504
  -2613378.10445  -1920165.04645  24620501.8544   24620518.0064
      2068.4064       1611.7454          7.7504          8.2504
 01  6 30  0 39 30.0020000  0  9G21G29G30G20G11G14G 1G25G22
  28988425.44544   7493952.51345  24835009.4244   24835027.5214
     -4361.2344      -3398.3644          6.2504          6.5004
  11373868.21446   8970679.92546  22891035.9944   22891042.1934
     -3298.0004      -2569.8704         15.7504         14.5004
   3940879.16143   3159301.40745  25182796.0104   25182803.2324
     -2167.0784      -1688.6324          6.0004          4.5004
  -8954513.87147  -6689990.75746  22232830.2604   22232836.2254
      1137.6564        886.4854         22.0004         18.7504
  -3054601.62247  -2247211.32146  22168355.9164   22168362.3504
     -2607.6564      -2031.9404         24.2504         20.2504
  17292566.08545  13626035.64845  24114034.8544   24114041.5334
     -3825.7194      -2981.0804         10.7504          9.5004
  -4088464.29346  -3098846.06845  23584870.1274   23584878.1004
       831.7974        648.1534         13.0004         11.2504
  -5839246.66148  -4420256.30447  21421032.2604   21421038.1544
     -2246.1254      -1750.2274         30.2504         28.2504
  -2675435.10244  -1968520.75345  24608692.3544   24608710.6974
      2068.0784       1611.4894          6.5004          7.7504
 01  6 30  0 40  0.0020000  0  9G21G29G30G20G11G14G 1G25G22
  29119374.34844   7595990.24145  24859928.1584   24859944.9674
     -4368.7194      -3404.1964          7.0004          6.5004
  11472850.67946   9047809.04946  22909871.6044   22909877.7684
     -3300.8594      -2572.0984         14.7504         14.0004
   4006156.34544   3210166.75545  25195219.0574   25195227.4514
     -2184.7664      -1702.4154          7.2504          6.2504
  -8988528.49147  -6716495.60746  22226357.8934   22226363.7524
      1129.9534        880.4834         22.2504         19.2504
  -2976116.47947  -2186054.13546  22183291.3614   22183297.9824
     -2624.7034      -2045.2234         24.5004         20.0004
  17407354.88145  13715481.38745  24135877.3544   24135885.1744
     -3826.8594      -2981.9684          9.5004          9.2504
  -4113339.48946  -3118229.18645  23580136.8694   23580145.0644
       826.5314        644.0504         13.0004         11.2504
  -5771628.35048  -4367566.71247  21433899.6274   21433905.4864
     -2261.7664      -1762.4154         30.2504         28.2504
  -2737481.82944  -2016868.34145  24596884.6114   24596900.3544
      2068.3594       1611.7094          6.2504          6.0004
 01  6 30  0 40 30.0020000  0  9G21G29G30G20G11G14G 1G25G22
  29250543.91244   7698199.92645  24884889.6974   24884907.0214
     -4375.8284      -3409.7364          6.2504          6.7504
  11571914.83346   9125001.84246  22928722.9244   22928729.0294
     -3303.3594      -2574.0464         15.0004         14.0004
   4071961.05544   3261443.19745  25207740.4084   25207746.9824
     -2202.1414      -1715.9544          6.2504          5.5004
  -9022314.88547  -6742822.61546  22219928.2214   22219934.1974
      1122.5314        874.7004         22.5004         19.5004
  -2897124.19247  -2124501.77846  22198322.9164   22198329.4794
     -2641.3754      -2058.2144         24.5004         20.2504
  17522173.69845  13804950.51245  24157726.1504   24157733.3614
     -3827.6414      -2982.5774          9.5004          9.2504
  -4138060.35946  -3137492.06245  23575432.4084   23575440.4984
       821.6094        640.2154         13.0004         11.0004
  -5703544.89948  -4314514.67247  21446855.4634   21446861.2994
     -2277.0474      -1774.3224         30.2504         28.2504
  -2799537.90745  -2065223.37345  24585076.1274   24585092.8654
      2068.7974       1612.0504          7.5004          7.0004
 01  6 30  0 41  0.0020000  0  9G21G29G30G20G11G14G 1G25G22
  29381935.48545   7800582.56145  24909894.0334   24909906.1314
     -4382.6724      -3415.0694          7.7504          6.7504
  11671063.43946   9202260.44046  22947591.4164   22947597.5214
     -3305.6094      -2575.8004         15.7504         14.5004
   4138295.61944   3313132.46645  25220362.9634   25220371.1934
     -2219.2664      -1729.2984          6.5004          6.5004
  -9055868.19947  -6768968.00946  22213543.0254   22213549.1074
      1115.2814        869.0504         22.2504         19.7504
  -2817623.50547  -2062553.25346  22213451.5334   22213457.9204
     -2657.7344      -2070.9624         24.2504         20.0004
  17637025.05945  13894444.99345  24179583.1824   24179589.1584
     -3828.1724      -2982.9914         10.7504          9.2504
  -4162623.96646  -3156632.36845  23570757.8544   23570767.2324
       816.9064        636.5504         12.7504         11.0004
  -5634994.59648  -4261098.84747  21459900.4554   21459906.2094
     -2292.0474      -1786.0114         30.7504         28.2504
  -2861597.08444  -2113580.69145  24573266.5104   24573284.2794
      2069.3754       1612.5004          7.0004          7.0004
 01  6 30  0 41 30.0020000  0  9G21G29G30G20G11G14G 1G25G22
  29513535.53143   7903127.65945  24934936.3304   24934948.0884
     -4390.0004      -3420.7794          6.0004          6.2504
  11770282.76946   9279574.13546  22966472.0254   22966478.2484
     -3308.3284      -2577.9184         15.2504         14.2504
   4205146.95943   3365224.40345  25233084.1274   25233093.3544
     -2236.8594      -1743.0074          5.7504          6.5004
  -9089199.39447  -6794940.32346  22207200.3074   22207206.4004
      1107.4534        862.9504         23.0004         19.5004
  -2737629.63747  -2000220.43746  22228673.6584   22228680.1974
     -2674.5314      -2084.0504         23.7504         19.7504
  17751895.53845  13983954.37445  24201441.6434   24201447.7484
     -3829.1724      -2983.7704          9.5004          9.2504
  -4187043.47146  -3175660.41145  23566110.7914   23566119.7604
       811.7194        632.5084         12.2504         10.2504
  -5565991.56448  -4207330.24447  21473031.0574   21473036.9284
     -2307.5004      -1798.0524         30.5004         28.2504
  -2923669.68344  -2161948.49445  24561454.2054   24561467.8144
      2069.4224       1612.5374          7.0004          6.7504
 01  6 30  0 42  0.0020000  0  9G21G29G30G20G11G14G 1G25G22
  29645353.38343   8005842.43045  24960020.3544   24960035.6624
     -4397.4534      -3426.5874          5.7504          5.7504
  11869583.16546   9356951.00846  22985368.2294   22985374.2994
     -3311.2814      -2580.2194         15.0004         14.0004
   4272524.81143   3417726.65845  25245906.3854   25245916.3384
     -2254.6254      -1756.8514          6.0004          6.5004
  -9122295.51547  -6820729.45946  22200902.6504   22200908.6044
      1099.3284        856.6194         23.2504         19.7504
  -2657133.51347  -1937496.24946  22243991.9794   22243998.3304
     -2691.4844      -2097.2614         24.2504         20.2504
  17866795.37645  14073486.65445  24223307.1894   24223314.6114
     -3830.4064      -2984.7324         10.0004          9.5004
  -4211308.25946  -3194567.87045  23561493.7524   23561501.5024
       806.3134        628.2954         12.0004         10.7504
  -5496526.85748  -4153201.90047  21486249.7754   21486255.7174
     -2323.0944      -1810.2034         30.2504         28.2504
  -2985742.22045  -2210316.26945  24549641.5254   24549657.6074
      2069.1254       1612.3054          7.5004          7.7504
 01  6 30  0 42 30.0020000  0  9G21G29G30G20G11G14G 1G25G22
  29777401.46544   8108736.71345  24985149.3694   24985163.2014
     -4405.8444      -3433.1254          7.2504          6.5004
  11968977.85046   9434401.35846  23004282.0804   23004288.6894
     -3315.1254      -2583.2144         15.0004         13.7504
   4340442.12644   3470649.21445  25258830.9164   25258839.0064
     -2273.3124      -1771.4124          7.2504          6.5004
  -9155141.11347  -6846323.37646  22194652.1354   22194658.0764
      1090.2504        849.5454         23.2504         19.7504
  -2576123.48347  -1874371.61446  22259407.4794   22259413.9594
     -2709.2814      -2111.1284         23.7504         19.7504
  17981737.57145  14163051.93045  24245179.3614   24245186.9594
     -3832.5164      -2986.3764          9.5004          9.5004
  -4235404.86145  -3213344.29445  23556908.0184   23556917.2214
       800.0164        623.3894         11.5004         10.2504
  -5426588.65248  -4098704.59247  21499558.4324   21499564.3504
     -2339.5474      -1823.0244         30.0004         28.0004
  -3047798.16345  -2258671.12845  24537832.3934   24537847.2684
      2067.8284       1611.2954          7.7504          7.2504
 01  6 30  0 43  0.0020000  0  9G21G29G30G20G11G14G 1G25G22
  29909663.51844   8211797.70845  25010317.4794   25010333.6894
     -4411.7974      -3437.7644          6.2504          6.5004
  12068450.92346   9511912.79546  23023210.9554   23023217.5184
     -3316.6094      -2584.3714         14.7504         14.2504
   4408883.12044   3523979.91245  25271855.1274   25271861.6074
     -2289.6254      -1784.1234          6.7504          7.7504
  -9187749.42547  -6871732.39846  22188446.9244   22188452.7954
      1083.4384        844.2374         23.0004         19.7504
  -2494616.94047  -1810860.08346  22274917.8464   22274924.3384
     -2724.6724      -2123.1214         23.7504         19.7504
  18096706.18445  14252637.74945  24267057.4004   24267063.6114
     -3832.2504      -2986.1694          9.7504          8.5004
  -4259348.99245  -3232001.88645  23552351.2994   23552360.1044
       796.0634        620.3084         11.5004         10.7504
  -5356193.82148  -4043851.47047  21512954.1584   21512959.9824
     -2353.6254      -1833.9944         30.2504         27.7504
  -3109849.41745  -2307022.33545  24526023.5964   24526036.7834
      2068.7344       1612.0014          7.5004          6.2504
 01  6 30  0 43 30.0020000  0  9G21G29G30G20G11G14G 1G25G22
  30042143.20244   8315028.20345  25035529.2444   25035546.9554
     -4419.3594      -3443.6574          6.7504          6.0004
  12168007.08246   9589488.96446  23042156.2134   23042162.3304
     -3319.6724      -2586.7574         14.7504         14.0004
   4477852.33043   3577722.09145  25284979.7444   25284989.1234
     -2307.5314      -1798.0764          6.0004          6.0004
  -9220113.29747  -6896950.94246  22182288.1114   22182293.9594
      1074.9384        837.6144         23.0004         19.7504
  -2412610.58747  -1746959.09046  22290523.4474   22290530.1864
     -2741.6254      -2136.3314         24.2504         19.7504
  18211706.04945  14342247.96945  24288941.2054   24288948.4044
     -3833.5944      -2987.2164          9.7504          9.2504
  -4283135.66345  -3250536.79645  23547824.1664   23547832.2214
       790.5004        615.9744         11.0004         10.2504
  -5285338.97248  -3988639.90447  21526437.7054   21526443.3894
     -2369.2504      -1846.1694         30.5004         28.0004
  -3171887.76543  -2355363.50745  24514218.4084   24514233.7294
      2067.9534       1611.3924          5.5004          5.5004
 01  6 30  0 44  0.0020000  0  9G21G29G30G20G11G14G 1G25G22
  30174833.20144   8418422.57145  25060778.2444   25060794.7604
     -4426.5944      -3449.2944          6.7504          5.2504
  12267639.64346   9667124.67646  23061115.8774   23061122.1234
     -3322.4694      -2588.9374         15.0004         13.5004
   4547343.08143   3631870.75645  25298202.5724   25298211.3544
     -2325.1094      -1811.7744          6.0004          6.0004
  -9252236.83447  -6921982.22646  22176175.0884   22176181.0414
      1066.6564        831.1614         23.2504         20.0004
  -2330112.38047  -1682674.83446  22306222.2684   22306228.9364
     -2758.2194      -2149.2614         23.7504         19.7504
  18326730.42345  14431877.26445  24310830.6744   24310836.9204
     -3834.6414      -2988.0324         10.2504          8.5004
  -4306771.29545  -3268954.01345  23543326.7834   23543334.5804
       785.2344        611.8714         11.2504         11.2504
  -5214031.78148  -3933075.86247  21540006.8544   21540012.7364
     -2384.5164      -1858.0644         30.2504         28.2504
  -3233916.68445  -2403697.30445  24502415.3854   24502430.1194
      2067.3284       1610.9054          9.2504          7.7504
 01  6 30  0 44 30.0020000  0  9G21G29G30G20G11G14G 1G25G22
  30307743.57244   8521988.71245  25086070.8224   25086086.9634
     -4434.2664      -3455.2724          6.7504          6.2504
  12367359.49646   9744828.40546  23080092.0644   23080098.0184
     -3325.7344      -2591.4814         15.0004         13.7504
   4617365.60943   3686433.88545  25311526.8384   25311535.1624
     -2343.2504      -1825.9094          6.0004          5.7504
  -9284106.79147  -6946815.90346  22170110.5574   22170116.7324
      1057.7974        824.2574         23.5004         20.2504
  -2247113.21847  -1618000.21546  22322016.1114   22322023.0644
     -2775.2504      -2162.5324         23.5004         20.0004
  18441790.26945  14521534.20845  24332724.7294   24332730.8934
     -3836.2034      -2989.2494          9.7504          9.0004
  -4330244.63945  -3287244.77145  23538860.2214   23538869.2484
       779.4694        607.3784         11.2504         10.5004
  -5142262.56548  -3877151.79947  21553664.0884   21553670.0764
     -2400.2814      -1870.3494         30.5004         27.7504
  -3295922.18845  -2452012.95745  24490614.7294   24490629.7684
      2066.1414       1609.9804          8.2504          7.5004
 01  6 30  0 45  0.0020000  0  9G21G29G30G20G11G14G 1G25G22
  30440868.67143   8625722.12145  25111403.1824   25111420.0724
     -4440.5004      -3460.1304          5.7504          5.5004
  12467161.66946   9822596.30146  23099083.4794   23099089.8654
     -3327.5624      -2592.9064         14.2504         13.7504
   4687914.95244   3741407.28645  25324952.6194   25324960.8144
     -2359.8914      -1838.8764          6.5004          6.2504
  -9315725.55047  -6971453.84546  22164093.6274   22164099.7094
      1050.2814        818.4014         23.7504         20.5004
  -2163619.63847  -1552940.34846  22337904.9474   22337911.7444
     -2790.7974      -2174.6474         23.5004         19.7504
  18556880.48245  14611214.81945  24354626.5414   24354630.6314
     -3836.2974      -2989.3224         10.2504          8.7504
  -4353560.55745  -3305412.86045  23534423.1974   23534432.5064
       775.1254        603.9944         11.0004         11.2504
  -5070037.49348  -3820872.52547  21567408.0334   21567413.9164
     -2414.5474      -1881.4654         30.2504         27.7504
  -3357905.49645  -2500311.23245  24478819.3544   24478835.5884
      2066.2344       1610.0534          7.5004          7.5004
 01  6 30  0 45 30.0020000  0  9G21G29G30G20G11G14G 1G25G22
  30574196.75043   8729613.74345  25136775.4634   25136791.6864
     -4447.5624      -3465.6334          6.0004          6.0004
  12567035.22746   9900419.80746  23118088.8544   23118094.8304
     -3330.2344      -2594.9884         14.5004         13.7504
   4758979.64544   3796782.38645  25338475.4084   25338482.7484
     -2377.3594      -1852.4884          6.5004          6.7504
  -9347101.54147  -6995902.62346  22158122.8934   22158128.9044
      1041.8594        811.8384         23.7504         20.5004
  -2079644.07647  -1487504.90546  22353884.8384   22353891.6704
     -2807.1254      -2187.3704         23.5004         19.7504
  18671990.05945  14700910.54045  24376530.7364   24376539.7174
     -3837.2344      -2990.0534          9.5004          9.2504
  -4376729.84045  -3323466.69545  23530013.0184   23530020.9554
       769.9224        599.9394         11.2504         11.7504
  -4997368.93648  -3764247.67147  21581236.3544   21581242.2834
     -2429.5944      -1893.1904         30.2504         27.7504
  -3419873.59945  -2548597.78545  24467027.1504   24467041.6154
      2065.3754       1609.3834          7.5004          8.2504
 01  6 30  0 46  0.0020000  0  9G21G29G30G20G11G14G 1G25G22
  30707726.97743   8833662.90945  25162186.3144   25162203.8964
     -4454.5474      -3471.0754          6.0004          6.2504
  12666980.74746   9978299.38246  23137107.8854   23137114.7794
     -3332.9064      -2597.0704         14.5004         13.7504
   4830559.94943   3852559.25845  25352096.5414   25352104.1154
     -2394.7974      -1866.0754          6.0004          6.5004
  -9378231.83047  -7020159.94446  22152198.9794   22152204.9204
      1033.3754        805.2274         24.2504         20.7504
  -1995187.69147  -1421694.80146  22369956.6664   22369963.1004
     -2823.3914      -2200.0454         24.0004         19.7504
  18787119.48045  14790621.66745  24398439.3774   24398447.2214
     -3838.1564      -2990.7714          9.5004          8.5004
  -4399751.71945  -3341405.66945  23525633.2524   23525641.6114
       764.7504        595.9094         11.7504         11.5004
  -4924257.65248  -3707277.84247  21595148.6824   21595154.6824
     -2444.5944      -1904.8784         30.0004         27.7504
  -3481822.67744  -2596869.40145  24455238.1274   24455254.6074
      2064.4224       1608.6404          7.2504          7.7504
 01  6 30  0 46 30.0020000  0  9G21G29G30G20G11G14G 1G25G22
  30841478.54442   8937884.52545  25187637.2214   25187655.7644
     -4462.2974      -3477.1144          4.7504          4.5004
  12767017.66746  10056250.18846  23156144.2294   23156150.5214
     -3336.3124      -2599.7244         14.2504         13.2504
   4902674.93343   3908752.72545  25365819.9944   25365831.4714
     -2412.9374      -1880.2114          6.0004          5.7504
  -9409094.37247  -7044208.63546  22146326.1274   22146332.0454
      1024.0474        797.9594         24.2504         20.7504
  -1910232.51947  -1355496.00646  22386122.9164   22386129.2914
     -2840.3444      -2213.2554         23.7504         19.7504
  18902288.40345  14880363.62145  24420354.7054   24420361.7294
     -3839.8594      -2992.0984          9.5004          8.0004
  -4422606.32346  -3359214.32146  23521284.0574   23521293.0254
       758.8134        591.2824         12.5004         12.2504
  -4850685.03448  -3649948.52747  21609149.4634   21609155.2644
     -2460.2974      -1917.1144         30.5004         27.7504
  -3543730.04845  -2645108.64145  24443456.8694   24443471.0414
      2062.6414       1607.2524          7.7504          7.5004
 01  6 30  0 47  0.0020000  0  9G21G29G30G20G11G14G 1G25G22
  30975437.74644   9042267.89345  25213130.6744   25213146.1004
     -4468.8754      -3482.2404          7.2504          6.7504
  12867133.00246  10134262.09646  23175195.8464   23175202.0684
     -3338.6254      -2601.5264         14.2504         13.7504
   4975311.40443   3965352.58245  25379642.5494   25379650.5684
     -2430.0314      -1893.5314          5.7504          6.0004
  -9439699.72247  -7068056.89946  22140501.7834   22140507.9364
      1015.7504        791.4944         24.0004         21.0004
  -1824793.35547  -1288920.09346  22402381.7994   22402388.3854
     -2856.1414      -2225.5644         23.5004         19.5004
  19017483.68845  14970126.10545  24442275.1434   24442283.4904
     -3840.4224      -2992.5374          8.7504          8.5004
  -4445306.52746  -3376902.63846  23516963.7754   23516971.9364
       753.9694        587.5084         12.7504         12.5004
  -4776665.49548  -3592270.97047  21623234.7684   21623240.5334
     -2474.8754      -1928.4744         30.0004         27.7504
  -3605605.56945  -2693322.99745  24431682.1434   24431696.5024
      2061.7974       1606.5954          8.0004          8.0004
 01  6 30  0 47 30.0020000  0  9G21G29G30G20G11G14G 1G25G22
  31109607.94944   9146815.72045  25238661.8224   25238676.4984
     -4475.2814      -3487.2324          6.2504          6.7504
  12967330.72246  10212338.20746  23194263.1114   23194269.5684
     -3340.7344      -2603.1704         14.7504         13.5004
   5048472.90943   4022361.55045  25393564.6504   25393578.6584
     -2446.9064      -1906.6804          5.2504          6.5004
  -9470041.49747  -7091699.80446  22134728.3774   22134734.4594
      1007.5314        785.0894         24.5004         20.7504
  -1738867.85547  -1221965.22146  22418732.5804   22418739.1664
     -2871.7194      -2237.7034         23.0004         19.2504
  19132709.38945  15059912.27045  24464202.4474   24464208.4474
     -3840.7974      -2992.8294          9.0004          8.2504
  -4467848.01946  -3394467.30846  23512674.2834   23512682.6074
       749.2974        583.8684         13.2504         12.7504
  -4702196.00648  -3534242.79447  21637405.7294   21637411.6114
     -2489.2344      -1939.6634         29.7504         27.7504
  -3667441.00244  -2741506.17345  24419915.3144   24419930.5534
      2061.0474       1606.0114          6.7504          8.0004
 01  6 30  0 48  0.0020000  0  9G21G29G30G20G11G14G 1G25G22
  31243987.82643   9251526.90245  25264234.2054   25264251.3774
     -4482.4844      -3492.8454          5.2504          5.2504
  13067611.15546  10290478.76846  23213345.9164   23213351.9864
     -3343.7194      -2605.4954         14.7504         13.2504
   5122159.26243   4079779.51145  25407586.0104   25407595.6704
     -2464.6094      -1920.4754          5.0004          5.5004
  -9500116.95947  -7115135.17846  22129004.8614   22129010.9324
       998.3754        777.9554         24.2504         21.0004
  -1652457.47547  -1154632.51546  22435176.0884   22435183.0184
     -2888.0784      -2250.4504         23.2504         19.2504
  19247965.59345  15149722.19145  24486136.1354   24486142.4864
     -3842.0784      -2993.8274          9.7504          9.0004
  -4490230.53946  -3411908.09446  23508414.5724   23508423.2834
       743.7664        579.5584         13.7504         13.2504
  -4627278.12748  -3475865.23047  21651662.4004   21651668.2364
     -2504.3914      -1951.4734         30.2504         27.7504
  -3729232.66845  -2789655.19745  24408157.3464   24408172.1504
      2059.2664       1604.6234          8.7504          7.5004
 01  6 30  0 48 30.0020000  0  8G29G30G20G11G14G 1G25G22
  13167959.99946  10368672.62346  23232441.1664   23232447.1544
     -3346.0474      -2607.3094         14.2504         13.7504
   5196355.61543   4137594.76845  25421705.4714   25421711.9284
     -2481.6564      -1933.7584          6.0004          6.0004
  -9529937.73547  -7138372.09946  22123330.5254   22123336.5724
       989.8134        771.2824         25.0004         21.5004
  -1565578.15547  -1086934.40946  22451708.8464   22451715.7754
     -2903.7034      -2262.6264         23.7504         19.7504
  19363238.35445  15239545.09145  24508071.8934   24508078.4434
     -3842.6254      -2994.2534          9.2504          7.7504
  -4512468.18946  -3429236.01046  23504183.0414   23504191.3654
       738.8914        575.7594         14.5004         13.5004
  -4551927.51948  -3417150.47347  21666001.0104   21666006.7404
     -2518.8284      -1962.7234         30.0004         27.5004
  -3790991.50745  -2837778.67345  24396403.7834   24396416.8544
      2058.0944       1603.7094          7.7504          7.2504
 01  6 30  0 49  0.0020000  0  8G29G30G20G11G14G 1G25G22
  13268386.16646  10446926.73346  23251552.1194   23251558.7644
     -3349.0314      -2609.6354         14.5004         13.2504
   5271070.37643   4195814.12145  25435923.2914   25435933.2214
     -2499.3754      -1947.5654          5.2504          6.0004
  -9559492.34447  -7161401.61446  22117705.9244   22117711.9004
       980.5004        764.0264         24.5004         21.5004
  -1478222.69647  -1018865.27546  22468331.9794   22468338.8734
     -2919.9694      -2275.3004         23.7504         19.2504
  19478536.18245  15329387.44345  24530011.6824   24530019.0684
     -3843.8754      -2995.2274          8.7504          8.5004
  -4534551.73046  -3446443.85346  23499980.2754   23499989.1154
       733.3444        571.4374         14.7504         13.7504
  -4476136.63548  -3358092.64447  21680423.5724   21680429.3734
     -2533.8914      -1974.4604         30.0004         27.2504
  -3852705.53145  -2885867.25845  24384659.7214   24384671.1154
      2056.1564       1602.2004          8.2504          8.7504
 01  6 30  0 49 30.0020000  0  8G29G30G20G11G14G 1G25G22
  13368894.11446  10525244.55646  23270678.0184   23270683.7834
     -3351.3594      -2611.4494         14.5004         12.7504
   5346307.59944   4254440.49045  25450241.2754   25450249.4244
     -2516.3754      -1960.8124          6.2504          6.2504
  -9588773.88947  -7184218.36146  22112133.8774   22112139.9594
       971.7504        757.2084         24.7504         21.5004
  -1390388.36147   -950423.00246  22485046.0334   22485052.9044
     -2935.5004      -2287.4034         23.2504         19.0004
  19593863.61645  15419252.87645  24551957.0494   24551965.1864
     -3844.4844      -2995.7024          8.0004          8.7504
  -4556476.54046  -3463527.99646  23495808.3854   23495817.0614
       728.4534        567.6264         15.2504         13.7504
  -4399902.11648  -3298689.12447  21694930.4554   21694936.3734
     -2548.2504      -1985.6494         29.7504         27.5004
  -3914366.54745  -2933914.46045  24372926.5254   24372942.1504
      2054.6884       1601.0554          8.2504          8.0004
 01  6 30  0 50  0.0020000  0  8G29G30G20G11G14G 1G25G22
  13469474.03846  10603618.46246  23289817.8854   23289824.1194
     -3354.2194      -2613.6774         14.0004         13.5004
   5422056.90343   4313465.89245  25464654.8144   25464659.8544
     -2533.8124      -1974.3994          5.0004          6.2504
  -9617789.95947  -7206828.24046  22106612.2754   22106618.2054
       962.3914        749.9154         24.7504         21.5004
  -1302086.83347   -881616.67446  22501849.4394   22501856.0494
     -2951.5004      -2299.8704         23.0004         19.0004
  19709210.73045  15509133.63245  24573908.2214   24573914.8774
     -3845.5944      -2996.5674          9.5004          8.5004
  -4578252.34446  -3480496.04946  23491664.5494   23491672.6274
       723.0164        563.3894         15.7504         14.0004
  -4323235.33248  -3238948.78447  21709519.7444   21709525.5924
     -2563.1094      -1997.2284         30.2504         27.5004
  -3975980.57845  -2981925.08545  24361201.5494   24361216.0494
      2052.5944       1599.4244          8.2504          8.0004
 01  6 30  0 50 30.0020000  0  8G29G30G20G11G14G 1G25G22
  13570136.06546  10682056.35546  23308973.0254   23308979.7874
     -3356.7664      -2615.6624         14.2504         13.2504
   5498327.96544   4372897.83345  25479169.5494   25479175.0924
     -2551.0314      -1987.8174          6.5004          6.5004
  -9646527.74047  -7229221.27746  22101143.7994   22101149.7994
       953.2814        742.8174         25.0004         21.5004
  -1213309.68647   -812439.74246  22518743.3694   22518750.2134
     -2967.1254      -2312.0454         23.5004         19.2504
  19824587.78145  15599037.75245  24595864.5254   24595872.1004
     -3846.3754      -2997.1754         10.0004          9.5004
  -4599868.57846  -3497339.75846  23487551.2524   23487559.7404
       717.9064        559.4074         16.0004         13.7504
  -4246127.41648  -3178864.69747  21724192.8614   21724198.5924
     -2577.5784      -2008.5024         30.0004         27.5004
  -4037533.83845  -3029888.36345  24349488.6354   24349503.2404
      2050.7504       1597.9874          9.5004          9.0004
 01  6 30  0 51  0.0020000  0  8G29G30G20G11G14G 1G25G22
  13670880.17846  10760558.20646  23328144.3544   23328150.6354
     -3360.1094      -2618.2674         13.7504         13.2504
   5575119.99844   4432735.80645  25493782.5254   25493789.4554
     -2569.0314      -2001.8434          6.5004          5.7504
  -9674984.77047  -7251395.54846  22095728.4794   22095734.4324
       943.2504        735.0004         25.0004         21.7504
  -1124058.86847   -742893.72046  22535727.1274   22535733.9244
     -2983.5164      -2324.8174         23.7504         19.2504
  19939994.71145  15688965.14245  24617825.5414   24617832.1624
     -3848.0164      -2998.4544         10.0004          8.2504
  -4621325.29046  -3514059.18346  23483468.1114   23483476.4824
       711.9534        554.7694         16.2504         13.7504
  -4168579.78448  -3118437.98347  21738949.6114   21738955.5534
     -2592.8444      -2020.3984         30.0004         27.2504
  -4099023.32145  -3077801.95145  24337786.7684   24337800.7874
      2047.9694       1595.8204          8.2504          8.7504
 01  6 30  0 51 30.0020000  0  8G29G30G20G11G14G 1G25G22
  13771708.77946  10839125.89246  23347331.4164   23347338.0144
     -3362.0314      -2619.7654         14.2504         13.0004
   5652434.77543   4492981.02845  25508494.2054   25508508.2834
     -2585.5314      -2014.7004          5.5004          5.5004
  -9703156.14647  -7273347.22746  22090367.7994   22090373.8464
       934.6094        728.2674         25.5004         22.0004
  -1034333.74247   -672978.09546  22552801.3774   22552807.6704
     -2998.3754      -2336.3964         23.7504         19.2504
  20055433.99845  15778917.76245  24639792.4944   24639798.9514
     -3848.1724      -2998.5754          9.5004          8.2504
  -4642619.95346  -3530652.32046  23479415.5494   23479423.8144
       707.4694        551.2744         16.0004         13.2504
  -4090591.45148  -3057667.86247  21753790.4794   21753796.3614
     -2606.5944      -2031.1124         30.0004         27.2504
  -4160443.44245  -3125661.43045  24326098.8464   24326112.1974
      2046.4844       1594.6634          9.0004          8.0004
 01  6 30  0 52  0.0020000  0  8G29G30G20G11G14G 1G25G22
  13872612.96146  10917752.44346  23366532.9794   23366539.5184
     -3364.7344      -2621.8714         14.2504         12.7504
   5730262.63044   4553626.21745  25523304.8464   25523317.5764
     -2602.7974      -2028.1534          6.7504          5.0004
  -9731048.87347  -7295081.77246  22085059.6974   22085065.7324
       925.0784        720.8404         25.5004         22.0004
   -944145.38847   -602701.53046  22569963.7914   22569970.3894
     -3013.9844      -2348.5594         23.5004         19.0004
  20170896.58345  15868888.46545  24661764.2294   24661770.9434
     -3849.1414      -2999.3304          9.0004          8.5004
  -4663761.54046  -3547126.17946  23475392.3384   23475400.1354
       702.1724        547.1474         15.7504         13.2504
  -4012172.98048  -2996562.57447  21768713.0884   21768718.9594
     -2621.1094      -2042.4234         30.0004         27.2504
  -4221799.16045  -3173470.78345  24314422.3144   24314436.1464
      2044.0784       1592.7884          7.7504          7.7504
 01  6 30  0 52 30.0020000  0  8G29G30G20G11G14G 1G25G22
  13973594.12246  10996439.01046  23385748.8464   23385755.0104
     -3367.5474      -2624.0624         14.0004         12.7504
   5808604.54043   4614671.88245  25538212.6044   25538227.1044
     -2620.2034      -2041.7174          5.5004          6.0004
  -9758658.52447  -7316595.74346  22079805.7914   22079811.7214
       915.3594        713.2674         26.0004         22.2504
   -853494.08447   -532064.22446  22587214.1664   22587221.3774
     -3029.6254      -2360.7474         23.0004         19.0004
  20286383.72245  15958878.38045  24683740.3694   24683747.6044
     -3850.1874      -3000.1464          8.7504          8.0004
  -4684748.30746  -3563479.40246  23471399.0334   23471407.8964
       696.7504        542.9224         15.7504         13.0004
  -3933324.38948  -2935122.12047  21783717.4634   21783723.3224
     -2635.6564      -2053.7584         30.0004         27.2504
  -4283085.30945  -3221225.88445  24302760.1584   24302773.7094
      2041.4534       1590.7434          9.0004          9.2504
 01  6 30  0 53  0.0020000  0  8G29G30G20G11G14G 1G25G22
  14074654.09646  11075186.96346  23404979.7294   23404986.2564
     -3369.7814      -2625.8044         13.5004         12.5004
   5887461.50542   4676118.69145  25553218.2524   25553234.2524
     -2636.9694      -2054.7814          4.7504          5.5004
  -9785980.94247  -7337885.90946  22074606.5494   22074612.5254
       906.1414        706.0844         25.7504         22.2504
   -762379.99247   -461066.30546  22604552.5884   22604559.2914
     -3044.6254      -2372.4354         23.2504         18.5004
  20401897.32845  16048888.84445  24705722.5574   24705728.9554
     -3850.6874      -3000.5364          9.2504          8.7504
  -4705578.31846  -3579710.48746  23467434.7604   23467442.6624
       691.9224        539.1604         15.2504         12.5004
  -3854045.31848  -2873346.23347  21798803.7054   21798809.6004
     -2649.5944      -2064.6194         29.7504         27.0004
  -4344296.82445  -3268922.84945  24291112.3464   24291124.3964
      2039.3134       1589.0754          9.5004          8.5004
 01  6 30  0 53 30.0020000  0  8G29G30G20G11G14G 1G25G22
  14175780.43146  11153986.62246  23424224.1504   23424230.4904
     -3371.8754      -2627.4354         13.7504         12.7504
   5966820.20743                  25568320.6354
     -2653.5164                          5.5004
  -9813026.19747  -7358960.09246  22069459.9634   22069465.9634
       896.9694        698.9374         25.5004         22.2504
   -670817.52247   -389718.98946  22621976.6744   22621983.3894
     -3059.4224      -2383.9654         23.2504         18.5004
  20517424.84445  16138910.21945  24727705.7604   24727712.7954
     -3851.0314      -3000.8044          8.2504          8.5004
  -4726263.93846  -3595829.04846  23463498.0254   23463505.7294
       687.2194        535.4954         14.7504         13.0004
  -3774349.65948  -2811245.73347  21813969.2524   21813975.0534
     -2663.3284      -2075.3214         29.7504         27.0004
  -4405443.14345  -3316569.00245  24279474.9794   24279486.4434
      2037.1884       1587.4194          8.2504          8.2504
 01  6 30  0 54  0.0020000  0  8G29G30G20G11G14G 1G25G22
  14276972.16146  11232837.26346  23443479.7754   23443485.9514
     -3374.2194      -2629.2614         13.2504         12.2504
   6046678.75942                  25583515.4634
     -2670.3754                          4.0004
  -9839792.81847  -7379817.14546  22064366.1114   22064372.0644
       887.4694        691.5344         25.5004         22.5004
   -578809.69647   -318024.65646  22639484.9714   22639491.6504
     -3074.4064      -2395.6414         23.2504         18.7504
  20632965.44745  16228941.80445  24749692.6824   24749700.2444
     -3851.6564      -3001.2914          8.0004          8.2504
  -4746806.23846  -3611835.92746  23459589.0494   23459597.1744
       682.2814        531.6484         14.2504         12.2504
  -3694240.06548  -2748822.68947  21829213.6504   21829219.5454
     -2677.2814      -2086.1934         29.7504         26.7504
  -4466521.47345  -3364162.17845  24267852.5184   24267865.1314
      2034.6884       1585.4714          9.0004          8.0004
 01  6 30  0 54 30.0020000  0  8G29G30G20G11G14G 1G25G22
  14378270.53146  11311770.97646  23462756.7364   23462763.1464
     -3378.1414      -2632.3174         14.0004         12.7504
     61687.14953                  25598816.4714
     -2688.6874                          5.2504
  -9866237.06847  -7400423.02046  22059334.2444   22059340.2684
       876.3134        682.8414         26.0004         22.5004
   -486317.28547   -245952.72246  22657085.8074   22657092.7134
     -3090.8914      -2408.4864         23.0004         18.5004
  20748560.32445  16319015.62945  24771689.0104   24771694.8694
     -3853.8284      -3002.9834          7.7504          7.7504
  -4767163.66446  -3627698.75146  23455715.1194   23455723.5254
       675.7504        526.5584         13.7504         12.0004
  -3613676.69548  -2686046.04647  21844544.5574   21844550.4164
     -2692.7504      -2098.2474         30.0004         26.7504
  -4527486.68145  -3411667.18445  24256250.8544   24256264.9434
      2030.5164       1582.2204          9.0004          8.5004
 01  6 30  0 55  0.0020000  0  8G29G30G20G11G14G 1G25G22
  14479643.94746  11390763.15846  23482047.5254   23482053.2684
     -3379.7664      -2633.5844         13.7504         12.5004
    142594.67844                  25614213.1894
     -2704.7664                          7.2504
  -9892387.88247  -7420800.23146  22054357.6744   22054363.7794
       867.3594        675.8644         25.5004         22.7504
   -393373.76147   -173529.27646  22674772.5964   22674779.4284
     -3105.0164      -2419.4934         23.0004         18.2504
  20864178.07645  16409107.29745  24793690.8464   24793698.9004
     -3853.7344      -3002.9104          7.7504          8.0004
  -4787367.37146  -3643441.80546  23451870.5104   23451876.8854
       671.4844        523.2354         13.5004         12.0004
  -3532692.59348  -2622941.57347  21859955.2134   21859961.1544
     -2705.8914      -2108.4864         29.7504         27.0004
  -4588366.72045  -3459105.86945  24244665.5804   24244678.3574
      2028.4844       1580.6374          9.5004          8.7504
 01  6 30  0 55 30.0020000  0  8G29G30G20G11G14G 1G25G22
  14581084.94446  11469808.02746  23501350.8614   23501357.4004
     -3382.4694      -2635.6904         13.2504         12.0004
     13601.08854                  25629704.3304
     -2721.8594                          6.5004
  -9918250.60647  -7440952.96946  22049436.2754   22049442.1004
       857.2814        668.0114         26.5004         22.7504
   -299988.51647   -100761.63746  22692543.1974   22692549.7364
     -3120.1724      -2431.3034         22.7504         18.2504
  20979811.04145  16499210.81245  24815694.8144   24815702.1544
     -3854.6564      -3003.6284          8.2504          8.0004
  -4807424.95446  -3659070.98146  23448053.9164   23448062.2524
       666.1724        519.0954         13.5004         12.0004
  -3451296.64148  -2559516.17147  21875444.1434   21875450.1194
     -2720.0164      -2119.4934         29.5004         26.7504
  -4649166.12645  -3506481.66445  24233095.4394   24233107.6074
      2025.2814       1578.1414          9.0004          8.7504
 01  6 30  0 56  0.0020000  0  8G29G30G20G11G14G 1G25G22
  14682597.29046  11548908.46146  23520667.5254   23520673.8654
     -3385.3124      -2637.9064         12.7504         12.5004
     95511.04243                  25645290.5724
     -2739.0624                          5.5004
  -9943818.95947  -7460876.31346  22044570.8694   22044576.9044
       846.9844        659.9884         26.5004         22.7504
   -206159.94547    -27648.54146  22710398.1894   22710405.0724
     -3135.3444      -2443.1254         22.7504         18.0004
  21095462.78445  16589328.93045  24837703.1274   24837710.1274
     -3855.7504      -3004.4814          8.0004          7.7504
  -4827332.55646  -3674583.30245  23444265.4324   23444273.5804
       660.7344        514.8584         13.2504         11.7504
  -3369486.99848  -2495768.41647  21891012.0804   21891018.0334
     -2734.2344      -2130.5724         29.5004         26.5004
  -4709877.88245  -3553789.22045  24221542.1894   24221555.0254
      2021.8594       1575.4754          9.5004          9.2504
 01  6 30  0 56 30.0020000  0  8G29G30G20G11G14G 1G25G22
  14784185.19946  11628067.80246  23539999.3854   23540006.1004
     -3386.7344      -2639.0144         12.7504         12.2504
    177926.98743                  25660972.8544
     -2754.8594                          6.0004
  -9969086.35847  -7480565.16546  22039762.5254   22039768.6434
       837.9694        652.9634         26.7504         23.0004
   -111886.06247     45811.53946  22728338.1504   22728345.0454
     -3149.0784      -2453.8274         22.5004         18.0004
  21211137.40145  16679464.91145  24859715.4794   24859723.7914
     -3855.4374      -3004.2374          8.2504          8.2504
  -4847085.93146  -3689975.41846  23440506.3854   23440513.9004
       656.6564        511.6804         13.5004         12.2504
  -3287261.25048  -2431696.43147  21906659.2054   21906665.1704
     -2747.0164      -2140.5324         29.0004         26.5004
  -4770493.90545  -3601022.11845  24210006.7444   24210019.6394
      2019.6564       1573.7584          9.0004          9.2504
 01  6 30  0 57  0.0020000  0  8G29G30G20G11G14G 1G25G22
  14885852.55546  11707289.03645  23559346.6114   23559352.4944
     -3390.5624      -2641.9974         13.0004         11.7504
    260851.69644                  25676753.5574
     -2772.9694                          6.2504
  -9994046.60047  -7500014.65146  22035012.5334   22035018.4864
       826.5314        644.0504         26.7504         23.2504
    -17165.28947    119619.84646  22746362.9084   22746369.7914
     -3165.1254      -2466.3314         23.0004         18.0004
  21326839.04045  16769621.98245  24881732.9554   24881740.3184
     -3857.5004      -3005.8444          7.5004          8.5004
  -4866681.08946  -3705244.26946  23436777.1504   23436784.9824
       650.2034        506.6524         14.0004         13.0004
  -3204616.84748  -2367298.21547  21922386.0334   21922391.9634
     -2762.1094      -2152.2934         29.5004         26.5004
  -4831006.66345  -3648174.54445  24198491.7444   24198506.9124
      2014.9844       1570.1184         10.0004          9.5004
 01  6 30  0 57 30.0020000  0  8G29G30G20G11G14G 1G25G22
  14987583.78846  11786560.06246  23578705.0574   23578711.6314
     -3391.5314      -2642.7524         13.0004         12.7504
    344269.09743                  25692627.4394
     -2788.2344                          6.0004
 -10018712.62747  -7519234.89746  22030318.8694   22030324.9514
       817.8444        637.2814         26.2504         23.2504
     77985.12047    193762.93546  22764469.4634   22764476.3814
     -3178.2504      -2476.5584         22.7504         18.2504
  21442551.97645  16859787.81445  24903752.8384   24903760.6004
     -3856.7194      -3005.2354          8.0004          7.5004
  -4886133.41946  -3720401.83046  23433075.8774   23433083.4754
       646.5944        503.8394         14.7504         13.5004
  -3121570.85748  -2302587.07347  21938189.0574   21938194.9394
     -2774.2974      -2161.7904         29.5004         26.5004
  -4891428.14745  -3695255.91645  24186993.2994   24187005.4324
      2013.0634       1568.6204          9.0004          9.2504
 01  6 30  0 58  0.0030000  0  8G29G30G20G11G14G 1G25G22
  15089377.83846  11865880.04146  23598076.1244   23598082.7104
     -3394.5164      -2645.0774         13.2504         12.5004
    428176.41745     61033.74255  25708595.8354   25708605.4954
     -2805.4064      -2186.0314          8.0004          8.0004
 -10043087.26347  -7538228.06646  22025680.4764   22025686.4994
       807.0474        628.8684         26.5004         23.2504
    173561.63247    268238.04846  22782656.9444   22782663.9794
     -3193.2974      -2488.2834         22.2504         18.0004
  21558275.63745  16949962.06045  24925773.4294   24925782.3864
     -3857.9374      -3006.1854          7.7504          8.0004
  -4905448.05546  -3735452.10346  23429400.0074   23429408.4134
       641.0004        499.4814         15.2504         14.0004
  -3038126.51548  -2237565.53047  21954067.9604   21954073.7614
     -2788.4694      -2172.8334         29.5004         26.0004
  -4951761.88245  -3742268.87845  24175512.9764   24175525.8124
      2009.0314       1565.4794          9.5004          8.5004
 01  6 30  0 58 30.0030000  0  8G29G30G20G11G14G 1G25G22
  15191236.40246  11945250.26146  23617459.2024   23617465.7764
     -3397.2974      -2647.2444         13.0004         12.0004
    512575.14544    126799.08945  25724655.6244   25724663.5974
     -2822.4064      -2199.2784          6.5004          7.0004
 -10067158.19347  -7556984.59746  22021099.9834   22021105.9724
       796.4064        620.5764         26.7504         23.5004
    269564.13647    343045.10546  22800925.6874   22800932.6164
     -3208.0944      -2499.8134         22.0004         18.0004
  21674010.81545  17040145.21845  24947797.6084   24947802.9874
     -3858.9534      -3006.9764          8.2504          7.5004
  -4924615.28146  -3750387.50446  23425752.4294   23425760.2024
       635.5784        495.2564         15.7504         14.5004
  -2954282.52248  -2172232.57247  21970022.9374   21970028.7724
     -2802.3594      -2183.6574         29.2504         26.2504
  -5011991.92545  -3789201.03545  24164050.8584   24164061.6324
      2005.0314       1562.3624          9.7504          9.0004
 01  6 30  0 59  0.0030000  0  8G29G30G20G11G14G 1G25G22
  15293174.21046  12024682.25946  23636857.5224   23636864.5694
     -3399.4694      -2648.9374         13.0004         12.5004
    597478.41544    192957.46345  25740812.3354   25740818.4524
     -2838.7344      -2212.0014          6.2504          6.0004
 -10090912.44047  -7575494.34446  22016579.6244   22016585.4724
       786.2814        612.6874         26.7504         23.5004
    366005.20847    418193.90146  22819277.9684   22819284.8514
     -3222.2194      -2510.8204         21.7504         17.5004
  21789772.51545  17130349.07245  24969827.3664   24969834.3904
     -3859.4064      -3007.3304          8.7504          7.7504
  -4943624.36346  -3765199.67646  23422135.3274   23422142.6674
       630.7664        491.5064         16.5004         15.0004
  -2870026.78848  -2106578.77847  21986056.4684   21986062.4444
     -2815.5944      -2193.9694         29.2504         26.2504
  -5072104.91445  -3836042.02245  24152611.6634   24152623.8194
      2001.5634       1559.6594         10.0004          9.0004
 01  6 30  0 59 30.0030000  0  8G29G30G20G11G14G 1G25G22
  15395188.81846  12104174.09746  23656270.3434   23656277.3314
     -3402.2504      -2651.1044         13.0004         12.2504
    682882.93943    259506.45645  25757063.9834   25757075.0504
     -2855.6564      -2225.1874          5.7504          4.5004
 -10114350.01947  -7593757.34146  22012119.5304   22012125.4954
       775.4694        604.2614         26.7504         23.7504
    462879.95947    493680.63246  22837712.3664   22837719.4484
     -3236.8444      -2522.2164         21.5004         17.5004
  21905558.39245  17220571.73545  24991860.3974   24991867.3974
     -3860.4224      -3008.1214          8.2504          7.7504
  -4962477.69646  -3779890.50146  23418547.5544   23418555.4094
       625.3754        487.3054         16.7504         15.2504
  -2785363.11648  -2040607.10947  22002167.2184   22002173.0544
     -2829.3754      -2204.7084         28.5004         25.7504
  -5132099.73145  -3882790.91945  24141194.7104   24141207.3704
      1997.3444       1556.3724          9.7504         10.0004
 01  6 30  1  0  0.0030000  0  8G29G30G20G11G14G 1G25G22
  15497301.21046  12183742.11845  23675701.6244   23675707.8004
     -3404.5164      -2652.8694         13.0004         11.7504
    768808.92742    326461.65945  25773415.1474   25773428.6284
     -2872.0004      -2237.9224          4.7504          5.0004
 -10137447.51348  -7611755.34446  22007724.4684   22007730.5504
       765.0784        596.1654         28.0004         24.0004
    560207.18547    569519.93546  22856233.3584   22856240.4294
     -3250.9064      -2533.1744         22.0004         17.5004
  22021389.39745  17310829.57545  25013902.5074   25013910.4684
     -3860.9224      -3008.5114          8.0004          8.0004
  -4981154.15746  -3794443.50646  23414993.4444   23415001.5344
       620.4534        483.4704         17.5004         15.7504
  -2700272.11248  -1974302.46047  22018359.6164   22018365.5344
     -2842.6094      -2215.0204         29.2504         26.0004
  -5191952.16945  -3929428.84845  24129804.4134   24129815.5154
      1993.5314       1553.4014          9.5004          9.0004
 01  6 30  1  0 30.0030000  0  8G29G30G20G11G14G 1G25G22
  15599479.45846  12263361.46445  23695145.2574   23695151.1874
     -3407.1414      -2654.9154         12.2504         11.5004
    855222.89343    393797.21745  25789859.3124   25789865.3944
     -2888.7344      -2250.9624          5.2504          5.0004
 -10160234.69947  -7629511.53546  22003387.8824   22003393.7884
       754.2664        587.7394         27.5004         24.0004
    657952.77347    645685.24046  22874833.8744   22874840.7574
     -3265.2504      -2544.3514         21.5004         17.2504
  22137233.43245  17401097.56745  25035946.2884   25035954.1904
     -3861.7814      -3009.1804          8.0004          7.5004
  -4999685.66746  -3808883.56046  23411466.5854   23411474.7334
       615.1884        479.3674         17.5004         15.5004
  -2614787.81548  -1907691.34447  22034626.9994   22034632.9764
     -2856.1254      -2225.5524         29.5004         26.0004
  -5251691.14445  -3975978.41845  24118436.6324   24118447.8864
      1989.2664       1550.0774         10.2504         10.2504
 01  6 30  1  1  0.0030000  0  8G29G30G20G11G14G 1G25G22
  15701718.54846  12343028.21045  23714600.9524   23714607.9054
     -3409.3914      -2656.6684         12.7504         11.7504
    942119.09543    461508.44645  25806394.2964   25806402.1514
     -2904.9374      -2263.5884          5.0004          6.0004
 -10182713.93247  -7647027.77446  21999110.0694   21999115.9644
       743.7504        579.5454         27.7504         24.5004
    756109.50047    722170.91546  22893512.2804   22893519.2804
     -3279.1094      -2555.1504         21.2504         17.2504
  22253085.69345  17491371.97445  25057992.3274   25057998.5034
     -3862.2814      -3009.5704          8.7504          7.7504
  -5018077.10246  -3823214.46546  23407967.1014   23407974.8624
       610.3284        475.5804         17.5004         15.7504
  -2528916.38748  -1840778.56747  22050967.5624   22050973.3514
     -2869.2034      -2235.7434         28.7504         25.7504
  -5311317.69545  -4022440.35445  24107089.1794   24107103.2804
      1985.2504       1546.9484         10.0004          9.7504
 01  6 30  1  1 30.0030000  0  8G29G30G20G11G14G 1G25G22
  15804035.10346  12422755.35945  23734071.0224   23734076.7534
     -3412.5164      -2659.1034         12.5004         11.7504
   1029512.61243    529607.38645  25823025.8584   25823033.5624
     -2922.0944      -2276.9564          6.0004          5.0004
 -10204866.36447  -7664289.34846  21994894.5544   21994900.6014
       732.2504        570.5844         26.7504         23.7504
    854691.56747    798988.01946  22912272.0304   22912278.9484
     -3293.8284      -2566.6194         21.0004         17.2504
  22368962.51845  17581665.54445  25080043.2334   25080051.6514
     -3863.6724      -3010.6534          8.0004          7.7504
  -5036311.97546  -3837423.39046  23404497.2414   23404505.2144
       604.5314        471.0634         17.0004         15.5004
  -2442643.67948  -1773553.09947  22067384.7724   22067390.6904
     -2883.1254      -2246.5914         28.7504         25.7504
  -5370811.35845  -4068798.76245  24095768.4834   24095781.3664
      1980.1884       1543.0034         10.5004          9.0004
 01  6 30  1  2  0.0030000  0  8G29G30G20G11G14G 1G25G22
  15906419.62446  12502535.43945  23753554.3584   23753560.4644
     -3413.7034      -2660.0284         12.5004         11.5004
   1117393.03243    598085.56045  25839748.5304   25839756.0814
     -2937.1874      -2288.7184          6.0004          5.7504
 -10226698.71047  -7681301.52146  21990739.8744   21990745.8744
       722.6564        563.1094         27.2504         24.0004
    953687.35047    876127.50146  22931111.0224   22931118.3394
     -3306.4694      -2576.4694         21.2504         17.0004
  22484854.58145  17671970.94945  25102097.3584   25102103.3124
     -3863.0624      -3010.1794          8.7504          8.0004
  -5054399.56746  -3851517.53746  23401055.1404   23401063.1714
       600.7344        468.1054         16.7504         15.5004
  -2355980.68648  -1706023.51847  22083876.2494   22083882.0734
     -2894.9844      -2255.8324         28.7504         25.7504
  -5430178.33045  -4115058.42145  24084470.7884   24084483.7654
      1977.0314       1540.5444          9.7504          9.2504
 01  6 30  1  2 30.0030000  0  7G29G20G11G14G 1G25G22
  16008881.16546  12582375.52045  23773052.5854   23773059.4684
     -3416.4224      -2662.1474         12.5004         11.0004
 -10248200.16847  -7698055.84746  21986648.1944   21986654.0074
       711.4224        554.3554         27.0004         24.2504
   1053103.31047    953594.39346  22950029.0544   22950035.8044
     -3320.5784      -2587.4634         21.5004         16.7504
  22600770.79145  17762295.17445  25124155.4524   25124162.8624
     -3864.0164      -3010.9214          9.0004          7.7504
  -5072331.03846  -3865490.03146  23397642.4834   23397649.8824
       595.3594        463.9164         16.0004         14.7504
  -2268920.16948  -1638184.17147  22100443.5224   22100449.4404
     -2908.3754      -2266.2664         29.0004         25.7504
  -5489406.75845  -4161210.20945  24073198.9914   24073210.5154
      1972.1884       1536.7694         10.0004         10.0004
 01  6 30  1  3  0.0030000  0  7G29G20G11G14G 1G25G22
  16111417.91246  12662274.24945  23792564.4684   23792571.4794
     -3419.3594      -2664.4364         12.2504         11.7504
 -10269369.80147  -7714551.61746  21982619.7334   21982625.5464
       699.8914        545.3694         27.2504         24.2504
   1152935.54547   1031385.66146  22969026.6404   22969033.7454
     -3334.8594      -2598.5924         21.5004         17.2504
  22716709.42545  17852636.86745  25146218.9294   25146225.2224
     -3865.1874      -3011.8344          9.0004          7.0004
  -5090107.89846  -3879342.04346  23394259.6944   23394267.5384
       589.7814        459.5704         15.2504         14.5004
  -2181465.35548  -1570037.57446  22117085.1634   22117091.0114
     -2921.9224      -2276.8224         28.5004         25.5004
  -5548494.74345  -4207252.52245  24061955.6634   24061968.3354
      1967.0164       1532.7394         10.7504          9.2504
 01  6 30  1  3 30.0030000  0  7G29G20G11G14G 1G25G22
  16214036.06346  12742236.37745  23812091.8274   23812098.7694
     -3421.2664      -2665.9214         12.2504         11.5004
 -10290199.16348  -7730782.24146  21978656.1714   21978662.1364
       689.3134        537.1274         28.0004         24.7504
   1253188.01747   1109504.37646  22988103.7104   22988110.8274
     -3348.0314      -2608.8564         20.5004         16.5004
  22832676.52945  17943000.71645  25168285.2724   25168292.3434
     -3865.3594      -3011.9684          7.5004          7.2504
  -5107723.81546  -3893068.64046  23390907.5384   23390915.3704
       585.2194        456.0154         14.7504         14.0004
  -2093611.88048  -1501580.33846  22133803.2414   22133809.1594
     -2934.3754      -2286.5264         28.5004         25.5004
  -5607431.98745  -4253177.38045  24050739.6014   24050751.6874
      1962.7194       1529.3914         10.5004         10.7504
 01  6 30  1  4  0.0030000  0  7G29G20G11G14G 1G25G22
  16316727.67946  12822255.74445  23831633.3664   23831639.3544
     -3424.6094      -2668.5274         12.0004         10.7504
 -10310693.99648  -7746752.19846  21974756.2654   21974762.2534
       677.2194        527.7034         28.2504         25.0004
   1353850.34847   1187942.46646  23007259.0224   23007266.1164
     -3362.5624      -2620.1794         20.5004         16.7504
  22948664.13344  18033380.59645  25190356.1794   25190365.0544
     -3866.9534      -3013.2104          7.2504          7.7504
  -5125187.14746  -3906676.34446  23387584.3194   23387592.4214
       579.2194        451.3394         14.0004         13.5004
  -2005369.56448  -1432820.10346  22150595.1164   22150601.0224
     -2948.2194      -2297.3134         28.2504         25.2504
  -5666222.96645  -4298988.30045  24039551.4214   24039562.9914
      1956.8754       1524.8384          9.7504          9.7504
 01  6 30  1  4 30.0030000  0  7G29G20G11G14G 1G25G22
  16419498.67245  12902336.99245  23851189.5154   23851196.0074
     -3426.8594      -2670.2804         11.2504         10.7504
 -10330845.95448  -7762454.98046  21970921.5384   21970927.5154
       666.1724        519.0954         28.2504         25.0004
   1454925.78347   1266702.44746  23026493.2494   23026500.5074
     -3375.8594      -2630.5404         20.5004         16.5004
  23064678.34445  18123781.16545  25212433.8514   25212443.8864
     -3867.3914      -3013.5514          7.7504          7.7504
  -5142491.88546  -3920160.47446  23384290.8824   23384298.8784
       574.3754        447.5654         14.0004         13.2504
  -1916734.19048  -1363753.59246  22167462.1554   22167468.0264
     -2960.8594      -2307.1634         28.7504         25.5004
  -5724858.77345  -4344678.24945  24028393.8974   24028404.9174
      1952.0944       1521.1124         10.5004          9.7504
 01  6 30  1  5  0.0030000  0  7G29G20G11G14G 1G25G22
  16522333.37246  12982467.84645  23870759.5544   23870766.2334
     -3429.0944      -2672.0214         12.5004         11.5004
 -10350668.18947  -7777900.83846  21967149.2104   21967155.1754
       655.0004        510.3904         27.7504         24.7504
   1556396.37747   1345770.36146  23045802.7264   23045810.2764
     -3389.1254      -2640.8774         20.5004         16.5004
  23180702.96445  18214189.82745  25234513.6554   25234521.6044
     -3867.8754      -3013.9294          8.7504          7.5004
  -5159653.67646  -3933533.21646  23381025.3194   23381033.1164
       569.4534        443.7304         13.5004         13.0004
  -1827723.31548  -1294394.48246  22184400.2574   22184406.1874
     -2973.4844      -2317.0014         28.5004         25.0004
  -5783351.88745  -4390257.04745  24017263.5934   24017274.7184
      1947.1254       1517.2404         11.5004         10.7504
 01  6 30  1  5 30.0030000  0  7G29G20G11G14G 1G25G22
  16625251.18045  13062663.47445  23890343.3974   23890350.4794
     -3431.8124      -2674.1404         11.5004         11.5004
 -10370139.02348  -7793072.87646  21963444.1164   21963450.1874
       643.3284        501.2954         28.0004         25.0004
   1658279.45247   1425159.67346  23065190.3274   23065197.7374
     -3402.7664      -2651.5064         20.2504         16.5004
  23296757.99345  18304622.19845  25256597.4994   25256606.1284
     -3868.8284      -3014.6714          7.5004          7.5004
  -5176652.86646  -3946779.25646  23377790.3354   23377798.4724
       564.1094        439.5664         14.2504         12.7504
  -1738319.34648  -1224729.06046  22201413.3974   22201419.2804
     -2986.4844      -2327.1314         28.5004         25.2504
  -5841678.84345  -4435706.39445  24006163.1324   24006174.8544
      1941.5944       1512.9304         10.7504         10.2504
 01  6 30  1  6  0.0030000  0  7G29G20G11G14G 1G25G22
  16728255.33246  13142926.36445  23909944.7414   23909951.1874
     -3434.4374      -2676.1854         12.0004         11.2504
 -10389253.06948  -7807966.90946  21959806.6874   21959812.7334
       631.6414        492.1884         28.0004         25.0004
   1760575.46847   1504870.75946  23084656.9684   23084664.2024
     -3416.2344      -2662.0014         20.2504         16.2504
  23412846.37345  18395080.60145  25278689.3514   25278694.6944
     -3869.6874      -3015.3414          8.7504          6.5004
  -5193486.48646  -3959896.27846  23374586.9994   23374593.7024
       558.8444        435.4634         15.7504         13.5004
  -1648520.92448  -1154756.27246  22218501.6944   22218507.6364
     -2999.3444      -2337.1514         28.7504         25.2504
  -5899832.83245  -4481020.93045  23995097.0154   23995107.6944
      1936.0164       1508.5844         11.2504         11.2504
 01  6 30  1  6 30.0030000  0  7G29G20G11G14G 1G25G22
  16831325.51545  13223240.72345  23929558.2964   23929565.2724
     -3437.3444      -2678.4504         11.5004         11.5004
 -10408028.10148  -7822596.77146  21956233.8904   21956239.8314
       619.5784        482.7884         28.0004         25.5004
   1863261.65347   1584885.86446  23104197.2804   23104204.6674
     -3429.9374      -2672.6794         20.0004         16.2504
  23528947.77645  18485549.05545  25300781.8514   25300788.4374
     -3870.8444      -3016.2424          7.7504          6.7504
  -5210174.75846  -3972900.04046  23371411.8904   23371419.3944
       553.2664        431.1164         16.7504         13.7504
  -1558350.10448  -1084493.30046  22235660.2724   22235666.2494
     -3012.4694      -2347.3784         28.2504         24.7504
  -5957830.69045  -4526213.82545  23984060.7104   23984071.1904
      1930.0164       1503.9084         11.5004         11.0004
 01  6 30  1  7  0.0030000  0  7G29G20G11G14G 1G25G22
  16934468.29045                  23949185.9524
     -3438.8594                         11.2504
 -10426455.27548  -7836955.57846  21952727.3744   21952733.2924
       608.8754        474.4484         28.0004         25.0004
   1966342.23947   1665208.30746  23123813.3354   23123820.5464
     -3442.1094      -2682.1634         20.0004         16.5004
  23645068.53544  18576032.65745  25322878.3664   25322886.7844
     -3870.5624      -3016.0234          7.2504          7.2504
  -5226710.99946  -3985785.35046  23368264.7334   23368271.8624
       549.1254        427.8904         17.5004         14.2504
  -1467802.20248  -1013936.50346  22252891.0224   22252896.9174
     -3024.0784      -2356.4254         28.0004         25.0004
  -6015662.82345  -4571277.58045  23973054.9214   23973065.4374
      1925.3914       1500.3044         11.5004         10.2504
 01  6 30  1  7 30.0030000  0  7G29G20G11G14G 1G25G22
  17037675.45246                  23968826.4294
     -3440.8594                         12.0004
 -10444540.57948  -7851047.99146  21949285.9134   21949291.8194
       597.5634        465.6334         28.2504         25.0004
   2069806.63447   1745829.81546  23143501.7804   23143508.8624
     -3454.7344      -2692.0014         20.0004         15.7504
  23761200.55445  18666525.02645  25344978.1944   25344986.6244
     -3870.7974      -3016.2054          8.2504          7.7504
  -5243103.67746  -3998558.77346  23365145.2884   23365152.4294
       544.4844        424.2744         17.7504         14.5004
  -1376887.36048   -943093.78546  22270191.3904   22270197.1794
     -3036.1414      -2365.8244         28.0004         24.5004
  -6073334.12445  -4616215.98845  23962079.8354   23962091.9214
      1920.1094       1496.1894         11.0004         10.5004
 01  6 30  1  8  0.0030000  0  7G29G20G11G14G 1G25G22
  17140946.86145     18775.86755  23988477.7964   23988484.1714
     -3443.2664      -2683.0644         11.2504         10.2504
 -10462281.77448  -7864872.28346  21945909.7414   21945915.6594
       585.7974        456.4654         28.2504         25.5004
   2173651.99946   1826748.16046  23163262.7264   23163270.2184
     -3467.6414      -2702.0584         19.7504         16.2504
  23877343.69145  18757025.99745  25367079.3664   25367086.9294
     -3871.4374      -3016.7054          7.5004          7.2504
  -5259352.75046  -4011220.30546  23362052.9054   23362060.4334
       539.4224        420.3294         18.5004         15.7504
  -1285607.58047   -871966.69746  22287561.6244   22287567.5424
     -3048.5474      -2375.4914         27.7504         25.0004
  -6130840.70345  -4661026.08245  23951136.7414   23951148.6284
      1914.2814       1491.6484         10.7504         10.2504
 01  6 30  1  8 30.0030000  0  7G29G20G11G14G 1G25G22
  17244270.20045     99287.50645  24008139.2414   24008146.9094
     -3445.1414      -2684.5254         11.0004         10.7504
 -10479688.95848  -7878436.29846  21942597.2104   21942603.1754
       574.4694        447.6384         28.0004         25.2504
   2277863.42246   1907951.76846  23183093.7184   23183101.7144
     -3479.9694      -2711.6644         19.2504         15.5004
  23993485.57245  18847526.07945  25389180.9294   25389188.2924
     -3871.5474      -3016.7904          7.7504          7.0004
  -5275470.56546  -4023779.55346  23358985.7494   23358993.1834
       534.8914        416.7984         18.7504         16.0004
  -1193976.86647   -800566.16046  22304998.4134   22305004.2964
     -3060.3444      -2384.6834         27.7504         24.5004
  -6188191.25245  -4705714.59845  23940223.2414   23940234.0264
      1908.8594       1487.4234         11.2504         10.2504
 01  6 30  1  9  0.0030000  0  7G29G20G11G14G 1G25G22
  17347696.79445    179879.57945  24027820.6404   24027827.8274
     -3449.4534      -2687.8864         11.0004         11.0004
 -10496708.72448  -7891698.43347  21939358.5304   21939364.5194
       560.6564        436.8754         28.5004         25.7504
   2382489.92246   1989478.79846  23203003.7494   23203011.6164
     -3494.6254      -2723.0844         19.2504         15.7504
  24109677.40445  18938065.05945  25411291.8744   25411299.1204
     -3874.0944      -3018.7744          8.2504          7.5004
  -5291405.91746  -4036196.61946  23355953.5224   23355961.2844
       527.9534        411.3924         19.5004         16.2504
  -1101946.15547   -728853.93446  22322511.1474   22322517.0194
     -3074.5314      -2395.7394         27.7504         24.5004
  -6245331.40945  -4750239.15745  23929349.7574   23929361.4794
      1900.9534       1481.2624         11.5004         11.0004
 01  6 30  1  9 30.0030000  0  7G29G20G11G14G 1G25G22
  17451261.57945    260579.30945  24047528.3824   24047535.4874
     -3451.8594      -2689.7614         10.7504         10.5004
 -10513303.47148  -7904629.38846  21936200.5854   21936206.5504
       548.6414        427.5124         28.2504         25.5004
   2487563.85746   2071354.47946  23222998.8044   23223006.1904
     -3507.2974      -2732.9594         19.2504         15.7504
  24225954.37445  19028670.32945  25433419.0544   25433426.1244
     -3874.7034      -3019.2494          7.7504          7.7504
  -5307123.96046  -4048444.35546  23352962.2334   23352969.5154
       522.9064        407.4594         18.7504         16.7504
  -1009482.15347   -656804.09346  22340106.4764   22340112.3944
     -3086.7344      -2405.2484         27.7504         24.0004
  -6302223.00045  -4794570.05345  23918523.4524   23918534.0624
      1894.8134       1476.4774         11.5004         10.7504
 01  6 30  1 10  0.0030000  0  7G29G20G11G14G 1G25G22
  17554857.91245    341303.65245  24067242.9604   24067251.0974
     -3454.2814      -2691.6484         11.5004         10.5004
 -10529577.49248  -7917310.42547  21933103.7414   21933109.7294
       536.5634        418.1014         28.5004         25.7504
   2592976.07346   2153493.74846  23243058.2184   23243065.5694
     -3519.8914      -2742.7724         19.2504         15.5004
  24342209.71344  19119258.80745  25455540.6474   25455549.7574
     -3875.3594      -3019.7614          6.7504          7.0004
  -5322731.16646  -4060605.72646  23349992.2024   23349999.6944
       517.8594        403.5274         18.5004         16.5004
   -916693.13847   -584500.98546  22357763.4994   22357769.3354
     -3098.8914      -2414.7204         27.0004         24.0004
  -6358968.94445  -4838787.45945  23907724.2494   23907735.3044
      1888.5314       1471.5834         10.7504         10.5004
 01  6 30  1 10 30.0030000  0  7G29G20G11G14G 1G25G22
  17658510.64245    422071.94245  24086966.3824   24086972.8274
     -3456.1414      -2693.0974         10.5004         10.5004
 -10545504.18748  -7929720.82647  21930072.9684   21930078.8744
       524.9384        409.0424         28.5004         26.0004
   2698748.70546   2235913.85346  23263185.9834   23263193.3354
     -3531.8594      -2752.0984         19.0004         15.7504
  24458468.05945  19209849.53245  25477665.2184   25477674.8084
     -3875.4534      -3019.8344          8.2504          7.2504
  -5338202.97346  -4072661.58646  23347047.8044   23347055.7654
       513.3444        400.0084         18.0004         16.5004
   -823556.65147   -511927.13346  22375487.2104   22375493.1514
     -3110.4534      -2423.7304         27.7504         24.2504
  -6415540.61545  -4882869.04445  23896959.3514   23896970.6164
      1882.6414       1466.9934         11.5004         11.2504
 01  6 30  1 11  0.0030000  0  7G29G20G11G14G 1G25G22
  17762240.00745    502899.96445  24106705.8044   24106712.6244
     -3458.7664      -2695.1424         10.5004         10.5004
 -10561060.77348  -7941842.81747  21927112.4524   21927118.4404
       512.5164        399.3634         28.5004         26.0004
   2804899.35046   2318628.53346  23283385.7724   23283392.4994
     -3544.4694      -2761.9244         18.7504         15.7504
  24574749.62944  19300458.44645  25499792.1554   25499804.0894
     -3876.2814      -3020.4794          7.2504          7.2504
  -5353519.16546  -4084596.19646  23344133.1874   23344141.0544
       508.1094        395.9294         17.7504         16.5004
   -730054.04547   -439067.98046  22393279.9764   22393285.8944
     -3122.6724      -2433.2514         27.2504         24.0004
  -6471914.46346  -4926796.48245  23886231.8824   23886242.4334
      1875.9534       1461.7824         12.0004         11.2504
 01  6 30  1 11 30.0030000  0  7G29G20G11G14G 1G25G22
  17866033.94745    583778.31245  24126457.0224   24126465.3124
     -3460.0164      -2696.1164         10.7504         11.0004
 -10576256.91548  -7953683.95347  21924221.1404   21924227.0934
       501.3754        390.6824         28.7504         26.0004
   2911413.63246   2401626.56246  23303655.1164   23303663.0654
     -3555.6414      -2770.6294         18.7504         15.5004
  24691042.63545  19391076.32345  25521922.6244   25521927.4874
     -3875.7504      -3020.0654          8.7504          6.7504
  -5368691.80646                  23341246.0154
       504.2194                         17.5004
   -636199.24347   -365934.39446  22411139.7804   22411145.8974
     -3133.4844      -2441.6764         27.0004         24.0004
  -6528099.23546  -4970576.59045  23875540.6244   23875550.8824
      1870.5004       1457.5324         12.5004         11.2504
 01  6 30  1 12  0.0030000  0  7G29G20G11G14G 1G25G22
  17969905.47145    664717.08245  24146223.7804   24146230.8154
     -3463.7344      -2699.0144         11.2504         10.2504
 -10591077.62448  -7965232.54147  21921400.6084   21921406.6204
       487.6884        380.0164         28.5004         26.2504
   3018301.67146   2484915.82046  23323995.0224   23324002.7144
     -3569.1874      -2781.1854         18.2504         15.2504
  24807359.68044  19481712.90645  25544056.3194   25544062.2144
     -3877.6874      -3021.5754          7.2504          7.2504
  -5383708.03446                  23338388.1944
       497.8754                         16.7504
   -541981.79547   -292518.22746  22429068.9214   22429074.8514
     -3146.6724      -2451.9524         27.2504         24.0004
  -6584078.97445  -5014196.97245  23864887.2494   23864897.0154
      1862.4844       1451.2874         11.5004         11.2504
 01  6 30  1 12 30.0030000  0  7G29G20G11G14G 1G25G22
  18073841.52145    745706.12445  24166002.4684   24166007.8584
     -3466.2344      -2700.9624         11.2504         10.2504
 -10605533.32348  -7976496.70247  21918649.8584   21918655.6594
       475.1414        370.2394         28.5004         26.2504
   3125548.15446   2568484.38646  23344403.7884   23344411.4914
     -3581.4374      -2790.7314         18.2504         15.5004
  24923687.94445  19572358.20345  25566193.7724   25566201.5934
     -3878.4064      -3022.1354          8.0004          7.5004
  -5398580.61046     -6163.70256  23335558.3354   23335565.9564
       492.7504        383.9614         16.5004         15.5004
   -447416.13647   -218830.71846  22447064.2724   22447070.2844
     -3158.5784      -2461.2304         26.7504         23.7504
  -6639862.51945  -5057664.44545  23854271.6084   23854282.5694
      1855.5314       1445.8694         11.2504         11.7504
 01  6 30  1 13  0.0030000  0  7G29G20G11G14G 1G25G22
  18177863.91645    826762.47545  24185797.2184   24185804.1474
     -3469.3754      -2703.4094         10.7504         10.5004
 -10619600.12548  -7987457.83347  21915972.8974   21915978.8044
       461.8594        359.8904         28.7504         26.5004
   3233171.85046   2652346.88746  23364883.1794   23364890.3434
     -3594.2504      -2800.7144         18.2504         15.5004
  25040048.91545  19663028.94645  25588335.4834   25588344.3124
     -3879.7814      -3023.2064          7.7504          7.2504
  -5413288.05546    -17623.95746  23332759.2494   23332766.2264
       486.9694        379.4564         17.0004         15.5004
   -352482.78947   -144856.70846  22465129.5384   22465135.5034
     -3171.0944      -2470.9824         27.0004         23.7504
  -6695424.58545  -5100959.35945  23843698.1554   23843709.0114
      1847.8134       1439.8544         11.7504         11.7504
 01  6 30  1 13 30.0030000  0  7G29G20G11G14G 1G25G22
  18281969.62545    907883.76045  24205608.0774   24205615.1474
     -3471.0314      -2704.7004         11.0004         10.5004
 -10633279.00148  -7998116.67647  21913369.8434   21913375.9254
       450.0164        350.6624         28.2504         26.2504
   3341167.16246   2736498.96446  23385434.6714   23385441.4094
     -3605.4694      -2809.4564         18.2504         15.2504
  25156439.59245  19753722.86745  25610483.9764   25610491.7614
     -3879.6254      -3023.0844          7.7504          7.0004
  -5427833.50646    -28957.98546  23329991.1474   23329998.3354
       482.7034        376.1324         17.0004         15.7504
   -257186.95547    -70600.23446  22483263.6474   22483269.4834
     -3182.0004      -2479.4814         26.7504         23.5004
  -6750764.96745  -5144081.54245  23833167.1084   23833176.9684
      1841.5314       1434.9594         11.7504         11.7504
 01  6 30  1 14  0.0030000  0  7G29G20G11G14G 1G25G22
  18386146.32745    989060.34945  24225431.4214   24225438.9134
     -3474.1564      -2707.1354         10.7504         10.5004
 -10646579.92948  -8008481.01647  21910838.8584   21910844.7884
       436.6254        340.2274         28.7504         26.5004
   3449519.04346   2820928.88146  23406053.2574   23406060.9014
     -3618.0624      -2819.2694         18.0004         15.0004
  25272847.85745  19844430.51645  25632636.3824   25632640.5544
     -3880.9844      -3024.1444          7.7504          7.2504
  -5442229.16546    -40175.28946  23327251.7494   23327258.8784
       476.9384        371.6404         18.0004         16.0004
   -161542.27547      3928.06546  22501464.3434   22501470.3314
     -3194.3754      -2489.1234         27.2504         23.7504
  -6805892.97946  -5187038.19645  23822676.4444   23822686.7264
      1833.5944       1428.7744         12.0004         11.5004
 01  6 30  1 14 30.0030000  0  7G29G20G11G14G 1G25G22
  18490405.58345   1070301.25045  24245271.6794   24245279.7694
     -3475.7034      -2708.3404         10.7504         10.2504
 -10659489.27348  -8018540.23147  21908382.3824   21908388.3354
       424.7504        330.9744         28.7504         26.7504
   3558236.53846   2905643.69146  23426741.4914   23426748.8194
     -3628.9694      -2827.7684         18.0004         15.0004
  25389285.23044  19935160.83145  25654793.4134   25654801.8544
     -3880.7034      -3023.9254          6.7504          6.7504
  -5456463.56946    -51266.95246  23324543.2264   23324550.2494
       472.8134        368.4254         18.7504         16.0004
    -65539.29547     78735.56146  22519732.9374   22519738.8664
     -3205.0474      -2497.4394         27.0004         23.5004
  -6860793.32645  -5229817.49145  23812229.1014   23812239.8274
      1827.1724       1423.7704         11.7504         11.0004
 01  6 30  1 15  0.0030000  0  7G29G20G11G14G 1G25G22
  18594715.13545   1151581.33945  24265121.8664   24265129.4994
     -3478.0004      -2710.1304         11.0004         10.5004
 -10672036.99348  -8028317.66047  21905994.4134   21906000.3784
       412.0474        321.0754         28.2504         26.5004
   3667284.65746   2990616.12946  23447493.0934   23447500.8784
     -3640.5784      -2836.8144         17.7504         14.7504
  25505719.22545  20025888.55445  25676950.1944   25676957.6514
     -3881.2504      -3024.3514          7.7504          7.7504
  -5470569.03646    -62258.13346  23321858.9764   23321866.2224
       467.8594        364.5664         19.2504         15.7504
     30787.78147    153795.60546  22538063.3354   22538069.3354
     -3216.4374      -2506.3154         26.2504         23.5004
  -6915494.54846  -5272441.60945  23801819.6944   23801830.1514
      1819.8594       1418.0724         12.0004         11.2504
 01  6 30  1 15 30.0030000  0  7G29G20G11G14G 1G25G22
  18699125.46645   1232939.96845  24284990.3434   24284997.7414
     -3481.8914      -2713.1624         11.0004         10.0004
 -10684170.40648  -8037772.24647  21903685.5934   21903691.3944
       397.6564        309.8624         28.5004         26.5004
   3776711.18646   3075883.43346  23468316.0694   23468323.8664
     -3653.6874      -2847.0294         17.5004         14.7504
  25622200.35045  20116652.97445  25699115.7964   25699124.9644
     -3883.3444      -3025.9824          7.5004          6.5004
  -5484495.02947    -73109.48246  23319208.7964   23319215.7374
       461.3594        359.5014         20.0004         16.2504
    127487.17147    229145.75546  22556464.4374   22556470.3314
     -3229.3594      -2516.3844         26.2504         23.5004
  -6969942.58446  -5314868.46045  23791458.4834   23791468.4604
      1810.8284       1411.0354         12.2504         11.5004
 01  6 30  1 16  0.0030000  0  7G29G20G11G14G 1G25G22
  18803606.14745   1314353.43245  24304871.1084   24304877.2024
     -3483.1724      -2714.1604         10.0004         10.0004
 -10695917.57248  -8046925.87147  21901449.9444   21901455.8154
       385.7974        300.6214         28.5004         26.7504
   3886482.97746   3161419.76546  23489205.2024   23489212.9874
     -3664.0784      -2855.1264         17.5004         14.5004
  25738698.22645  20207430.41945  25721284.7264   25721293.7414
     -3882.8444      -3025.5934          7.5004          7.2504
  -5498271.96747    -83844.68646  23316586.9294   23316593.8124
       457.4384        356.4454         20.0004         16.2504
    224526.54547    304760.83046  22574930.7414   22574936.6594
     -3239.6094      -2524.3714         26.5004         23.2504
  -7024164.81645  -5357119.35046  23781139.8824   23781149.6364
      1804.3134       1405.9584         11.7504         12.0004
 01  6 30  1 16 30.0030000  0  7G29G20G11G14G 1G25G22
  18908142.84845   1395810.50545  24324765.0154   24324771.0264
     -3485.1254      -2715.6824         10.2504          9.7504
 -10707290.79148  -8055788.11247  21899285.7334   21899291.6514
       373.2034        290.8084         28.2504         26.7504
   3996582.91846   3247211.79046  23510157.0074   23510164.6634
     -3675.0944      -2863.7094         17.2504         14.5004
  25855198.60545  20298209.82345  25743454.5774   25743464.6714
     -3883.0474      -3025.7514          7.5004          7.5004
  -5511914.49846    -94475.15746  23313990.6714   23313997.7294
       452.8594        352.8774         19.5004         16.5004
    321889.54447    380628.07746  22593458.4524   22593464.4174
     -3250.4534      -2532.8214         26.5004         23.0004
  -7078172.50146  -5399203.05745  23770862.7964   23770872.9374
      1796.9844       1400.2484         12.2504         11.7504
 01  6 30  1 17  0.0030000  0  7G29G20G11G14G 1G25G22
  19012746.07845   1477319.41645  24344670.3744   24344676.6324
     -3488.2974      -2718.1534         10.5004          9.7504
 -10718277.55648  -8064349.21047  21897195.1474   21897200.9374
       359.3444        280.0084         28.5004         26.7504
   4107018.78146   3333265.59546  23531172.3194   23531180.1514
     -3687.1724      -2873.1214         17.5004         14.2504
  25971711.73044  20388999.19445  25765627.0934   25765636.2844
     -3884.4064      -3026.8104          7.2504          7.2504
  -5525412.21746   -104992.78346  23311422.3434   23311429.0934
       447.0784        348.3734         19.7504         16.2504
    419584.70847    456754.16546  22612049.3044   22612055.2454
     -3262.4374      -2542.1594         26.2504         23.0004
  -7131951.26946  -5441108.39046  23760628.8744   23760637.9014
      1788.3444       1393.5154         12.5004         12.2504
 01  6 30  1 17 30.0030000  0  7G29G20G11G14G 1G25G22
  19117401.03345   1558868.64945  24364585.9054   24364592.1984
     -3489.5314      -2719.1154         10.7504          9.7504
 -10728890.16948  -8072618.76347  21895175.5304   21895181.4484
       347.3284        270.6454         28.2504         26.7504
   4217772.99346   3419567.45146  23552248.2104   23552255.8434
     -3697.2504      -2880.9744         17.2504         14.5004
  26088222.77044  20479786.83845  25787798.4444   25787805.8784
     -3883.8284      -3026.3604          7.2504          7.0004
  -5538779.80946   -115409.02646  23308878.4764   23308885.3194
       443.2504        345.3904         19.2504         16.7504
    517595.37347    533126.09546  22630699.9834   22630705.9484
     -3272.4224      -2549.9394         26.2504         23.0004
  -7185512.17246  -5482843.94645  23750436.2574   23750446.5624
      1781.5314       1388.2064         12.2504         11.7504
 01  6 30  1 18  0.0030000  0  7G29G20G11G14G 1G25G22
  19222126.64845   1640472.96545  24384513.0934   24384518.6834
     -3492.1094      -2721.1244          9.7504         10.0004
 -10739107.81448  -8080580.54747  21893231.1794   21893237.1674
       333.9064        260.1874         28.2504         26.7504
   4328861.76146   3506130.01146  23573387.4374   23573395.3974
     -3708.5784      -2889.8014         17.0004         14.2504
  26204750.38445  20570587.41745  25809972.8044   25809980.8234
     -3884.6094      -3026.9684          7.7504          7.0004
  -5551998.54446   -125709.26346  23306362.8514   23306370.4134
       438.0634        341.3474         18.7504         16.7504
    615937.88247    609756.59546  22649413.8664   22649419.8194
     -3283.6724      -2558.7054         26.2504         23.0004
  -7238833.08746  -5524392.52546  23740289.3354   23740299.0194
      1773.2504       1381.7534         12.7504         12.2504
 01  6 30  1 18 30.0040000  0  7G29G20G11G14G 1G25G22
  19326922.67645   1722132.11145  24404456.0824   24404463.8674
     -3494.4534      -2722.9504         10.0004         10.0004
 -10748932.59348  -8088236.20847  21891361.6054   21891367.6294
       320.6414        249.8504         28.5004         27.0004
   4440282.00946   3592950.84746  23594590.2544   23594598.3324
     -3719.5784      -2898.3734         17.0004         14.2504
  26321294.69844  20661401.01945  25832148.8324   25832156.8284
     -3885.1414      -3027.3824          6.5004          6.2504
  -5565072.76846   -135896.89746  23303875.1054   23303882.1874
       433.1254        337.5004         18.0004         16.5004
    714610.06947    686643.98946  22668190.6214   22668196.5274
     -3294.6414      -2567.2524         26.0004         23.0004
  -7291916.75046  -5565756.22446  23730187.9414   23730198.7384
      1765.1254       1375.4224         12.7504         12.0004
 01  6 30  1 19  0.0040000  0  7G29G20G11G14G 1G25G22
  19431791.91045   1803848.32545  24424411.3554   24424418.2384
     -3496.7814      -2724.7654          9.7504          9.5004
 -10758351.41048  -8095575.53347  21889568.8794   21889574.8794
       307.3284        239.4764         28.0004         27.0004
   4552033.68946   3680029.96246  23615855.6054   23615863.7304
     -3730.4694      -2906.8594         16.5004         14.5004
  26437858.20544  20752229.54545  25854331.6684   25854337.2814
     -3885.6874      -3027.8084          7.2504          5.5004
  -5577991.59246   -145963.44346  23301416.3944   23301423.4414
       428.1884        333.6534         18.0004         16.5004
    813613.57847    763789.56246  22687030.3944   22687036.3484
     -3305.5314      -2575.7394         26.0004         22.7504
  -7344745.99846  -5606921.66146  23720134.9184   23720144.7774
      1756.8754       1368.9944         12.7504         12.0004
 01  6 30  1 19 30.0040000  0  7G29G20G11G14G 1G25G22
  19536736.94845   1885623.58645  24444382.2304   24444390.6374
     -3499.5474      -2726.9204          9.5004          9.5004
 -10767363.50048  -8102597.93047  21887854.1374   21887859.9734
       293.4844        228.6894         28.0004         27.0004
   4664116.87146   3767367.38446  23637184.5124   23637192.9414
     -3741.7194      -2915.6254         16.2504         14.0004
  26554443.60445  20843075.20145  25876516.8874   25876525.3754
     -3886.6564      -3028.5634          7.5004          6.7504
  -5590756.59946   -155910.13446  23298987.0514   23298994.5084
       422.8284        329.4764         17.5004         16.7504
    912948.39947    841193.29246  22705932.8404   22705938.6764
     -3316.7504      -2584.4814         25.5004         22.5004
  -7397319.81446  -5647888.08046  23710129.4964   23710139.1914
      1748.0634       1362.1274         12.2504         12.0004
 01  6 30  1 20  0.0040000  0  7G29G20G11G14G 1G25G22
  19641761.11945   1967460.51145  24464367.9734   24464374.7694
     -3501.8754      -2728.7344          9.7504          9.7504
 -10775963.55748  -8109299.26247  21886217.6444   21886223.6094
       280.0474        218.2184         28.2504         27.0004
   4776531.67346   3854963.21446  23658576.3404   23658585.2974
     -3752.3914      -2923.9414         16.5004         13.5004
  26671054.20144  20933940.37645  25898707.6214   25898715.7694
     -3887.1564      -3028.9534          7.2504          7.0004
  -5603364.57346   -165734.46046  23296588.0664   23296595.3834
       417.9224        325.6534         18.0004         17.0004
   1012615.39647    918855.86546  22724899.0434   22724905.1844
     -3327.4844      -2592.8454         25.7504         22.7504
  -7449631.38746  -5688650.13646  23700175.3944   23700185.1254
      1739.5784       1355.5154         13.0004         12.7504
 01  6 30  1 20 30.0040000  0  7G29G20G11G14G 1G25G22
  19746849.09445   2049347.15645  24484364.6604   24484372.4104
     -3503.7194      -2730.1704          9.5004          9.7504
 -10784164.84848  -8115689.85947  21884656.9804   21884662.8404
       266.9694        208.0284         28.2504         27.2504
   4889260.14646   3942803.45746  23680028.3634   23680036.4654
     -3762.5474      -2931.8554         16.7504         13.7504
  26787674.58244  21024813.21645  25920898.8014   25920906.2584
     -3887.2194      -3029.0024          6.7504          7.0004
  -5615830.77746   -175448.30946  23294215.6684   23294223.0314
       413.4534        322.1714         18.2504         17.0004
   1112597.55947    996764.01946  22743925.0514   22743931.1214
     -3337.7034      -2600.8084         25.5004         22.5004
  -7501692.93246  -5729217.37446  23690268.7464   23690278.0554
      1731.4534       1349.1844         13.7504         12.2504
 01  6 30  1 21  0.0040000  0  7G29G20G11G14G 1G25G22
  19851989.53045   2131274.67445  24504373.8404   24504382.3754
     -3506.8284      -2732.5934         10.0004          9.7504
 -10791976.58248  -8121776.91747  21883170.3794   21883176.2624
       252.5784        196.8144         28.5004         27.5004
   5002288.18846   4030877.14046  23701536.7934   23701544.6724
     -3773.8754      -2940.6824         16.7504         13.7504
  26904293.38445  21115684.82445  25943092.0514   25943101.2894
     -3888.5624      -3030.0494          7.5004          6.7504
  -5628166.88446   -185060.80446  23291867.9574   23291875.0984
       407.7344        317.7154         18.5004         17.0004
   1212881.15547   1074907.04946  22763008.4024   22763014.2854
     -3349.0944      -2609.6834         25.2504         22.2504
  -7553512.86146  -5769596.36546  23680406.8094   23680416.0824
      1721.9534       1341.7824         13.0004         12.5004
 01  6 30  1 21 30.0040000  0  7G29G20G11G14G 1G25G22
  19957220.83245   2213272.99145  24524397.4964   24524405.0474
     -3508.4694      -2733.8724          9.0004          9.7504
 -10799358.13648  -8127528.75447  21881766.0274   21881772.0274
       239.6094        186.7094         28.5004         27.5004
   5115651.35246   4119211.95246  23723109.2304   23723117.2274
     -3783.5784      -2948.2434         16.2504         13.5004
  27020948.88945  21206584.97845  25965291.3324   25965298.5904
     -3888.3594      -3029.8904          7.5004          6.7504
  -5640334.45446   -194541.95446  23289552.9184   23289559.8014
       403.5314        314.4404         19.2504         17.2504
   1313502.90147   1153313.57746  22782156.2854   22782162.2854
     -3358.9224      -2617.3424         25.2504         22.0004
  -7605049.04846  -5809754.23446  23670599.7304   23670609.3444
      1713.8444       1335.4634         13.2504         13.0004
 01  6 30  1 22  0.0040000  0  7G29G20G11G14G 1G25G22
  20062504.74945   2295312.32245  24544433.1444   24544441.0354
     -3510.9374      -2735.7954          9.7504          9.7504
 -10806345.75548  -8132973.63547  21880436.1764   21880442.2234
       225.7344        175.8974         28.2504         27.7504
   5229308.27146   4207775.66346  23744737.5744   23744746.4494
     -3794.0314      -2956.3884         16.0004         13.2504
  27137602.61945  21297483.81645  25987488.9104   25987499.6134
     -3889.0314      -3030.4144          7.7504          7.5004
  -5652372.03446   -203921.82846  23287262.1684   23287269.0864
       398.4844        310.5074         19.5004         17.2504
   1414422.32047   1231952.05246  22801360.7304   22801366.7774
     -3369.5164      -2625.5974         25.5004         22.0004
  -7656336.03546  -5849717.93746  23660839.8324   23660848.5554
      1704.7664       1328.3894         13.0004         12.5004
 01  6 30  1 22 30.0040000  0  7G29G20G11G14G 1G25G22
  20167871.34845   2377416.10545  24564483.5354   24564490.7464
     -3513.8444      -2738.0604          9.2504          9.0004
 -10812907.42148  -8138086.59547  21879187.5904   21879193.6484
       211.3444        164.6834         28.5004         27.7504
   5343286.38346   4296589.63346  23766427.1444   23766436.1024
     -3804.8284      -2964.8014         16.0004         13.5004
  27254284.97344  21388404.93345  26009692.7544   26009703.1644
     -3890.1254      -3031.2664          6.7504          6.2504
  -5664249.20447   -213176.71046  23285002.1844   23285009.5124
       393.0004        306.2344         20.0004         17.5004
   1515667.54947   1310844.40546  22820627.0124   22820632.8944
     -3380.4844      -2634.1444         25.2504         22.2504
  -7707340.23346  -5889461.27146  23651134.0984   23651143.6054
      1695.1724       1320.9134         13.2504         12.7504
 01  6 30  1 23  0.0040000  0  7G29G20G11G14G 1G25G22
  20273305.56845   2459572.54245  24584547.0124   24584555.0904
     -3516.2344      -2739.9234          9.0004          9.7504
 -10819056.08848  -8142877.73747  21878017.4104   21878023.4574
       197.4224        153.8354         28.0004         27.7504
   5457567.70246   4385639.89146  23788173.6604   23788181.8444
     -3815.0474      -2972.7644         15.7504         13.0004
  27370980.66744  21479336.33245  26031900.0194   26031911.2034
     -3890.7194      -3031.7294          6.5004          7.2504
  -5675981.31547   -222318.56346  23282769.2694   23282776.2584
       388.0314        302.3624         20.2504         17.5004
   1617221.19747   1389977.08546  22839951.9494   22839957.7504
     -3390.8594      -2642.2284         25.0004         22.0004
  -7758074.09946  -5928993.96046  23641479.4654   23641488.3284
      1685.9534       1313.7304         13.5004         12.5004
 01  6 30  1 23 30.0040000  0  7G29G20G11G14G 1G25G22
  20378811.33845   2541784.75245  24604624.0354   24604630.9414
     -3518.1254      -2741.3964          9.2504          9.2504
 -10824785.63248  -8147342.28947  21876927.0824   21876932.9884
       183.8914        143.2914         28.2504         27.5004
   5572153.52546   4474927.43146  23809978.7384   23809986.9924
     -3824.6564      -2980.2524         15.7504         13.7504
  27487693.83243  21570281.38245  26054108.5824   26054115.0164
     -3890.7974      -3031.7904          5.5004          5.7504
  -5687564.48147   -231344.35046  23280564.8714   23280572.0124
       383.5474        298.8684         20.0004         17.5004
   1719085.14047   1469351.55546  22859336.0744   22859342.0164
     -3400.7034      -2649.8994         25.0004         22.0004
  -7808530.17846  -5968310.20846  23631877.7694   23631887.2194
      1677.1094       1306.8384         13.2504         12.7504
 01  6 30  1 24  0.0040000  0  7G29G20G11G14G 1G25G22
  20484395.59945   2624058.08345  24624716.1294   24624722.4804
     -3521.0624      -2743.6854          9.2504          9.5004
 -10830087.02248  -8151473.21947  21875918.3634   21875924.3054
       169.2974        131.9204         28.0004         27.7504
   5687047.65846   4564455.20346  23831842.8874   23831851.5514
     -3835.1874      -2988.4584         15.7504         13.2504
  27604431.29744  21661245.39345  26076323.7624   26076333.5624
     -3891.9224      -3032.6664          6.7504          6.5004
  -5698991.86647   -240248.76046  23278390.4264   23278397.0004
       378.0474        294.5824         20.0004         17.5004
   1821264.43447   1548971.74646  22878780.3014   22878786.1024
     -3411.4694      -2658.2874         25.2504         21.7504
  -7858697.64846  -6007401.57246  23622331.5514   23622340.8594
      1667.1414       1299.0714         13.5004         13.2504
 01  6 30  1 24 30.0040000  0  7G29G20G11G14G 1G25G22
  20590048.50645   2706384.95645  24644821.9264   24644828.6994
     -3522.9694      -2745.1704          9.2504          9.7504
 -10834968.24648  -8155276.74247  21874989.2934   21874995.3404
       155.6414        121.2784         28.2504         28.0004
   5802237.22846   4654213.17146  23853762.4964   23853770.8444
     -3844.5944      -2995.7874         15.7504         12.7504
  27721183.14245  21752220.62045  26098542.5824   26098551.7734
     -3892.0164      -3032.7394          8.0004          6.5004
  -5710273.47646   -249039.56446  23276243.6134   23276250.9414
       373.5784        291.1004         19.5004         17.2504
   1923747.02247   1628828.27746  22898281.9024   22898287.5274
     -3421.1564      -2665.8364         25.0004         21.7504
  -7908583.04346  -6046273.11546  23612838.4884   23612847.3284
      1658.0634       1291.9974         13.7504         13.0004
 01  6 30  1 25  0.0040000  0  7G29G20G11G14G 1G25G22
  20695763.34945   2788760.05745  24664938.3714   24664945.8984
     -3524.8594      -2746.6444          9.2504          9.7504
 -10839433.96448  -8158756.48947  21874139.3794   21874145.3204
       141.8914        110.5644         28.0004         27.7504
   5917712.76746   4744194.00146  23875737.1684   23875744.8714
     -3853.9374      -3003.0684         15.7504         12.5004
  27837942.48445  21843201.70545  26120761.1844   26120768.1134
     -3892.1094      -3032.8124          7.5004          5.5004
  -5721416.17046   -257722.12346  23274123.1844   23274130.2544
       369.0944        287.6064         19.2504         17.2504
   2026524.09047   1708914.27646  22917839.7234   22917845.6764
     -3430.7974      -2673.3484         24.7504         21.5004
  -7958190.01946  -6084927.73346  23603398.6134   23603408.3914
      1648.8914       1284.8504         14.2504         13.2504
 01  6 30  1 25 30.0040000  0  7G29G20G11G14G 1G25G22
  20801531.54045   2871176.75145  24685065.6444   24685072.3124
     -3527.1564      -2748.4334          9.2504          8.7504
 -10843490.56948  -8161917.45447  21873367.5904   21873373.6134
       127.7344         99.5334         28.0004         28.2504
   6033462.81746   4834388.69546  23897763.5664   23897772.0664
     -3863.5314      -3010.5444         15.0004         13.0004
  27954700.85544  21934182.06945  26142978.4654   26142986.2274
     -3892.5944      -3033.1904          6.5004          5.2504
  -5732428.48246   -266303.08346  23272027.4344   23272033.9614
       364.2504        283.8314         19.0004         17.2504
   2129585.17947   1789221.58246  22937451.7304   22937457.7664
     -3440.7344      -2681.0924         24.7504         21.2504
  -8007524.07146  -6123369.68546  23594010.4884   23594019.8094
      1639.2194       1277.3134         13.7504         13.2504
 01  6 30  1 26  0.0040000  0  7G29G20G11G14G 1G25G22
  20907375.95645   2953652.85145  24705207.0514   24705214.5664
     -3529.5314      -2750.2844          8.7504          9.2504
 -10847113.44048  -8164740.43947  21872678.3484   21872684.2544
       113.3754         88.3444         28.0004         27.7504
   6149507.13146   4924812.70946  23919846.3404   23919854.9224
     -3873.1564      -3018.0444         15.2504         12.7504
  28071481.00644  22025179.38945  26165202.3484   26165210.8014
     -3893.1564      -3033.6284          7.0004          5.5004
  -5743287.79946   -274764.82446  23269961.1604   23269967.7694
       359.2974        279.9724         19.2504         17.2504
   2232950.85947   1869766.24146  22957121.2464   22957127.2234
     -3450.6874      -2688.8474         24.5004         21.5004
  -8056558.83446  -6161578.42146  23584679.4574   23584687.7464
      1629.3284       1269.6064         14.2504         13.0004
 01  6 30  1 26 30.0040000  0  7G29G20G11G14G 1G25G22
  21013289.71645   3036182.95945  24725361.2074   24725370.7274
     -3532.3594      -2752.4884          8.2504          9.0004
 -10850307.21148  -8167229.06447  21872070.3944   21872076.3014
        98.5164         76.7654         28.0004         27.7504
   6265835.95846   5015458.41346  23941983.2694   23941991.3834
     -3883.1094      -3025.8004         15.5004         12.7504
  28188275.94144  22116188.15545  26187426.7854   26187433.4534
     -3894.1874      -3034.4324          6.5004          6.7504
  -5754000.92546   -283112.65446  23267922.3554   23267929.3914
       353.8914        275.7594         19.5004         17.7504
   2336611.90547   1950541.05346  22976847.5664   22976853.6134
     -3461.0314      -2696.9074         24.5004         21.5004
  -8105297.27446  -6199556.26146  23575404.2934   23575414.0474
      1618.8594       1261.4494         14.0004         13.2504
 01  6 30  1 27  0.0040000  0  7G29G20G11G14G 1G25G22
  21119280.06345   3118772.77745  24745531.0904   24745538.4414
     -3534.2504      -2753.9614          9.0004          9.2504
 -10853062.92148  -8169376.34847  21871546.0594   21871551.9884
        84.5784         65.9054         28.2504         28.2504
   6382453.46746   5106329.04346  23964174.7304   23964183.0194
     -3891.9844      -3032.7154         15.0004         12.5004
  28305092.66444  22207213.96245  26209657.4104   26209665.2074
     -3894.2194      -3034.4564          6.2504          7.5004
  -5764560.77546   -291341.04946  23265912.4024   23265919.4144
       349.4844        272.3254         19.5004         18.2504
   2440573.45547   2031550.03046  22996630.9264   22996636.9024
     -3470.3284      -2704.1524         24.5004         21.2504
  -8153729.17446  -6237295.24646  23566188.4964   23566197.1954
      1609.2814       1253.9854         14.5004         13.5004
 01  6 30  1 27 30.0040000  0  7G29G20G11G14G 1G25G22
  21225332.99145   3201411.33345  24765712.6374   24765720.7034
     -3536.4694      -2755.6904          9.0004          9.0004
 -10855392.39848  -8171191.49247  21871102.6914   21871108.6214
        70.1884         54.6924         28.0004         28.2504
   6499343.04046   5197411.72046  23986417.7854   23986425.1374
     -3901.1564      -3039.8624         14.7504         12.2504
     42831.55954                  26231888.6444
     -3894.6254                          6.7504
  -5774981.16847   -299460.76146  23263929.7544   23263936.8944
       344.7034        268.6004         20.2504         18.7504
   2544819.75747   2112780.88646  23016468.3634   23016474.2814
     -3479.9224      -2711.6274         24.7504         21.2504
  -8201865.37346  -6274803.82346  23557027.5904   23557036.7114
      1599.2344       1246.1574         14.0004         13.5004
 01  6 30  1 28  0.0040000  0  7G29G20G11G14G 1G25G22
  21331443.77145   3284094.98345  24785904.2464   24785910.8444
     -3537.8284      -2756.7494          9.0004          8.7504
 -10857298.62947  -8172676.84347  21870740.0044   21870745.9694
        56.6254         44.1234         27.7504         28.2504
   6616496.70946   5288700.14546  24008711.4494   24008719.9264
     -3909.3284      -3046.2304         14.7504         12.5004
    159659.75344                  26254120.2154
     -3894.1724                          6.2504
  -5785267.15747   -307475.76146  23261972.3794   23261979.0474
       340.7814        265.5444         20.7504         19.0004
   2649343.90947   2194228.24846  23036358.5984   23036364.6334
     -3488.5784      -2718.3734         24.0004         21.2504
  -8249707.56746  -6312083.28646  23547923.7074   23547932.5234
      1589.9534       1238.9254         14.2504         13.5004
 01  6 30  1 28 30.0040000  0  7G29G20G11G14G 1G25G22
  21437621.75745   3366831.00245  24806110.7464   24806118.2734
     -3540.9694      -2759.1964          9.5004          9.0004
 -10858770.18948  -8173823.49847  21870459.8324   21870465.8324
        41.1884         32.0944         28.2504         28.5004
   6733921.01246   5380199.45846  24031057.0044   24031066.4884
     -3919.2194      -3053.9374         14.7504         12.7504
    276500.50144                  26276353.8634
     -3895.5004                          6.2504
  -5795409.50647   -315378.82546  23260042.5984   23260049.3714
       335.0944        261.1124         21.7504         19.0004
   2754152.95847   2275897.60846  23056303.0904   23056309.0664
     -3498.9534      -2726.4574         24.5004         21.0004
  -8297242.58646  -6349123.40746  23538877.9184   23538885.2114
      1578.7504       1230.1954         14.2504         13.5004
 01  6 30  1 29  0.0040000  0  7G29G20G11G14G 1G25G22
  21543874.25245   3449625.06445  24826329.1524   24826337.0084
     -3543.0784      -2760.8404          8.2504          8.2504
 -10859797.77948  -8174624.19147  21870264.2694   21870270.1994
        26.7344         20.8324         28.0004         28.2504
   6851620.27246   5471913.02046  24053454.1914   24053463.4304
     -3927.9534      -3060.7434         14.7504         12.2504
    393361.16544     75879.42255  26298592.2624   26298600.5864
     -3895.7814      -3035.6744          6.5004          6.7504
  -5805401.00047   -323164.34446  23258140.9964   23258148.0084
       330.4534        257.4964         21.5004         19.5004
   2859252.12947   2357793.04746  23076302.7544   23076308.7544
     -3508.2194      -2733.6774         24.2504         21.0004
  -8344459.60246  -6385915.72946  23529892.5044   23529901.1214
      1568.4694       1222.1834         14.0004         13.7504
 01  6 30  1 29 30.0040000  0  7G29G20G11G14G 1G25G22
  21650200.66845   3532476.76945  24846561.6684   24846569.1374
     -3545.0624      -2762.3864          7.7504          8.7504
 -10860380.09247  -8175077.91747  21870153.4494   21870159.3204
        12.3284          9.6064         27.5004         28.2504
   6969591.03046   5563838.14146  24075903.9024   24075912.8124
     -3936.4844      -3067.3904         14.7504         12.2504
    510241.18444    166954.65045  26320833.2464   26320845.3324
     -3895.9534      -3035.8084          6.5004          6.7504
  -5815242.22647   -330832.77046  23256268.1914   23256274.5664
       325.9064        253.9534         21.5004         19.5004
   2964638.63147   2439912.36246  23096357.5984   23096363.6444
     -3517.2974      -2740.7514         24.2504         21.0004
  -8391356.17846  -6422458.36446  23520968.5744   23520977.6844
      1558.2194       1214.1964         14.7504         14.0004
 01  6 30  1 30  0.0040000  0  7G29G20G11G14G 1G25G22
  21756602.83145   3615387.43245  24866810.1134   24866818.4734
     -3548.2504      -2764.8704          8.7504          9.2504
 -10860513.63747  -8175181.96247  21870127.9884   21870133.7774
        -3.3284         -2.5934         27.7504         28.2504
   7087831.94946   5655973.76146  24098404.4024   24098413.6994
     -3946.0944      -3074.8784         14.5004         12.5004
    627142.10144    258046.05645  26343079.0434   26343085.1254
     -3897.3124      -3036.8674          6.2504          6.2504
  -5824931.59647   -338382.86546  23254424.6524   23254431.6644
       320.1884        249.4974         21.7504         19.5004
   3070312.29647   2522255.45146  23116466.2464   23116472.0944
     -3527.4844      -2748.6894         24.0004         20.7504
  -8437927.78846  -6458747.78746  23512106.8014   23512115.0784
      1546.6724       1205.1994         15.0004         14.2504
 01  6 30  1 30 30.0040000  0  7G29G20G11G14G 1G25G22
  21863077.43245   3698354.55745  24887071.3324   24887079.8324
     -3549.6414      -2765.9544          8.2504          9.0004
 -10860199.33347  -8174937.02447  21870187.8874   21870193.7814
       -17.2344        -13.4294         27.5004         28.5004
   7206336.99246   5748315.19046  24120955.1054   24120963.9344
     -3953.8124      -3080.8934         14.2504         12.2504
    744060.58744    349151.28245  26365328.7694   26365340.9024
     -3896.8444      -3036.5024          6.5004          5.7504
  -5834472.30847   -345817.12446  23252608.8714   23252615.6804
       316.2664        246.4414         21.5004         19.2504
   3176267.80047   2604818.15746  23136628.8014   23136634.7304
     -3535.7974      -2755.1664         23.7504         20.7504
  -8484173.94646  -6494783.59446  23503305.7544   23503314.3714
      1536.7974       1197.5044         14.7504         14.0004
 01  6 30  1 31  0.0040000  0  7G29G20G11G14G 1G25G22
  21969610.02645   3781366.88445  24907344.7304   24907353.1724
     -3552.0004      -2767.7924          9.2504          8.7504
 -10859450.12047  -8174353.20747  21870330.2464   21870336.1994
       -32.1874        -25.0814         27.5004         28.5004
   7325088.35146   5840848.57846  24143552.9804   24143562.4654
     -3962.4064      -3087.5894         14.5004         12.0004
    860982.09144    440258.81045  26387577.4264   26387589.7934
     -3897.3914      -3036.9284          6.2504          5.2504
  -5843879.06547   -353147.01546  23250818.6054   23250825.0514
       311.3754        242.6304         21.2504         19.0004
   3282488.19447   2687587.26246  23156842.1444   23156848.0394
     -3545.0314      -2762.3624         23.7504         21.0004
  -8530105.58646  -6530574.33046  23494564.8324   23494573.3794
      1525.8284       1188.9574         15.0004         14.2504
 01  6 30  1 31 30.0040000  0  7G29G20G11G14G 1G25G22
  22076191.61345   3864417.23045  24927626.2464   24927637.5824
     -3553.3914      -2768.8764          8.7504         11.0004
 -10858273.01247  -8173435.95347  21870554.1684   21870560.0394
       -46.2504        -36.0394         27.2504         28.5004
   7444074.22646   5933564.68445  24166195.1994   24166204.2274
     -3969.9224      -3093.4464         14.2504         11.7504
    977897.84044    531361.85045  26409825.9414   26409834.8984
     -3896.9374      -3036.5754          6.2504          4.7504
  -5853160.80347   -360379.47746  23249052.3874   23249058.8324
       307.4534        239.5744         21.0004         18.2504
   3388962.62147   2770554.30746  23177103.4184   23177109.4414
     -3553.2194      -2768.7424         23.2504         20.5004
  -8575728.37246  -6566124.40346  23485882.9884   23485890.9844
      1515.7344       1181.0924         14.5004         14.0004
 01  6 30  1 32  0.0040000  0  7G29G20G11G14G 1G25G22
  22182845.56845                  24947921.5744
     -3557.0624                          8.2504
 -10856642.85147  -8172165.68447  21870864.5274   21870870.3754
       -62.6254        -48.7994         27.7504         28.7504
   7563314.91046   6026479.34845  24188885.7774   24188894.7584
     -3979.6094      -3100.9944         14.2504         11.7504
   1094830.75044    622478.22445  26432078.1684   26432085.1444
     -3898.7664      -3037.9994          6.5004          4.7504
  -5862294.35747   -367496.48246  23247314.3714   23247320.6994
       301.2664        234.7524         21.0004         18.2504
   3495712.08747   2853735.66546  23197417.5434   23197423.5194
     -3563.5784      -2776.8144         23.7504         20.2504
  -8621016.28246  -6601413.54946  23477265.1294   23477273.1024
      1503.2814       1171.3884         14.7504         14.0004
 01  6 30  1 32 30.0040000  0  7G29G20G11G14G 1G25G22
  22289587.58345                  24968234.3404
     -3559.4694                          8.0004
 -10854541.92047  -8170528.57847  21871264.3014   21871270.1254
       -77.8124        -60.6334         27.7504         29.0004
   7682823.27546   6119602.58745  24211627.8324   24211636.8594
     -3987.9534      -3107.4964         14.5004         11.7504
   1211796.92044    713620.51645  26454336.5044   26454344.8284
     -3899.3444      -3038.4504          6.2504          5.2504
  -5871264.04447   -374485.79646  23245607.2304   23245614.1844
       296.3444        230.9174         20.5004         18.2504
   3602750.08447   2937141.85246  23217785.8714   23217791.7194
     -3572.6254      -2783.8644         23.2504         20.0004
  -8665950.45246  -6636427.02846  23468714.4734   23468722.3404
      1491.9534       1162.5614         15.2504         14.0004
 01  6 30  1 33  0.0040000  0  7G29G20G11G14G 1G25G22
  22396399.61845     66586.90855  24988560.7464   24988567.6874
     -3561.1094      -2774.8904          8.5004          8.2504
 -10851986.55547  -8168537.36847  21871750.4654   21871756.4774
       -92.3124        -71.9324         27.7504         29.0004
   7802578.13846   6212917.91245  24234416.9574   24234425.0474
     -3995.4224      -3113.3164         14.2504         11.7504
   1328778.18344    804774.52045  26476596.5904   26476604.9374
     -3899.1564      -3038.3044          6.5004          4.5004
  -5880088.04947   -381361.60146  23243927.8714   23243934.4804
       292.1724        227.6664         21.0004         18.5004
   3710056.75547   3020757.38946  23238205.8794   23238211.6804
     -3580.8594      -2790.2804         23.5004         20.2504
  -8710545.10346  -6671175.96946  23460228.0904   23460236.4734
      1481.2664       1154.2334         15.5004         14.0004
 01  6 30  1 33 30.0040000  0  7G29G20G11G14G 1G25G22
  22503277.70745    149868.42745  25008898.9104   25008906.2504
     -3563.3594      -2776.6444          9.2504          8.7504
 -10848978.63847  -8166193.52247  21872322.9804   21872329.0274
      -107.4844        -83.7544         27.5004         28.7504
   7922572.44346   6306419.79146  24257250.9494   24257260.5044
     -4003.4374      -3119.5624         13.7504         12.0004
   1445770.19844    895937.10845  26498859.2544   26498869.7114
     -3899.5784      -3038.6324          6.2504          6.2504
  -5888770.39247   -388127.00746  23242275.9804   23242282.6724
       287.3914        223.9414         21.2504         19.0004
   3817625.66647   3104577.27446  23258675.8714   23258681.6484
     -3589.6414      -2797.1234         23.5004         20.0004
  -8754800.93246  -6705660.89646  23451805.8874   23451814.5274
      1469.8284       1145.3214         14.7504         14.5004
 01  6 30  1 34  0.0040000  0  7G29G20G11G14G 1G25G22
  22610217.62745    233198.20645  25029248.4024   25029258.5554
     -3565.4224      -2778.2514          8.2504          9.0004
 -10845520.96047  -8163499.20647  21872980.7934   21872986.7584
      -122.5314        -95.4794         27.5004         28.7504
   8042799.02146   6400102.64945  24280129.7234   24280139.3014
     -4011.1414      -3125.5644         13.5004         11.7504
   1562768.88544    987104.69345  26521123.6844   26521134.7734
     -3899.8284      -3038.8274          6.5004          5.5004
  -5897315.31447   -394785.34046  23240649.8944   23240656.5514
       282.7974        220.3614         21.7504         19.0004
   3925450.86547   3188596.85646  23279194.1214   23279200.1094
     -3598.1724      -2803.7704         23.2504         20.0004
  -8798718.96546  -6739882.58846  23443449.0514   23443456.8944
      1458.5314       1136.5184         15.5004         14.7504
 01  6 30  1 34 30.0040000  0  7G29G20G11G14G 1G25G22
  22717232.28145    316586.15345  25049612.7154   25049620.1724
     -3568.4534      -2780.6134          8.0004          8.0004
 -10841598.47847  -8160442.71047  21873727.1294   21873732.9884
      -138.5784       -107.9834         27.0004         28.7504
   8163267.63946   6493974.12745  24303054.4494   24303063.5944
     -4019.6724      -3132.2124         13.5004         11.2504
   1679787.26044   1078287.70545  26543391.4184   26543401.7814
     -3901.0004      -3039.7404          6.5004          5.2504
  -5905709.93547   -401326.54346  23239052.2074   23239058.8524
       277.2664        216.0514         21.7504         19.5004
   4033543.20947   3272824.61746  23299763.2234   23299769.0824
     -3607.5624      -2811.0884         22.7504         20.0004
  -8842283.52046  -6773828.86446  23435158.7694   23435166.9304
      1446.1564       1126.8754         15.5004         14.7504
 01  6 30  1 35  0.0040000  0  7G29G20G11G14G 1G25G22
  22824316.91845    400028.66345  25069989.6764   25069997.5904
     -3570.0474      -2781.8554          8.0004          8.2504
 -10837214.45247  -8157026.57147  21874561.3554   21874567.2504
      -153.2344       -119.4034         27.0004         28.5004
   8283970.52246   6588028.14345  24326023.2934   24326031.9804
     -4026.6874      -3137.6794         13.7504         11.5004
   1796820.06344   1169481.92545  26565663.8244   26565672.4304
     -3900.7344      -3039.5334          6.5004          5.2504
  -5913959.29747   -407754.57446  23237482.6764   23237489.5594
       273.1564        212.8494         22.2504         19.7504
   4141895.21047   3357254.68946  23320382.0434   23320388.0784
     -3615.4534      -2817.2364         22.7504         19.5004
  -8885496.32346  -6807501.02846  23426935.6684   23426943.4414
      1435.1094       1118.2674         15.7504         14.7504
 01  6 30  1 35 30.0040000  0  6G29G20G11G 1G25G22
  22931444.89645    483504.96245  25090375.7934   25090384.0594
     -3572.3914      -2783.6814          7.5004          8.0004
 -10832393.57047  -8153270.03247  21875478.8164   21875484.7584
      -168.7504       -131.4944         27.0004         28.7504
   8404877.91846   6682241.51745  24349031.1914   24349040.2194
     -4034.3754      -3143.6694         13.5004         11.5004
  -5922089.75747   -414089.94246  23235935.4184   23235942.0984
       268.2814        209.0504         22.5004         20.0004
   4250478.65847   3441865.11346  23341044.8244   23341050.6844
     -3624.0314      -2823.9204         22.7504         19.7504
  -8928380.01046  -6840916.76746  23418775.0664   23418782.9574
      1423.1884       1108.9774         16.0004         15.0004
 01  6 30  1 36  0.0040000  0  6G29G20G11G 1G25G22
  23038649.49845    567040.92645  25110776.3874   25110782.0594
     -3574.0474      -2784.9724          7.7504          7.5004
 -10827100.77447  -8149145.75547  21876486.0514   21876491.8754
      -183.5944       -143.0604         27.2504         29.0004
   8526020.19246   6776637.91045  24372084.3244   24372094.0784
     -4041.2504      -3149.0264         13.7504         11.5004
  -5930068.40747   -420307.01546  23234417.1604   23234423.6524
       264.1414        205.8244         22.7504         20.0004
   4359324.28847   3526679.85146  23361757.5514   23361763.5394
     -3631.7974      -2829.9724         23.0004         19.7504
  -8970898.20446  -6874047.68546  23410683.8164   23410692.2584
      1411.8594       1100.1504         16.0004         15.0004
 01  6 30  1 36 30.0040000  0  6G29G20G11G 1G25G22
  23145921.66945    650629.56045  25131189.4104   25131198.4494
     -3577.2344      -2787.4554          8.0004          8.5004
 -10821343.39247  -8144659.47447  21877581.6844   21877587.5664
      -200.0624       -155.8934         27.2504         29.0004
   8647385.13346   6871207.81745  24395178.8794   24395188.4804
     -4049.5624      -3155.5034         13.5004         11.2504
  -5937904.37047   -426412.89646  23232925.8404   23232932.5194
       258.4384        201.3804         22.0004         20.0004
   4468420.65247   3611689.95546  23382517.5824   23382523.5824
     -3641.0944      -2837.2164         21.7504         19.5004
  -9013057.20046  -6906898.72146  23402661.1764   23402669.4884
      1398.9064       1090.0574         16.0004         15.0004
 01  6 30  1 37  0.0040000  0  6G29G20G11G 1G25G22
  23253283.85945    734288.32645  25151619.9414   25151627.4344
     -3579.5784      -2789.2824          8.2504          8.0004
 -10815097.24347  -8139792.33447  21878770.1684   21878776.2274
      -215.7034       -168.0804         27.2504         29.2504
   8768992.30846   6965966.44945  24418320.1214   24418330.0744
     -4056.9224      -3161.2384         13.2504         11.2504
  -5945574.99347   -432389.95046  23231466.1444   23231473.0514
       253.5944        197.6064         21.7504         19.7504
   4577788.66347   3696911.72946  23403329.7854   23403335.8914
     -3649.4374      -2843.7184         22.0004         19.2504
  -9054831.58546  -6939450.06946  23394711.5664   23394719.6094
      1386.6884       1080.5364         16.2504         15.2504
 01  6 30  1 37 30.0040000  0  6G29G20G11G 1G25G22
  23360711.90845    817998.40345  25172063.1764   25172069.7274
     -3582.0164      -2791.1814          8.7504          8.5004
 -10808384.76147  -8134561.81947  21880047.7154   21880053.5514
      -231.5164       -180.4024         27.2504         29.2504
   8890814.41246   7060892.59145  24441502.5984   24441512.4104
     -4064.2664      -3166.9604         13.0004         11.5004
  -5953104.67347   -438257.16146  23230033.1844   23230039.7934
       248.6724        193.7704         21.5004         19.5004
   4687401.69547   3782324.43546  23424188.7774   23424194.7194
     -3657.8124      -2850.2444         22.0004         19.2504
  -9096241.85146  -6971717.67146  23386831.8554   23386840.0514
      1374.2664       1070.8564         16.5004         15.2504
 01  6 30  1 38  0.0040000  0  6G29G20G11G 1G25G22
  23468200.58445    901755.74245  25192518.1604   25192524.5704
     -3584.8124      -2793.3604          8.5004          8.5004
 -10801209.47947  -8128970.68147  21881412.8404   21881418.8754
      -247.7664       -193.0644         27.2504         29.2504
   9012843.11746   7155979.68245  24464724.3014   24464733.8094
     -4071.8914      -3172.9024         13.0004         10.7504
  -5960498.77947   -444018.73246  23228626.0594   23228632.8204
       243.3594        189.6314         21.2504         19.2504
   4797252.52447   3867922.44246  23445092.5044   23445098.7734
     -3666.4844      -2857.0014         21.7504         19.2504
  -9137289.97446  -7003703.10746  23379020.2074   23379027.7584
      1361.3444       1060.7874         16.7504         15.5004
 01  6 30  1 38 30.0050000  0  6G29G20G11G 1G25G22
  23575782.55045    985585.76545  25212990.3604   25212997.6884
     -3587.4534      -2795.4184          8.2504          9.0004
 -10793540.12047  -8122994.55247  21882872.3294   21882878.2944
      -263.9224       -205.6534         27.0004         29.2504
   9135108.52846   7251251.25645  24487990.5324   24488000.5914
     -4079.2504      -3178.6364         13.0004         10.7504
  -5967728.48247   -449652.20646  23227249.9784   23227256.5404
       238.2034        185.6134         21.0004         19.2504
   4907371.82147   3953729.65046  23466047.8064   23466053.7354
     -3674.9374      -2863.5884         22.0004         19.0004
  -9177945.00446  -7035382.22746  23371283.6964   23371291.3884
      1348.4694       1050.7554         16.7504         15.7504
 01  6 30  1 39  0.0050000  0  6G29G20G11G 1G25G22
  23683429.01345   1069466.03445  25233474.5244   25233483.7394
     -3589.7814      -2797.2324          8.2504          8.5004
 -10785397.45247  -8116649.60647  21884421.7744   21884427.6344
      -279.7664       -217.9994         27.2504         29.2504
   9257577.86246   7346681.68445  24511295.4384   24511304.4544
     -4086.1874      -3184.0424         12.7504         10.5004
  -5974814.94947   -455174.06646  23225901.7124   23225908.1694
       233.4064        181.8754         21.5004         19.2504
   5017728.36447   4039721.72746  23487047.6104   23487053.6814
     -3682.9694      -2869.8464         21.7504         19.2504
  -9218223.26746  -7066767.76246  23363618.7514   23363626.8994
      1335.8914       1040.9544         16.5004         16.0004
 01  6 30  1 39 30.0050000  0  6G29G20G11G 1G25G22
  23791158.66645   1153411.09045  25253973.3684   25253982.3374
     -3592.4374      -2799.3024          7.5004          8.2504
 -10776764.33247  -8109922.49947  21886064.7124   21886070.5834
      -296.0314       -230.6744         27.0004         29.0004
   9380266.99446   7442283.39045  24534642.5874   24534651.9784
     -4093.3284      -3189.6064         12.7504         10.7504
  -5981743.37047   -460572.77146  23224582.9624   23224589.6184
       228.2504        177.8574         22.0004         19.5004
   5128338.37447   4125911.30346  23508096.2824   23508102.0714
     -3691.2664      -2876.3114         22.0004         18.7504
  -9258107.87246  -7097846.55546  23356029.1424   23356036.9854
      1322.8134       1030.7634         16.7504         16.0004
 01  6 30  1 40  0.0050000  0  6G29G20G11G 1G25G22
  23898963.89345   1237415.09145  25274489.5014   25274497.6144
     -3594.7344      -2801.0924          7.5004          8.5004
 -10767646.88947  -8102817.99947  21887799.7744   21887805.7044
      -311.9534       -243.0804         27.0004         29.5004
   9503165.13246   7538047.99645  24558029.6654   24558039.2084
     -4100.0164      -3194.8174         12.7504         10.2504
  -5988521.57747   -465854.43046  23223293.2354   23223299.7514
       223.4844        174.1444         22.7504         19.7504
   5239192.37047   4212291.01146  23529191.1344   23529197.0754
     -3699.1414      -2882.4474         22.0004         18.7504
  -9297602.99346  -7128621.85746  23348513.2744   23348521.0714
      1310.0164       1020.7914         17.0004         16.0004
 01  6 30  1 40 30.0050000  0  7G29G13G20G11G 1G25G22
  24006862.44245   1321491.77645  25295021.4544   25295027.6064
     -3597.6094      -2803.3324          7.7504          8.2504
     -6300.08951                  26154306.7124
      1260.3134                          2.5004
 -10758025.54047  -8095320.84747  21889630.4934   21889636.4704
      -328.5784       -256.0354         27.0004         29.5004
   9626287.09146   7633986.97445  24581458.8844   24581469.2594
     -4107.2034      -3200.4184         12.5004         10.7504
  -5995131.74147   -471005.14846  23222035.2984   23222042.1064
       218.1094        169.9554         22.7504         19.7504
   5350306.23947   4298873.20446  23550335.4544   23550341.2314
     -3707.5314      -2888.9854         21.7504         19.0004
  -9336687.48746  -7159077.19746  23341075.3844   23341083.4034
      1296.5004       1010.2604         16.7504         16.2504
 01  6 30  1 41  0.0050000  0  6G29G20G11G 1G25G22
  24114816.50445   1405611.70045  25315564.7124   25315574.7824
     -3599.7034      -2804.9634          8.0004          8.0004
 -10747936.27147  -8087459.07647  21891550.5794   21891556.4854
      -344.4374       -268.3934         27.2504         29.5004
   9749592.26946   7730068.70945  24604923.5324   24604933.8844
     -4113.5004      -3205.3254         12.2504         10.7504
  -6001611.60947   -476054.33746  23220802.2904   23220808.8064
       213.5164        166.3764         23.0004         20.0004
   5461639.80647   4385626.60246  23571521.6574   23571527.6224
     -3715.0624      -2894.8544         21.5004         18.2504
  -9375396.36246  -7189239.83146  23333709.1184   23333717.0794
      1283.6884       1000.2764         17.0004         15.7504
 01  6 30  1 41 30.0050000  0  7G29G13G20G11G 1G25G22
  24222841.97445   1489787.28745  25336121.9934   25336129.2514
     -3601.9694      -2806.7294          8.5004          8.5004
     -6289.60451                  26139929.5954
      1257.9534                          2.5004
 -10737361.90047  -8079219.31047  21893562.8064   21893568.7824
      -360.5314       -280.9334         27.0004         29.5004
   9873093.29945   7826303.07645  24628424.9464   24628435.8254
     -4119.8754      -3210.2924         11.7504         10.2504
  -6007945.55347   -480989.81546  23219596.8294   23219603.2394
       208.7664        162.6754         23.0004         20.2504
   5573206.82547   4472561.90446  23592752.3064   23592758.2944
     -3722.7034      -2900.8084         21.5004         18.7504
  -9413711.21046  -7219095.45446  23326418.7434   23326426.6694
      1270.6094        990.0854         17.5004         16.0004
 01  6 30  1 42  0.0050000  0  6G29G20G11G 1G25G22
  24330938.44345   1574018.20345  25356691.4234   25356701.2594
     -3604.5944      -2808.7744          7.7504          8.7504
 -10726300.96247  -8070600.39847  21895667.6264   21895673.6734
      -377.0314       -293.7914         27.0004         29.5004
   9996786.78445   7922687.38645  24651963.1424   24651972.9424
     -4126.4844      -3215.4424         11.7504         10.7504
  -6014133.88247   -485811.82946  23218419.2204   23218425.5014
       203.6564        158.6934         22.7504         20.0004
   5685004.76547   4559677.13646  23614026.4074   23614032.1144
     -3730.6094      -2906.9684         21.2504         18.7504
  -9451628.73746  -7248641.46746  23319202.7594   23319210.5324
      1257.0634        979.5294         17.2504         16.2504
 01  6 30  1 42 30.0050000  0  6G29G20G11G 1G25G22
  24439100.12745   1658299.88345  25377273.2904   25377280.7944
     -3606.4064      -2810.1874          7.5004          8.5004
 -10714757.91147  -8061605.81047  21897864.1104   21897869.9814
      -392.7664       -306.0514         26.7504         29.7504
  10120663.55445   8019214.52845  24675536.5094   24675544.9384
     -4132.1724      -3219.8744         11.7504         10.0004
  -6020182.62347   -490525.07146  23217268.0014   23217274.4704
       199.3594        155.3454         22.0004         20.2504
   5797025.57347   4646966.04746  23635342.7354   23635348.7824
     -3737.6564      -2912.4594         20.5004         18.2504
  -9489151.43846  -7277879.83246  23312062.5404   23312070.5604
      1244.2194        969.5214         17.2504         16.5004
 01  6 30  1 43  0.0050000  0  7G29G13G20G11G 1G25G22
  24547319.74945   1742626.78545  25397867.5244   25397874.9934
     -3607.8124      -2811.2824          7.7504          8.0004
     -6274.86651                  26118411.9624
      1255.3914                          2.7504
 -10702738.32447  -8052239.90147  21900151.3534   21900157.2704
      -408.1254       -318.0194         26.7504         29.5004
  10244713.29946   8115876.44845  24699142.7904   24699152.4854
     -4137.3444      -3223.9044         12.2504         10.2504
  -6026098.94247   -495135.13346  23216141.7744   23216148.1264
       195.5004        152.3384         22.0004         20.2504
   5909260.14947   4734421.52046  23656700.9544   23656707.0244
     -3744.1874      -2917.5494         21.0004         18.0004
  -9526283.62746  -7306813.89546  23304996.4624   23305004.1424
      1231.6884        959.7564         18.0004         16.2504
 01  6 30  1 43 30.0050000  0  7G29G13G20G11G 1G25G22
  24655587.90145   1826991.45245  25418470.5014   25418476.6424
     -3610.4534      -2813.3404          8.0004          8.2504
    -13794.07451                  26111248.8844
      1253.7664                          3.0004
 -10690250.18047  -8042508.88647  21902527.6814   21902533.7284
      -424.7974       -331.0114         26.7504         29.7504
  10368923.63945   8212663.49345  24722779.0874   24722789.0994
     -4143.7034      -3228.8604         11.7504         10.5004
  -6031892.22547   -499649.32546  23215039.7284   23215046.0324
       190.3594        148.3324         22.0004         20.2504
   6021696.80847   4822034.45046  23678097.2044   23678103.2164
     -3751.9374      -2923.5884         21.2504         18.0004
  -9563032.18646  -7335449.03046  23298003.2204   23298010.8644
      1217.8284        948.9574         17.7504         16.5004
 01  6 30  1 44  0.0050000  0  6G29G20G11G 1G25G22
  24763942.33545   1911423.34945  25439089.9704   25439098.1654
     -3613.0944      -2815.3984          8.2504          8.2504
 -10677254.14947  -8032382.11347  21905000.8064   21905006.7124
      -441.5164       -344.0384         26.7504         29.7504
  10493329.15345   8309602.63045  24746453.0954   24746463.7394
     -4149.9064      -3233.6934         11.5004         10.2504
  -6037524.75547   -504038.25646  23213967.7984   23213974.3024
       185.2344        144.3384         22.2504         20.5004
   6134371.41147   4909832.79346  23699538.3684   23699544.4274
     -3759.5944      -2929.5544         21.2504         18.2504
  -9599356.35946  -7363753.46646  23291090.8064   23291098.1814
      1203.8594        938.0724         18.0004         16.5004
 01  6 30  1 44 30.0050000  0  7G29G13G20G11G 1G25G22
  24872365.79445   1995909.09545  25459721.9234   25459730.8804
     -3615.9534      -2817.6264          7.7504          8.2504
    -28784.81551                  26096951.1814
      1250.3594                          3.2504
 -10663765.88847  -8021871.78347  21907567.4934   21907573.3884
      -458.5004       -357.2734         26.7504         29.7504
  10617909.60945   8406678.10145  24770159.2204   24770169.5834
     -4156.2344      -3238.6244         11.0004         10.0004
  -6043013.77247   -508315.35646  23212923.6344   23212930.2554
       179.8914        140.1754         22.7504         20.5004
   6247264.27947   4997801.20946  23721020.8994   23721026.8534
     -3767.3754      -2935.6174         20.5004         18.2504
  -9635269.84946  -7391737.90346  23284256.8844   23284264.0484
      1189.5634        926.9324         18.2504         16.5004
 01  6 30  1 45  0.0050000  0  6G29G20G11G 1G25G22
  24980878.89845   2080464.62645  25480371.5014   25480381.2674
     -3618.2194      -2819.3914          7.5004          8.2504
 -10649763.14747  -8010960.55647  21910232.2824   21910238.2004
      -474.9694       -370.1064         27.0004         30.0004
  10742682.48045   8503903.47145  24793903.7044   24793914.3844
     -4161.9064      -3243.0444         11.2504         10.0004
  -6048338.62947   -512464.54746  23211910.2044   23211916.6144
       175.1414        136.4734         23.0004         20.5004
   6360393.76647   5085953.99946  23742548.4384   23742554.5324
     -3774.5314      -2941.1934         20.0004         17.5004
  -9670748.81046  -7419383.73046  23277505.2594   23277512.7164
      1175.7344        916.1574         18.5004         17.0004
 01  6 30  1 45 30.0050000  0  7G29G13G20G11G 1G25G22
  25089445.09245   2165061.60145  25501031.2744   25501040.3254
     -3620.6414      -2821.2784          8.0004          8.5004
    -36222.08542                  26082684.7204
      1247.8594                          3.7504
 -10635281.17047  -7999675.89747  21912988.0324   21912994.0564
      -491.6094       -383.0724         26.7504         30.0004
  10867608.00845   8601247.82045  24817676.9314   24817687.6104
     -4167.5624      -3247.4514         11.5004          9.7504
  -6053535.89947   -516514.32346  23210920.9934   23210927.2394
       170.2504        132.6624         23.2504         20.5004
   6473721.34747   5174261.15546  23764114.3374   23764120.4314
     -3781.7344      -2946.8064         20.2504         17.7504
  -9705827.11746  -7446717.36746  23270830.0174   23270837.3684
      1161.7034        905.2234         18.5004         17.0004
 01  6 30  1 46  0.0050000  0  6G29G20G11G 1G25G22
  25198096.24145   2249724.71245  25521707.4154   25521715.5994
     -3622.7974      -2822.9594          7.7504          8.0004
 -10620286.66047  -7987991.86047  21915841.5094   21915847.4274
      -508.0624       -395.8934         26.7504         30.0004
  10992715.01245   8698733.57045  24841483.7824   24841494.1224
     -4172.9064      -3251.6154         11.5004         10.0004
  -6058574.01447   -520440.08446  23209962.2514   23209968.2864
       165.6094        129.0464         23.7504         20.5004
   6587276.88047   5262745.93346  23785723.4784   23785729.4314
     -3788.6254      -2952.1754         20.2504         17.7504
  -9740470.51246  -7473712.11246  23264237.5564   23264245.2244
      1147.7974        894.3874         18.2504         16.7504
 01  6 30  1 46 30.0050000  0  7G29G13G20G11G 1G25G22
  25306824.56645   2334448.02645  25542397.4464   25542404.9854
     -3625.5944      -2825.1384          8.0004          8.5004
    -36127.17942                  26068451.2514
      1245.0784                          3.7504
 -10604785.79047  -7975913.25647  21918791.0634   21918797.0524
      -525.1874       -409.2374         26.7504         30.0004
  11117992.66545   8796352.27745  24865323.2744   24865334.7744
     -4178.7664      -3256.1814         10.7504          9.7504
  -6063460.65547   -524247.82046  23209032.3844   23209038.6424
       160.3284        124.9314         23.7504         20.7504
   6701050.41847   5351400.58846  23807374.0324   23807380.1854
     -3796.0944      -2957.9954         20.5004         17.5004
  -9774683.23846  -7500371.26946  23257726.9544   23257734.1654
      1133.1724        882.9914         18.5004         16.7504
 01  6 30  1 47  0.0050000  0  7G29G13G20G11G 1G25G22
  25415615.66245   2419220.17745  25563100.1494   25563107.8174
     -3626.4224      -2825.7834          7.7504          8.2504
    -73471.32342                  26061346.1964
      1245.2974                          4.0004
 -10588791.51147  -7963450.18147  21921834.7674   21921840.7204
      -540.3914       -421.0844         26.7504         30.0004
  11243423.47945   8894090.32545  24889192.4704   24889203.1964
     -4182.5474      -3259.1274         10.7504         10.2504
  -6068210.24747   -527948.76746  23208128.5244   23208134.7474
       157.0314        122.3624         23.7504         21.0004
   6815025.54747   5440212.31746  23829062.7284   23829068.6814
     -3801.5164      -2962.2204         20.0004         17.2504
  -9808476.36446  -7526703.45746  23251296.4234   23251303.7744
      1120.4064        873.0444         18.7504         17.2504
 01  6 30  1 47 30.0050000  0  7G29G13G20G11G 1G25G22
  25524435.06045   2504014.42345  25583808.2124   25583816.2434
     -3627.2194      -2826.4044          8.0004          7.7504
   -110819.71842                  26054237.7354
      1245.5634                          4.0004
 -10572336.97247  -7950628.45947  21924965.8534   21924971.7124
      -555.6094       -432.9424         26.5004         29.7504
  11368969.88345   8991918.51545  24913083.1734   24913094.3104
     -4186.2034      -3261.9764         11.0004          8.5004
  -6072857.33947   -531569.84046  23207244.0244   23207250.1774
       153.7504        119.8054         23.7504         21.2504
   6929165.32347   5529152.35846  23850782.7594   23850788.7474
     -3806.8284      -2966.3604         20.2504         17.5004
  -9841881.63146  -7552733.42646  23244939.5564   23244947.0134
      1107.5784        863.0484         18.7504         17.2504
 01  6 30  1 48  0.0050000  0  7G29G13G20G11G 1G25G22
  25633296.73845   2588841.63645  25604523.0404   25604531.0714
     -3629.5004      -2828.1824          8.0004          8.2504
   -148158.41542                  26047130.8684
      1244.3754                          4.2504
 -10555406.59447  -7937435.95247  21928187.5874   21928193.5054
      -572.3754       -446.0064         26.5004         29.7504
  11494642.75045   9089845.16445  24936998.0634   24937008.1454
     -4191.2504      -3265.9094         10.5004         10.0004
  -6077387.83347   -535100.06746  23206382.0324   23206388.1494
       149.0004        116.1044         23.5004         21.0004
   7043481.83846   5618230.10746  23872536.7354   23872542.6774
     -3813.5474      -2971.5954         19.7504         16.7504
  -9874882.56146  -7578448.32846  23238659.2284   23238666.5324
      1093.1724        851.8224         18.7504         17.2504
 01  6 30  1 48 30.0050000  0  7G29G13G20G11G 1G25G22
  25742247.03145   2673737.84845  25625256.1424   25625263.2004
     -3633.3444      -2831.1774          7.7504          8.2504
   -185441.01542                  26040037.4074
      1241.6254                          4.2504
 -10537952.83547  -7923835.61747  21931508.9704   21931514.9464
      -590.7344       -460.3124         26.5004         30.2504
  11620485.40645   9187904.14045  24960945.0324   24960955.4314
     -4197.7504      -3270.9744         10.5004          9.2504
  -6081755.70447   -538503.57446  23205550.6344   23205556.8924
       142.6884        111.1854         23.2504         21.0004
   7158019.61846   5707480.28846  23894332.2514   23894338.1104
     -3821.7974      -2978.0244         19.7504         17.5004
  -9907429.88546  -7603809.77846  23232465.8134   23232473.4464
      1077.1094        839.3064         19.0004         17.7504
 01  6 30  1 49  0.0050000  0  7G29G13G20G11G 1G25G22
  25851277.06445   2758696.19845  25646003.1964   25646010.3954
     -3635.6724      -2832.9914          7.7504          8.2504
   -222676.53342                  26032951.1184
      1240.3754                          4.5004
 -10519982.89647  -7909833.05947  21934928.4934   21934934.4814
      -607.6254       -473.4744         26.5004         30.0004
  11746485.86245   9286086.07645  24984921.7204   24984931.9074
     -4202.6094      -3274.7614          9.7504          9.5004
  -6085969.43247   -541786.95646  23204748.7284   23204755.2204
       137.8914        107.4474         23.2504         21.2504
   7272767.15846   5796893.90846  23916167.8064   23916174.0994
     -3828.4064      -2983.1744         19.5004         17.0004
  -9939529.00046  -7628821.97446  23226357.2514   23226364.0604
      1062.4534        827.8864         19.0004         17.5004
 01  6 30  1 49 30.0050000  0  7G29G13G20G11G 1G25G22
  25960384.33145   2843714.73045  25666765.6494   25666772.3534
     -3639.0004      -2835.5844          7.7504          7.2504
   -259867.82642                  26025873.5174
      1238.2194                          4.7504
 -10501498.02147  -7895429.25047  21938446.1184   21938452.0954
      -625.5314       -487.4274         26.2504         29.7504
  11872638.10145   9384386.28345  25008928.7594   25008940.2594
     -4208.3594      -3279.2414         10.2504          9.2504
  -6090031.47747   -544952.16046  23203975.6654   23203982.0634
       132.0944        102.9304         23.5004         21.2504
   7387720.10746   5886467.60346  23938042.6574   23938048.6694
     -3835.9374      -2989.0424         19.0004         17.2504
  -9971179.49246  -7653484.59246  23220334.5324   23220341.8374
      1046.7194        815.6254         19.5004         17.7504
 01  6 30  1 50  0.0050000  0  7G29G13G20G11G 1G25G22
  26069594.48945   2928813.43245  25687549.0794   25687558.9034
     -3642.0944      -2837.9954          7.7504          7.5004
   -296988.95843                  26018809.6814
      1236.1884                          5.0004
 -10482471.47847  -7880603.36547  21942066.8374   21942072.6734
      -643.2974       -501.2704         26.2504         30.0004
  11998965.03145   9482822.61745  25032967.7824   25032978.3924
     -4213.7974      -3283.4784         10.0004          9.2504
  -6093916.29147   -547979.26346  23203236.6814   23203242.9034
       126.5164         98.5844         24.2504         21.7504
   7502901.86446   5976219.59946  23959961.1034   23959967.2204
     -3843.2034      -2994.7044         19.0004         16.7504
 -10002353.05746  -7677775.57546  23214402.3134   23214409.5364
      1031.1254        803.4744         19.5004         17.5004
 01  6 30  1 50 30.0050000  0  7G29G13G20G11G 1G25G22
  26178902.09545   3013988.09345  25708348.4074   25708358.6774
     -3644.0944      -2839.5544          7.5004          6.7504
   -334045.80743                  26011757.4074
      1235.2504                          5.2504
 -10462907.13047  -7865358.41247  21945789.5014   21945795.4894
      -660.0164       -514.2984         26.0004         30.0004
  12125458.08245   9581388.39745  25057038.3534   25057050.0284
     -4218.0624      -3286.8024         10.0004          9.0004
  -6097629.35447   -550872.53046  23202530.0014   23202536.0954
       122.0164         95.0774         24.7504         21.7504
   7618304.82646   6066143.94946  23981921.7824   23981927.5484
     -3849.3284      -2999.4764         19.2504         16.7504
 -10033052.79546  -7701697.34746  23208560.1814   23208567.4744
      1016.5004        792.0784         19.5004         18.0004
 01  6 30  1 51  0.0050000  0  7G29G13G20G11G 1G25G22
  26288270.75544   3099210.28445  25729160.0094   25729167.4664
     -3646.7504      -2841.6234          7.0004          7.0004
   -371074.82243    -21150.49354  26004710.9624   26004716.2004
      1233.7034        961.3274          5.5004          3.7504
 -10442840.00747  -7849721.68447  21949608.4074   21949614.2434
      -677.4064       -527.8494         26.2504         30.0004
  12252077.75945   9680052.86045  25081134.0244   25081145.1964
     -4222.8444      -3290.5284          9.7504          9.5004
  -6101206.93347   -553660.23346  23201849.3134   23201855.3724
       116.8914         91.0844         24.7504         22.0004
   7733891.13646   6156211.17646  24003917.0634   24003923.2744
     -3856.0164      -3004.6874         19.2504         16.7504
 -10063311.82446  -7725275.70246  23202802.3534   23202809.1264
      1001.1414        780.1104         19.7504         17.5004
 01  6 30  1 51 30.0050000  0  7G29G13G20G11G 1G25G22
  26397745.84345   3184515.41045  25749993.7824   25750001.7784
     -3650.8594      -2844.8254          7.5004          7.7504
   -408030.52343    -49947.14145  25997678.3374   25997684.3724
      1230.7344        959.0144          5.5004          4.7504
 -10422223.57547  -7833656.92347  21953531.3764   21953537.2944
      -696.3124       -542.5814         26.0004         30.2504
  12378866.30345   9778848.87845  25105261.1184   25105270.0404
     -4228.9844      -3295.3124          9.7504          9.2504
  -6104603.81247   -556307.13746  23201202.8604   23201208.9424
       110.3134         85.9584         25.0004         21.7504
   7849703.56146   6246454.58646  24025955.6654   24025961.7124
     -3864.0624      -3010.9584         19.2504         16.5004
 -10093081.62946  -7748472.85646  23197136.9624   23197144.1854
       984.2194        766.9244         19.7504         18.0004
 01  6 30  1 52  0.0050000  0  7G29G13G20G11G 1G25G22
  26507292.62844   3269876.39645  25770839.1264   25770846.1034
     -3652.1254      -2845.8124          7.2504          7.5004
   -444947.64943    -78713.41445  25990654.0954   25990663.3104
      1230.5784        958.8924          6.0004          5.5004
 -10401091.32247  -7817190.22847  21957552.7984   21957558.5994
      -712.3914       -555.1104         26.2504         29.7504
  12505785.76845   9877746.92545  25129413.6494   25129423.7314
     -4232.1724      -3297.7964         10.0004          9.0004
  -6107854.76647   -558840.31946  23200584.0564   23200590.2434
       106.5784         83.0484         24.5004         21.7504
   7965705.28246   6336845.52946  24048030.1494   24048036.2784
     -3869.2194      -3014.9764         19.2504         16.5004
 -10122393.98947  -7771313.56346  23191559.0874   23191566.3684
       970.0634        755.8934         20.0004         18.0004
 01  6 30  1 52 30.0050000  0  7G29G13G20G11G 1G25G22
  26616907.02144   3355290.02845  25791698.3684   25791708.3924
     -3655.0944      -2848.1254          7.2504          7.0004
   -481830.66543   -107453.24145  25983634.1264   25983644.4784
      1228.6884        957.4194          5.7504          5.2504
 -10379445.87847  -7800323.64047  21961671.9314   21961677.9314
      -730.2504       -569.0264         26.2504         30.0004
  12632829.10345   9976741.48345  25153589.2434   25153602.1854
     -4236.9694      -3301.5344          9.7504          9.0004
  -6110963.78047   -561262.90346  23199992.6184   23199998.9934
       101.1094         78.7874         24.2504         21.7504
   8081890.36346   6427379.34046  24070139.5014   24070145.3724
     -3876.0314      -3020.2844         18.7504         16.5004
 -10151250.64147  -7793799.17946  23186067.6184   23186075.0994
       954.1094        743.4624         20.0004         18.0004
 01  6 30  1 53  0.0050000  0  7G29G13G20G11G 1G25G22
  26726588.28645   3440755.75745  25812570.4624   25812578.0604
     -3656.7194      -2849.3914          7.5004          7.5004
   -518680.23844   -136166.94145  25976622.1104   25976632.9424
      1228.2344        957.0664          6.2504          5.2504
 -10357286.96447  -7783056.95047  21965888.4544   21965894.3374
      -746.7504       -581.8834         26.2504         30.0004
  12759992.48045  10075829.57345  25177787.9234   25177799.2944
     -4240.2814      -3304.1154          9.5004          9.0004
  -6113931.48047   -563575.37146  23199427.6344   23199434.0674
        97.0314         75.6094         24.2504         22.0004
   8198255.84046   6518053.70346  24092283.0094   24092288.9624
     -3881.3754      -3024.4484         18.7504         16.0004
 -10179649.75247  -7815928.25646  23180663.3134   23180670.3954
       939.4384        732.0294         20.0004         18.5004
 01  6 30  1 53 30.0050000  0  7G29G13G20G11G 1G25G22
  26836346.90445   3526281.78645  25833457.0174   25833466.6774
     -3659.9694      -2851.9244          7.7504          8.0004
   -555485.78544   -164846.33645  25969618.7594   25969632.0054
      1226.0784        955.3864          6.5004          5.5004
 -10334602.55047  -7765380.78347  21970205.1734   21970211.1494
      -764.9694       -596.0804         26.0004         30.2504
  12887283.45245  10175017.09145  25202010.4464   25202023.9504
     -4245.1724      -3307.9264          9.0004          9.0004
  -6116747.11547   -565769.35046  23198891.7204   23198898.0134
        91.2814         71.1284         24.2504         22.0004
   8314810.30546   6608875.34546  24114462.3924   24114468.2634
     -3888.3284      -3029.8664         18.2504         16.0004
 -10207577.46847  -7837690.01946  23175348.7984   23175355.9744
       922.9694        719.1964         20.0004         18.2504
 01  6 30  1 54  0.0050000  0  7G29G13G20G11G 1G25G22
  26946187.17745   3611871.44345  25854358.7044   25854366.8764
     -3663.2344      -2854.4684          7.7504          8.0004
   -592242.96844   -193488.05945  25962622.3684   25962632.6144
      1223.9224        953.7054          6.5004          5.7504
 -10311387.17447  -7747290.87447  21974622.8294   21974628.6774
      -783.2344       -610.3124         26.0004         30.0004
  13014703.00545  10274304.80945  25226257.5244   25226268.8844
     -4249.9534      -3311.6524          9.2504          9.2504
  -6119406.62347   -567841.67746  23198385.7204   23198392.0134
        85.5164         66.6364         24.5004         22.0004
   8431555.68146   6699845.74446  24136678.1814   24136684.0404
     -3895.1874      -3035.2114         18.0004         15.7504
 -10235026.53847  -7859078.82446  23170125.3374   23170132.8534
       906.4384        706.3154         20.0004         18.5004
 01  6 30  1 54 30.0050000  0  7G29G13G20G11G 1G25G22
  27056119.20545   3697532.56945  25875278.6734   25875287.4544
     -3665.2974      -2856.0754          7.5004          7.5004
   -628942.43244   -222084.92245  25955639.6184   25955646.9704
      1222.9694        952.9634          6.7504          5.7504
 -10287629.85647  -7728778.68247  21979143.7904   21979149.7784
      -800.3284       -623.6324         26.2504         30.2504
  13142257.88645  10373697.97745  25250530.6424   25250541.3334
     -4253.4064      -3314.3434          9.5004          9.0004
  -6121900.14547   -569784.66146  23197911.2744   23197917.4034
        80.9694         63.0934         25.0004         22.2504
   8548499.64546   6790970.88046  24158932.1104   24158938.0634
     -3900.8124      -3039.5944         18.2504         16.0004
 -10261984.67047  -7880085.07646  23164995.4934   23165002.4114
       891.0314        694.3104         20.5004         18.5004
 01  6 30  1 55  0.0050000  0  7G29G13G20G11G 1G25G22
  27166104.84644   3783235.50645  25896206.6884   25896216.1384
     -3667.5624      -2857.8414          6.5004          7.5004
   -665621.99344   -250666.18145  25948659.2204   25948670.7434
      1221.8594        952.0984          7.0004          6.2504
 -10263367.22747  -7709872.73447  21983760.9854   21983766.9504
      -817.6564       -637.1354         26.2504         30.2504
  13269907.28745  10473164.76345  25274822.1654   25274832.7984
     -4256.9844      -3317.1314          9.5004          9.0004
  -6124265.25647   -571627.58146  23197461.2904   23197467.3254
        76.2344         59.4034         25.2504         22.2504
   8665602.97046   6882220.18846  24181216.2514   24181222.5794
     -3906.5314      -3044.0504         18.2504         15.7504
 -10288487.33247  -7900736.42346  23159952.3844   23159959.3374
       875.3284        682.0744         21.0004         18.5004
 01  6 30  1 55 30.0050000  0  7G29G13G20G11G 1G25G22
  27276168.70844   3868999.37745  25917152.1964   25917161.0954
     -3670.0944      -2859.8134          7.2504          6.5004
   -702256.88345   -279212.68645  25941688.5634   25941695.6224
      1220.4224        950.9784          7.5004          6.7504
 -10238573.46847  -7690552.92647  21988478.8844   21988484.8724
      -835.3444       -650.9174         26.0004         30.5004
  13397672.58445  10572721.89745  25299135.5484   25299149.2514
     -4260.7504      -3320.0654          9.5004          9.0004
  -6126477.38347   -573351.29646  23197040.2744   23197046.4384
        71.1724         55.4594         25.2504         22.5004
   8782887.74346   6973610.88846  24203534.4624   24203540.6144
     -3912.5004      -3048.7014         18.0004         16.0004
 -10314507.08347  -7921011.48146  23155000.8534   23155007.4974
       859.2194        669.5214         21.0004         18.5004
 01  6 30  1 56  0.0050000  0  7G29G13G20G11G 1G25G22
  27386237.92544   3954767.48345  25938097.7674   25938107.7434
     -3669.2034      -2859.1194          7.2504          7.5004
   -738920.13545   -307781.26645  25934711.6104   25934720.5794
      1222.4384        952.5494          7.7504          6.7504
 -10213320.27947  -7670875.11947  21993284.5954   21993290.4424
      -849.5944       -662.0214         25.7504         30.2504
  13525478.11245  10672310.36545  25323456.2354   25323468.1694
     -4260.9534      -3320.2234          9.5004          8.7504
  -6128609.19947   -575012.43246  23196634.6494   23196640.7674
        69.5784         54.2174         25.2504         22.5004
   8900279.02046   7065084.57146  24225873.4154   24225879.4154
     -3914.9374      -3050.6014         18.0004         15.7504
 -10340113.43647  -7940964.40046  23150127.5014   23150134.5604
       846.4844        659.5984         20.2504         18.5004
 01  6 30  1 56 30.0050000  0  7G29G13G20G11G 1G25G22
  27496335.01945   4040557.21545  25959048.9234   25959057.3294
     -3670.9844      -2860.5074          7.5004          7.7504
   -775589.50745   -336354.61945  25927733.0484   25927742.1104
      1221.7974        952.0504          8.2504          6.2504
 -10187584.44147  -7650821.22747  21998181.7674   21998187.7784
      -866.5314       -675.2194         25.7504         30.2504
  13653342.81745  10771944.90445  25347787.8374   25347798.8564
     -4263.7344      -3322.3904          9.2504          9.0004
  -6130638.57247   -576593.73546  23196248.4464   23196254.5054
        65.3134         50.8934         25.0004         22.5004
   9017797.10946   7156657.06746  24248236.5174   24248242.5524
     -3919.9844      -3054.5334         17.7504         15.5004
 -10365281.44847  -7960575.75946  23145337.9314   23145344.8844
       830.9844        647.5204         20.2504         18.7504
 01  6 30  1 57  0.0050000  0  7G29G13G20G11G 1G25G22
  27606518.11444   4126414.10045  25980016.5014   25980026.2784
     -3674.6414      -2863.3564          7.0004          7.2504
   -812206.76245   -364887.45345  25920765.5014   25920773.9074
      1219.2814        950.0894          8.5004          6.5004
 -10161306.44647  -7630344.86847  22003182.4934   22003188.5524
      -885.4064       -689.9274         25.7504         30.2504
  13781321.97345  10871668.65845  25372142.5174   25372153.8884
     -4268.2814      -3325.9334          9.0004          9.0004
  -6132507.05347   -578049.67546  23195892.6814   23195898.6104
        59.1724         46.1084         24.7504         22.2504
   9135498.64246   7248372.50046  24270634.7984   24270640.8104
     -3926.8444      -3059.8784         18.0004         15.5004
 -10389950.60647  -7979798.40346  23140643.6494   23140650.4704
       813.5474        633.9334         20.5004         19.0004
 01  6 30  1 57 30.0050000  0  7G29G13G20G11G 1G25G22
  27716804.73945   4212351.61145  26001003.9074   26001011.3414
     -3676.3444      -2864.6834          7.5004          6.5004
   -848754.36445   -393365.94445  25913809.8064   25913816.7824
      1218.6884        949.6274          8.0004          7.7504
 -10134467.68147  -7609431.54947  22008289.6654   22008295.5364
      -902.4064       -703.1744         25.7504         30.0004
  13909430.07145  10971492.87945  25396519.6654   25396531.3174
     -4270.7814      -3327.8814          8.7504          8.2504
  -6134197.00347   -579366.50346  23195571.1814   23195577.5094
        54.9384         42.8084         25.0004         22.7504
   9253399.13746   7340242.95946  24293069.8064   24293075.8414
     -3931.7034      -3063.6654         17.2504         15.0004
 -10414100.99147  -7998616.81246  23136048.0094   23136055.3254
       797.9224        621.7574         20.5004         19.2504
 01  6 30  1 58  0.0050000  0  7G29G13G20G11G 1G25G22
  27827117.91744   4298309.77945  26021995.2434   26022004.7984
     -3677.9064      -2865.9014          7.0004          7.7504
   -885309.46945   -421850.22145  25906854.0564   25906862.9544
      1218.2664        949.2984          9.2504          6.2504
 -10107143.98647  -7588140.35747  22013489.1424   22013495.0604
      -919.2504       -716.2994         25.5004         30.2504
  14037587.11945  11071355.20545  25420908.0954   25420919.5714
     -4273.0164      -3329.6234          9.0004          8.7504
  -6135785.17447   -580604.02046  23195268.9314   23195275.0364
        50.8754         39.6434         25.2504         22.5004
   9371419.27846   7432206.65546  24315528.7824   24315534.6304
     -3936.3284      -3067.2694         17.5004         15.2504
 -10437806.40147  -8017088.49346  23131536.8294   23131543.7704
       782.3754        609.6434         20.7504         19.2504
 01  6 30  1 58 30.0060000  0  7G29G13G20G11G 1G25G22
  27937522.96244   4384339.56345  26043004.8814   26043014.8574
     -3682.9374      -2869.8214          7.2504          7.5004
   -921811.49245   -450293.23345  25899907.6464   25899916.4514
      1214.3594        946.2544          9.2504          8.0004
 -10079271.69647  -7566421.69547  22018793.0144   22018798.8964
      -939.6254       -732.1754         25.5004         30.2504
  14165855.86045  11171304.53745  25445316.8184   25445329.4434
     -4278.6564      -3334.0184          8.7504          8.5004
  -6137209.95847   -581714.21946  23194997.9754   23195004.0104
        43.3444         33.7744         26.0004         22.7504
   9489622.41646   7524312.94646  24338022.2794   24338028.3034
     -3944.3754      -3073.5394         17.7504         15.2504
 -10461003.14147  -8035163.79746  23127122.7174   23127129.4204
       763.2504        594.7404         21.5004         19.0004
 01  6 30  1 59  0.0060000  0  7G29G13G20G11G 1G25G22
  28048003.94145   4470428.49545  26064028.9904   26064038.1234
     -3683.7504      -2870.4554          7.5004          7.7504
   -958266.60445   -478699.65145  25892970.0294   25892979.6664
      1214.7194        946.5344          9.5004          7.5004
 -10050860.16747  -7544282.85247  22024199.6464   22024205.6114
      -955.7664       -744.7524         25.5004         30.2504
  14294216.11045  11271325.22745  25469743.1004   25469753.6624
     -4279.9374      -3335.0164          9.0004          9.0004
  -6138479.72547   -582703.63346  23194756.4284   23194762.4984
        40.0474         31.2054         26.0004         23.0004
   9607990.50246   7616547.76146  24360546.9124   24360552.9004
     -3948.0944      -3076.4374         17.0004         15.2504
 -10483695.49347  -8052846.08146  23122804.5844   23122811.6544
       748.3134        583.1014         21.2504         19.5004
 01  6 30  1 59 30.0060000  0  7G29G13G20G11G 1G25G22
  28158557.21644   4556573.84045  26085065.9204   26085074.8424
     -3686.4844      -2872.5854          6.7504          6.7504
   -994683.55045   -507076.31145  25886040.3734   25886048.6504
      1213.0944        945.2684          9.7504          8.2504
 -10021914.90547  -7521728.10547  22029707.8894   22029713.8184
      -973.9224       -758.9004         26.0004         30.2504
  14422661.74245  11371412.43445  25494186.1934   25494198.6314
     -4283.0784      -3337.4634          9.2504          8.5004
  -6139601.86447   -583578.00746  23194542.7254   23194549.0764
        34.7664         27.0904         25.7504         23.0004
   9726517.95046   7708906.75346  24383101.2484   24383107.3184
     -3953.7034      -3080.8084         16.7504         14.7504
 -10505889.80847  -8070140.27746  23118581.2404   23118587.5924
       731.3284        569.8664         21.5004         19.5004
 01  6 30  2  0  0.0060000  0  7G29G13G20G11G 1G25G22
  28269184.56644   4642776.84145  26106117.5534   26106128.4554
     -3689.1564      -2874.6674          7.2504          7.0004
  -1031060.30945   -535421.67345  25879117.8894   25879126.3304
      1211.5474        944.0634         10.5004          8.7504
  -9992433.00147  -7498755.19847  22035318.0764   22035324.0414
      -992.0164       -772.9994         26.0004         30.2504
  14551191.61545  11471565.26045  25518643.9824   25518657.5214
     -4286.0164      -3339.7524          9.2504          8.5004
  -6140574.42147   -584335.82946  23194357.3814   23194363.6274
        29.6094         23.0724         25.7504         22.7504
   9845204.49746   7801389.68646  24405687.9594   24405693.8534
     -3959.1724      -3085.0694         18.0004         15.0004
 -10527581.46647  -8087042.79046  23114453.1784   23114459.9284
       714.3134        556.6074         21.5004         19.2504
 01  6 30  2  0 30.0060000  0  7G29G13G20G11G 1G25G22
  28379896.88445   4729046.00145  26127185.8114   26127194.7214
     -3690.9844      -2876.0924          7.7504          7.2504
  -1067386.29445   -563727.48145  25872204.9514   25872212.6894
      1210.8594        943.5274         10.2504          7.5004
  -9962402.43747  -7475354.76447  22041032.5144   22041038.4554
     -1009.3444       -786.5024         25.7504         30.2504
  14679813.63845  11571789.91145  25543120.4044   25543131.1434
     -4288.0624      -3341.3474          9.2504          8.0004
  -6141386.33847   -584968.47146  23194202.9984   23194209.0924
        25.2194         19.6514         26.0004         23.0004
   9964058.94746   7894003.49146  24428304.0064   24428310.4164
     -3963.7664      -3088.6494         16.2504         14.7504
 -10548756.38547  -8103542.65846  23110423.9514   23110430.8114
       698.0164        543.9084         21.7504         19.5004
 01  6 30  2  1  0.0060000  0  7G29G13G20G11G 1G25G22
  28490684.11945   4815373.62945  26148268.9284   26148278.1664
     -3693.7814      -2878.2714          7.7504          6.5004
  -1103671.70145   -592001.61045  25865299.8894   25865306.9824
      1209.1724        942.2124         10.5004          8.2504
  -9931832.64247  -7451534.14447  22046849.8184   22046855.7364
     -1027.6564       -800.7714         25.5004         30.2504
  14808514.51445  11672076.01045  25567611.3424   25567623.8614
     -4290.9694      -3343.6124          9.0004          8.2504
  -6142047.71747   -585483.81446  23194077.1004   23194083.0534
        19.8754         15.4874         26.2504         23.2504
  10083069.49146   7986738.89046  24450951.2874   24450957.0644
     -3969.2504      -3092.9224         16.2504         14.5004
 -10569422.32147  -8119645.91146  23106490.9904   23106497.9904
       680.6884        530.4064         21.5004         19.5004
 01  6 30  2  1 30.0060000  0  7G29G13G20G11G 1G25G22
  28601538.33544   4901753.36645  26169363.1934   26169371.2954
     -3696.0624      -2880.0494          7.2504          6.2504
  -1139924.10745   -620250.05345  25858401.2404   25858409.2364
      1208.0474        941.3354         11.0004          8.7504
  -9900730.48447  -7427298.69447  22052768.4364   22052774.4364
     -1045.4374       -814.6274         25.5004         30.2504
  14937283.43345  11772415.09245  25592115.1784   25592128.5884
     -4293.2194      -3345.3654          8.2504          8.0004
  -6142566.16947   -585887.78246  23193978.6624   23193984.6504
        15.0784         11.7494         26.5004         23.5004
  10202226.27246   8079588.26946  24473626.5534   24473632.7174
     -3974.1254      -3096.7214         17.0004         14.5004
 -10589584.71047  -8135356.79146  23102654.4364   23102661.1274
       663.8444        517.2814         22.0004         19.7504
 01  6 30  2  2  0.0060000  0  7G29G13G20G11G 1G25G22
  28712473.29444   4988196.07345  26190473.9674   26190483.0414
     -3698.8124      -2882.1924          7.2504          7.2504
  -1176129.67445   -648461.99345  25851511.4124   25851519.8304
      1206.4384        940.0814         11.2504          9.2504
  -9869081.26847  -7402636.96447  22058790.9434   22058796.8384
     -1063.7344       -828.8844         25.5004         30.2504
  15066130.81845  11872815.34945  25616635.7484   25616648.8654
     -4295.8284      -3347.3994          8.7504          8.5004
  -6142928.00547   -586169.71046  23193909.6934   23193915.7054
         9.8134          7.6464         26.7504         23.7504
  10321540.89546   8172560.62446  24496330.9434   24496337.0614
     -3979.3914      -3100.8244         16.0004         14.2504
 -10609227.71347  -8150662.94246  23098916.7324   23098923.2954
       646.4534        503.7304         22.2504         19.5004
 01  6 30  2  2 30.0060000  0  7G29G13G20G11G 1G25G22
  28823465.69545   5074683.48645  26211595.7174   26211607.8384
     -3701.6414      -2884.3954          7.7504          7.2504
  -1212311.84145   -676655.70945  25844625.8034   25844633.2014
      1204.7504        938.7664         11.2504          9.0004
  -9836907.24747  -7377566.30047  22064913.6464   22064919.4474
     -1082.1564       -843.2394         25.7504         30.2504
  15195030.58445  11973256.35845  25641165.1074   25641178.0614
     -4298.4374      -3349.4324          8.7504          8.0004
  -6143156.22247   -586347.52046  23193865.8964   23193872.1194
         4.4534          3.4704         26.5004         23.5004
  10440988.08846   8265636.29646  24519061.3504   24519067.2684
     -3984.6874      -3104.9514         16.2504         14.0004
 -10628371.74247  -8165580.28746  23095273.5684   23095280.3184
       628.8444        490.0084         22.0004         19.7504
 01  6 30  2  3  0.0060000  0  7G29G13G20G11G 1G25G22
  28934564.67544   5161253.88645  26232736.7644   26232745.8264
     -3704.9064      -2886.9404          6.7504          7.0004
  -1248421.73545   -704793.12845  25837754.3964   25837763.1434
      1202.6414        937.1234         11.5004          9.5004
  -9804158.49547  -7352047.79247  22071145.2404   22071151.2404
     -1101.0314       -857.9464         25.5004         30.5004
  15324028.86845  12073774.21045  25665712.2794   25665726.1704
     -4301.3594      -3351.7094          8.0004          7.2504
  -6143201.67947   -586382.91446  23193857.6784   23193863.9004
        -1.3444         -1.0474         26.7504         23.5004
  10560615.28946   8358852.21946  24541825.8184   24541832.1004
     -3990.3594      -3109.3714         16.0004         14.2504
 -10646964.92347  -8180068.40446  23091735.1464   23091741.9204
       610.7344        475.8974         22.0004         19.7504
 01  6 30  2  3 30.0060000  0  8G29G13G20G11G 4G 1G25G22
  29045742.11644   5247885.45445  26253892.4124   26253904.3934
     -3707.2034      -2888.7304          6.5004          7.0004
  -1284487.33345   -732896.00145  25830891.0374   25830898.2714
      1201.4844        936.2224         11.7504         10.0004
  -9770862.11247  -7326102.55047  22077481.5214   22077487.5334
     -1118.9844       -871.9364         25.5004         30.2504
  15453094.31445  12174344.34645  25690272.2954   25690285.3184
     -4303.2504      -3353.1824          8.7504          8.2504
    -14675.93743                  26720730.7874
       498.7504                          6.0004
  -6143092.19647   -586297.57546  23193877.8114   23193883.8814
        -6.2034         -4.8344         26.5004         23.7504
  10680392.36446   8452184.92846  24564618.1934   24564624.1354
     -3995.0164      -3112.9994         15.7504         14.5004
 -10665032.79947  -8194147.20146  23088296.6544   23088303.3224
       593.5164        462.4804         22.0004         20.0004
 01  6 30  2  4  0.0060000  0  8G29G13G20G11G 4G 1G25G22
  29156996.45943   5334576.89645  26275063.9824   26275071.9784
     -3709.4694      -2890.4954          6.0004          6.2504
  -1320509.90246   -760965.37945  25824036.5764   25824045.3114
      1200.3284        935.3214         12.0004          9.7504
  -9737018.81447  -7299731.14647  22083921.7014   22083927.6784
     -1136.9534       -885.9374         25.5004         30.2504
  15582222.62845  12274963.53645  25714844.5294   25714856.6864
     -4305.0004      -3354.5454          7.7504          7.2504
    -29410.86144                  26717927.4284
       483.8594                          6.2504
  -6142829.14047   -586092.56346  23193928.4364   23193934.4364
       -11.0474         -8.6084         26.7504         23.7504
  10800315.53246   8545631.46146  24587439.0614   24587445.8114
     -3999.5784      -3116.5544         16.0004         14.7504
 -10682574.96447  -8207816.33546  23084958.5454   23084965.1194
       576.2344        449.0144         22.0004         20.0004
 01  6 30  2  4 30.0060000  0  8G29G13G20G11G 4G 1G25G22
  29268322.37544   5421324.20045  26296249.1784   26296260.0214
     -3711.9534      -2892.4314          7.2504          7.2504
  -1356495.09045   -789005.60245  25817188.1154   25817194.6544
      1198.9534        934.2494         11.7504         10.0004
  -9702633.25947  -7272937.20247  22090464.9284   22090470.8464
     -1155.1564       -900.1224         25.2504         30.2504
  15711405.12845  12375624.85145  25739428.6234   25739442.2684
     -4306.8594      -3355.9944          9.0004          7.7504
    -43695.60743     -4777.66455  26715208.6154   26715217.1744
       468.7504        365.2604          6.0004          5.7504
  -6142417.93647   -585772.11846  23194006.7564   23194013.0024
       -16.0944        -12.5414         27.0004         23.7504
  10920377.61946   8639186.27046  24610286.4284   24610292.2284
     -4004.2814      -3120.2194         16.0004         14.0004
 -10699594.56047  -8221078.27546  23081719.7564   23081726.4474
       558.6564        435.3174         22.2504         20.0004
 01  6 30  2  5  0.0060000  0  8G29G13G20G11G 4G 1G25G22
  29379734.54844   5508138.65645  26317449.8114   26317457.0334
     -3715.0944      -2894.8784          6.2504          4.5004
  -1392428.03846   -817005.13645  25810350.6004   25810358.9594
      1196.9844        932.7154         12.5004          9.7504
  -9667689.78147  -7245708.50947  22097114.4364   22097120.4244
     -1174.0164       -914.8174         25.2504         30.2504
  15840653.68745  12476337.69145  25764023.5294   25764035.9434
     -4309.2664      -3357.8694          8.0004          8.0004
    -57513.97744    -15545.22945  26712579.8574   26712582.7284
       452.9384        352.9384          6.5004          6.0004
  -6141843.75947   -585324.68146  23194115.7324   23194121.8144
       -21.7664        -16.9604         27.0004         23.7504
  11040591.62346   8732859.44746  24633162.0294   24633168.0184
     -4009.5624      -3124.3344         15.2504         14.0004
 -10716074.02647  -8233919.33446  23078583.8114   23078590.3144
       540.3754        421.0714         22.7504         20.2504
 01  6 30  2  5 30.0060000  0  8G29G13G20G11G 4G 1G25G22
  29491205.97744   5594999.34645  26338662.9674   26338674.5844
     -3717.2814      -2896.5834          7.2504          7.7504
  -1428336.10646   -844985.29645  25803516.9904   25803526.6504
      1195.9384        931.8994         12.2504         10.2504
  -9632214.72947  -7218065.60247  22103865.2254   22103871.1314
     -1191.9374       -928.7824         25.2504         30.2504
  15969938.38445  12577078.68445  25788625.9754   25788638.2014
     -4310.6094      -3358.9164          8.7504          8.5004
    -70891.44444    -25969.21245  26710033.8574   26710040.2324
       438.0004        341.2994          7.2504          5.7504
  -6141133.28647   -584771.03446  23194250.8964   23194256.8614
       -26.5314        -20.6744         27.2504         24.0004
  11160928.39646   8826628.27946  24656061.6074   24656068.1824
     -4013.8124      -3127.6464         15.2504         14.2504
 -10732037.64947  -8246358.44846  23075545.6934   23075552.1274
       522.9384        407.4844         22.2504         20.2504
 01  6 30  2  6  0.0060000  0  8G29G13G20G11G 4G 1G25G22
  29602770.43444   5681932.46445  26359892.6544   26359902.4904
     -3720.9374      -2899.4324          6.7504          6.0004
  -1464185.17746   -872919.48645  25796695.2254   25796703.7714
      1193.4224        929.9394         12.2504         10.5004
  -9596173.42647  -7189981.46947  22110723.4984   22110729.4514
     -1211.3914       -943.9414         25.2504         30.2504
  16099289.80445  12677871.65245  25813241.2874   25813255.2134
     -4313.3594      -3361.0594          8.7504          7.7504
    -83793.06745    -36022.37345  26707579.1154   26707587.0884
       421.5314        328.4664          7.7504          6.5004
  -6140252.57947   -584084.73646  23194418.2094   23194424.1394
       -32.7664        -25.5324         27.2504         24.0004
  11281419.67346   8920517.53346  24678990.6314   24678996.4324
     -4019.5004      -3132.0784         15.7504         13.7504
 -10747449.63347  -8258367.71846  23072613.0144   23072619.5184
       503.9384        392.6794         23.0004         20.2504
 01  6 30  2  6 30.0060000  0  8G29G13G20G11G 4G 1G25G22
  29714414.37944   5768927.57645  26381137.6624   26381149.1394
     -3722.6724      -2900.7834          6.7504          7.2504
  -1499988.79646   -900818.28945  25789881.6934   25789889.5964
      1192.8284        929.4764         12.5004         10.7504
  -9559578.61547  -7161466.02647  22117687.3264   22117693.2564
     -1228.9224       -957.6014         25.2504         30.2504
  16228691.41045  12778703.77845  25837864.8114   25837881.0334
     -4314.0624      -3361.6074          8.0004          7.5004
    -96230.65544    -45713.99345  26705211.9674   26705218.6824
       406.9534        317.1064          7.0004          5.7504
  -6139214.89048   -583276.11846  23194616.2324   23194622.1974
       -37.0784        -28.8924         28.0004         24.5004
  11402050.26446   9014515.31946  24701945.7094   24701951.8144
     -4023.1874      -3134.9514         15.0004         13.7504
 -10762321.51747  -8269956.12646  23069782.9434   23069789.8854
       486.8284        379.3474         22.7504         20.2504
 01  6 30  2  7  0.0060000  0  8G29G13G20G11G 4G 1G25G22
  29826159.54544   5856001.51745  26402401.8654   26402414.1864
     -3726.9694      -2904.1314          6.7504          7.5004
  -1535725.23746   -928664.69345  25783081.3814   25783088.5574
      1189.6414        926.9934         12.2504         10.5004
  -9522408.14947  -7132502.01847  22124760.5534   22124766.3424
     -1249.0784       -973.3084         25.2504         30.0004
  16358161.90845  12879589.52445  25862502.9124   25862516.8504
     -4317.2664      -3364.1034          8.7504          8.2504
   -108181.43544    -55026.27345  26702937.3114   26702947.6864
       389.7664        303.7134          6.5004          6.2504
  -6137998.30447   -582328.09446  23194847.3734   23194853.4904
       -43.9844        -34.2744         27.2504         24.2504
  11522839.71646   9108636.89746  24724931.2714   24724937.0614
     -4029.4064      -3139.7974         15.5004         13.7504
 -10776629.04247  -8281104.78246  23067060.2404   23067066.6274
       467.0164        363.9084         23.0004         20.5004
 01  6 30  2  7 30.0060000  0  8G29G13G20G11G 4G 1G25G22
  29938051.65144   5943190.06145  26423695.5924   26423707.5024
     -3732.6414      -2908.5514          6.5004          6.2504
  -1571348.72346   -956423.13545  25776302.3424   25776309.6824
      1185.1094        923.4624         12.2504         10.5004
  -9484615.32347  -7103053.06347  22131952.3424   22131958.2714
     -1270.5944       -990.0734         25.2504         30.2504
  16487743.99345  12980562.28345  25887161.2794   25887177.2914
     -4321.7194      -3367.5734          7.7504          7.7504
   -119598.19343    -63922.43245  26700764.4514   26700773.5614
       371.1724        289.2254          6.0004          5.7504
  -6136557.01847   -581204.98546  23195121.6074   23195127.6664
       -52.2504        -40.7144         27.0004         24.0004
  11643832.22546   9202916.72546  24747955.3264   24747961.2914
     -4036.9064      -3145.6414         14.7504         13.7504
 -10790323.85747  -8291775.99446  23064454.3344   23064461.0254
       445.7974        347.3744         23.0004         20.5004
 01  6 30  2  8  0.0060000  0  8G29G13G20G11G 4G 1G25G22
  30050041.77244   6030454.92845  26445006.4824   26445017.2794
     -3734.6724      -2910.1344          6.5004          6.5004
  -1606907.88546   -984131.41345  25769535.4204   25769542.4084
      1184.1884        922.7444         12.2504         10.2504
  -9446248.41347  -7073156.77547  22139253.4904   22139259.3734
     -1288.5164      -1004.0384         25.2504         30.0004
  16617386.05545  13081581.71345  25911831.7644   25911844.6704
     -4322.4064      -3368.1094          8.2504          8.5004
   -130528.35843    -72439.43445  26698685.4674   26698691.9244
       356.1884        277.5494          5.7504          5.5004
  -6134939.53347   -579944.57346  23195429.3814   23195435.3934
       -56.8914        -44.3304         27.0004         24.0004
  11764976.64846   9297314.91446  24771008.3814   24771014.9784
     -4040.6874      -3148.5884         14.5004         13.5004
 -10803452.49647  -8302006.03946  23061955.9434   23061962.4364
       428.1254        333.6044         23.0004         20.5004
 01  6 30  2  8 30.0060000  0  8G29G13G20G11G 4G 1G25G22
  30162103.85144   6117775.92245  26466331.4044   26466343.0104
     -3736.6094      -2911.6444          6.5004          6.0004
  -1642429.06046  -1011810.07945  25762776.1934   25762783.6864
      1183.3914        922.1234         12.2504         10.5004
  -9407332.89747  -7042832.99847  22146658.6934   22146664.6004
     -1306.3444      -1017.9304         25.2504         30.0004
  16747058.73145  13182625.04745  25936508.2564   25936522.4394
     -4322.9064      -3368.4984          7.5004          8.0004
   -140996.63143    -80596.49645  26696692.6784   26696702.3504
       341.2194        265.8854          5.7504          5.5004
  -6133171.90947   -578567.17446  23195765.9984   23195772.1274
       -61.4374        -47.8734         27.7504         24.2504
  11886245.27246   9391809.88046  24794085.0924   24794091.6434
     -4044.3444      -3151.4374         14.7504         13.2504
 -10816039.23047  -8311813.81946  23059560.4984   23059567.0614
       410.4844        319.8584         23.0004         20.7504
 01  6 30  2  9  0.0060000  0  8G29G13G20G11G 4G 1G25G22
  30274229.45144   6205146.43145  26487668.3344   26487677.6314
     -3738.3914      -2913.0324          6.7504          6.7504
  -1677920.52345  -1039465.63845  25756021.9514   25756030.3344
      1182.7344        921.6114         11.7504         11.0004
  -9367876.34047  -7012087.64047  22154166.9044   22154172.8464
     -1324.0784      -1031.7494         25.2504         30.2504
  16876750.77645  13283683.40945  25961187.6784   25961200.5614
     -4323.1724      -3368.7054          8.5004          7.7504
   -151010.50343    -88399.49645  26694787.8034   26694795.4364
       326.3914        254.3304          5.7504          6.0004
  -6131262.36248   -577079.18446  23196129.2794   23196135.2684
       -65.8444        -51.3074         28.0004         24.5004
  12007627.62746   9486393.48646  24817183.7484   24817189.6074
     -4047.7814      -3154.1154         14.7504         13.5004
 -10828090.34347  -8321204.23446  23057267.5534   23057273.8114
       392.9224        306.1734         23.5004         20.7504
 01  6 30  2  9 30.0060000  0  8G29G13G20G11G 4G 1G25G22
  30386431.02243   6292576.13845  26509019.1464   26509029.8034
     -3741.6254      -2915.5524          5.7504          6.2504
  -1713369.69145  -1067088.25145  25749276.3814   25749283.9434
      1180.6414        919.9804         11.7504         10.2504
  -9327865.54447  -6980910.40947  22161780.9364   22161786.9364
     -1343.2344      -1046.6764         25.0004         30.2504
  17006471.77545  13384764.36945  25985873.1864   25985887.5454
     -4324.7974      -3369.9724          8.0004          6.7504
   -160555.56543    -95837.24545  26692971.6544   26692979.9434
       310.0474        241.5954          5.7504          5.0004
  -6129198.04248   -575470.58746  23196521.9674   23196527.9434
       -71.6874        -55.8604         28.2504         24.7504
  12129134.25546   9581073.92046  24840304.9204   24840311.5644
     -4052.5784      -3157.8534         13.7504         13.0004
 -10839590.58047  -8330165.39246  23055078.8344   23055085.4904
       373.8284        291.2954         23.2504         20.7504
 01  6 30  2 10  0.0060000  0  8G29G13G20G11G 4G 1G25G22
  30498718.86944   6380073.09445  26530387.1864   26530395.2174
     -3743.2974      -2916.8554          6.5004          6.5004
  -1748766.37245  -1094669.92745  25742540.8734   25742548.6114
      1180.0784        919.5414         11.5004         10.7504
  -9287289.70047  -6949292.87447  22169502.1074   22169507.9674
     -1360.8754      -1060.4224         25.0004         30.2504
  17136228.96745  13485873.52245  26010565.9514   26010579.0684
     -4324.7504      -3369.9354          8.2504          8.0004
   -169620.67743   -102900.86045  26691246.4284   26691253.7564
       295.2194        230.0414          6.0004          5.0004
  -6126968.64048   -573733.35446  23196946.2324   23196952.2684
       -76.0004        -59.2214         28.0004         25.0004
  12250773.61046   9675857.78046  24863452.7174   24863459.5764
     -4055.7664      -3160.3374         14.2504         13.0004
 -10850527.24547  -8338687.40346  23052997.5214   23053003.8964
       356.2194        277.5734         23.5004         20.7504
 01  6 30  2 10 30.0060000  0  8G29G13G20G11G 4G 1G25G22
  30611010.85743   6467573.16545  26551754.6314   26551768.1584
     -3741.7814      -2915.6744          6.0004          5.7504
  -1784192.31145  -1122274.43545  25735798.7174   25735805.5254
      1182.7194        921.5994         11.2504         10.5004
  -9246230.35547  -6917298.58947  22177315.5764   22177321.5414
     -1375.3444      -1071.6964         25.0004         30.2504
  17265937.21245  13586944.53845  26035248.1154   26035260.8574
     -4321.3914      -3367.3174          8.0004          8.0004
   -178286.61744   -109653.57745  26689598.0064   26689604.6624
       283.5784        220.9704          6.2504          6.2504
  -6124655.93548   -571931.21546  23197386.1234   23197392.2054
       -77.1254        -60.0974         28.0004         24.7504
  12372461.70946   9770679.64746  24886608.9904   24886614.4514
     -4055.7034      -3160.2884         14.5004         12.5004
 -10860980.50647  -8346832.74446  23051008.4434   23051014.9714
       341.7344        266.2874         23.7504         21.0004
 01  6 30  2 11  0.0060000  0  8G29G13G20G11G 4G 1G25G22
  30723306.42644   6555076.19145  26573124.3184   26573134.3654
     -3743.7034      -2917.1714          6.2504          6.2504
  -1819648.15145  -1149902.22745  25729052.2484   25729060.2564
      1181.8914        920.9544         11.2504         10.0004
  -9204687.42247  -6884927.48947  22185220.9594   22185226.9004
     -1393.2974      -1085.6864         25.2504         30.2504
  17395593.02045  13687974.72545  26059921.8814   26059936.9784
     -4321.4224      -3367.3424          8.7504          7.7504
   -186552.74943   -116094.72445  26688024.0064   26688028.3894
       268.3914        209.1364          5.7504          5.5004
  -6122260.12748   -570064.32446  23197842.1464   23197848.1004
       -81.7194        -63.6774         28.0004         24.5004
  12494196.47046   9865537.85346  24909774.4514   24909781.1894
     -4059.0474      -3162.8944         13.5004         13.0004
 -10870949.12147  -8354600.43646  23049111.3814   23049117.5684
       323.7194        252.2484         23.7504         21.0004
 01  6 30  2 11 30.0060000  0  8G29G13G20G11G 4G 1G25G22
  30835694.69344   6642651.36145  26594511.6154   26594523.9124
     -3747.2504      -2919.9354          6.5004          6.5004
  -1855044.76145  -1177483.86545  25722315.6784   25722322.5374
      1179.4844        919.0794         11.0004          9.7504
  -9162571.49047  -6852109.89247  22193235.2324   22193241.1034
     -1412.8284      -1100.9054         25.2504         30.0004
  17525282.50345  13789031.12245  26084601.3184   26084616.4864
     -4322.9224      -3368.5114          8.2504          7.2504
   -194328.69643   -122153.91845  26686544.0294   26686549.7134
       251.6254        196.0714          5.7504          4.7504
  -6119691.98847   -568063.15146  23198330.6234   23198336.6354
       -87.8914        -68.4864         27.7504         24.2504
  12616064.78546   9960500.13446  24932964.9364   24932970.8304
     -4063.8914      -3166.6684         13.7504         12.5004
 -10880341.84447  -8361919.38146  23047323.6314   23047329.9944
       304.0474        236.9204         23.5004         21.2504
 01  6 30  2 12  0.0060000  0  8G29G13G20G11G 4G 1G25G22
  30948155.40144   6730282.94945  26615911.8264   26615922.4474
     -3750.2974      -2922.3094          7.2504          7.0004
  -1890402.03845  -1205034.84145  25715587.6074   25715595.5574
      1177.5474        917.5694         10.5004         10.0004
  -9119901.87147  -6818860.85747  22201355.2404   22201361.1934
     -1431.9374      -1115.7954         25.2504         30.0004
  17654982.83545  13890095.94545  26109282.2174   26109298.4514
     -4323.8594      -3369.2414          7.7504          7.5004
   -201633.19344   -127845.64945  26685154.9754   26685164.6354
       235.2344        183.3004          6.2504          5.2504
  -6116971.28247   -565943.09246  23198848.2714   23198854.2364
       -93.6254        -72.9554         27.7504         24.5004
  12738044.95946  10055549.60146  24956177.4674   24956184.1004
     -4068.2194      -3170.0414         13.7504         12.7504
 -10889176.14247  -8368803.18846  23045642.6864   23045649.0254
       284.7664        221.8954         23.5004         21.2504
 01  6 30  2 12 30.0060000  0  8G29G13G20G11G 4G 1G25G22
  31060704.60844   6817983.60645  26637330.1544   26637346.6584
     -3752.9064      -2924.3434          6.5004          6.0004
  -1925703.95645  -1232542.68545  25708869.9514   25708876.8814
      1176.0474        916.4004         10.5004         10.0004
  -9076662.07847  -6785167.53647  22209583.3964   22209589.3854
     -1450.6094      -1130.3454         25.0004         30.0004
  17784706.96745  13991179.33945  26133967.6784   26133983.3614
     -4324.2664      -3369.5584          7.7504          7.5004
   -208449.17444   -133156.90145  26683857.1154   26683866.7054
       219.3284        170.9054          6.7504          5.0004
  -6114081.89748   -563691.59546  23199398.4514   23199404.4514
       -98.8914        -77.0584         28.2504         24.7504
  12860151.11146  10150697.18846  24979413.2644   24979419.6974
     -4072.0474      -3173.0244         13.5004         12.7504
 -10897433.77247  -8375237.64146  23044071.2794   23044077.5254
       265.8594        207.1634         24.2504         21.2504
 01  6 30  2 13  0.0060000  0  8G29G13G20G11G 4G 1G25G22
  31173322.37644   6905737.58345  26658760.2404   26658770.1584
     -3755.7664      -2926.5714          6.7504          6.5004
  -1960970.61445  -1260023.06845  25702158.6864   25702165.5924
      1174.3444        915.0734         10.0004          9.2504
  -9032871.64147  -6751045.13747  22217916.3894   22217922.4004
     -1469.4844      -1145.0534         25.0004         30.0004
  17914431.83045  14092263.23845  26158653.9754   26158668.7214
     -4324.7814      -3369.9594          7.7504          7.2504
   -214795.58044   -138102.06145  26682649.5684   26682664.9714
       203.0784        158.2434          6.5004          6.0004
  -6111043.56148   -561324.04046  23199976.5924   23199982.5574
      -104.3754        -81.3314         28.5004         25.2504
  12982361.04546  10245925.68646  25002669.3654   25002675.5534
     -4076.0004      -3176.1044         14.0004         12.7504
 -10905133.17247  -8381237.10646  23042606.0844   23042612.3534
       246.7034        192.2364         24.0004         21.2504
 01  6 30  2 13 30.0060000  0  8G29G13G20G11G 4G 1G25G22
  31286020.28444   6993554.06245  26680206.4364   26680217.6784
     -3757.0474      -2927.5694          6.7504          6.0004
  -1996190.02445  -1287466.66345  25695456.4514   25695462.8854
      1174.1094        914.8904          9.7504          9.5004
  -8988518.54447  -6716484.30147  22226356.5534   22226362.5644
     -1486.9224      -1158.6404         25.2504         30.0004
  18044166.27145  14193354.64645  26183341.9594   26183358.3464
     -4323.7194      -3369.1314          7.7504          7.5004
   -220659.57744   -142671.42045  26681534.0534   26681539.5614
       188.3134        146.7374          7.0004          6.7504
  -6107844.32248   -558831.10846  23200585.2404   23200591.2874
      -108.4224        -84.4854         28.7504         25.2504
  13104684.97046  10341242.98546  25025946.6464   25025953.2794
     -4078.4534      -3178.0154         13.5004         12.7504
 -10912260.78047  -8386791.02246  23041249.8734   23041256.0254
       228.9384        178.3934         24.2504         21.5004
 01  6 30  2 14  0.0060000  0  8G29G13G20G11G 4G 1G25G22
  31398783.97644   7081421.73545  26701664.1234   26701676.2684
     -3760.0004      -2929.8704          6.2504          6.7504
  -2031376.45345  -1314884.51545  25688760.4204   25688767.8074
      1172.2194        913.4174          9.2504          8.5004
  -8943616.47647  -6681495.69247  22234901.1464   22234907.1234
     -1506.0164      -1173.5194         25.2504         30.0004
  18173893.24544  14294440.24245  26208028.7644   26208044.2364
     -4324.2034      -3369.5094          7.0004          7.5004
   -226054.06244   -146874.85545  26680506.9124   26680512.8304
       171.8594        133.9164          7.0004          5.5004
  -6104498.15248   -556223.66946  23201221.9824   23201228.1234
      -114.1094        -88.9164         28.7504         25.2504
  13227107.14946  10436636.84646  25049243.7014   25049249.6074
     -4082.4534      -3181.1324         14.0004         12.2504
 -10918828.41247  -8391908.58646  23040000.0614   23040006.4824
       209.4384        163.1984         24.2504         21.5004
 01  6 30  2 14 30.0060000  0  8G29G13G20G11G 4G 1G25G22
  31511621.88143   7169347.32245  26723136.5924   26723149.2284
     -3762.0784      -2931.4894          5.2504          4.7504
  -2066521.49245  -1342270.15845  25682072.9204   25682081.0214
      1171.2504        912.6624          9.2504          8.7504
  -8898156.66747  -6646072.48147  22243551.8114   22243557.7054
     -1524.1874      -1187.6794         25.0004         29.7504
  18303617.85645  14395523.95545  26232715.5614   26232730.9284
     -4323.6254      -3369.0584          8.2504          7.7504
   -230969.85445   -150705.36345  26679571.6624   26679582.1074
       156.3134        121.8024          7.5004          6.0004
  -6100996.41348   -553495.02246  23201888.4434   23201894.5024
      -118.8914        -92.6424         28.7504         25.2504
  13349633.72046  10532112.08046  25072558.8574   25072565.0454
     -4085.5004      -3183.5064         13.2504         12.2504
 -10924825.50347  -8396581.58246  23038858.9984   23038865.2684
       190.7974        148.6734         24.2504         21.5004
 01  6 30  2 15  0.0060000  0  8G29G13G20G11G 4G 1G25G22
  31624523.82643   7257322.71445  26744620.2954   26744633.3074
     -3765.0624      -2933.8154          5.7504          6.2504
  -2101635.01345  -1369631.22645  25675391.0684   25675398.9824
      1169.3284        911.1654          9.2504          8.2504
  -8852148.91147  -6610222.30647  22252306.8504   22252312.7794
     -1543.3444      -1202.6064         25.0004         30.0004
  18433327.36344  14496595.92945  26257396.8114   26257412.6584
     -4324.0004      -3369.3514          6.5004          7.0004
   -235415.94745   -154169.92545  26678726.3734   26678732.8424
       139.7194        108.8724          7.5004          6.2504
  -6097349.08148   -550652.92046  23202582.4204   23202588.5144
      -124.6254        -97.1104         28.5004         25.0004
  13472252.50446  10627659.14346  25095892.1004   25095898.4394
     -4089.4374      -3186.5754         12.5004         12.0004
 -10930260.32547  -8400816.45046  23037824.6864   23037830.9324
       171.1414        133.3564         24.2504         21.5004
 01  6 30  2 15 30.0060000  0  8G29G13G20G11G 4G 1G25G22
  31737489.18543   7345347.62245  26766118.0764   26766128.2874
     -3764.7814      -2933.5964          5.5004          5.0004
  -2136717.56245  -1396968.17545  25668715.1154   25668722.4204
      1170.6884        912.2244          9.2504          8.5004
  -8805593.16447  -6573945.11847  22261166.2254   22261172.2014
     -1559.2194      -1214.9764         25.0004         30.0004
  18563018.37845  14597653.48345  26282077.7874   26282094.6784
     -4320.9064      -3366.9404          7.7504          7.5004
   -239391.56344   -157267.85745  26677969.4824   26677977.9244
       126.4694         98.5474          7.2504          6.7504
  -6093556.28648   -547697.46446  23203304.1074   23203310.1314
      -127.0624        -99.0104         28.2504         25.2504
  13594961.40446  10723276.41445  25119243.8574   25119250.0684
     -4089.9844      -3187.0014         13.5004         11.7504
 -10935131.82147  -8404612.36346  23036897.4514   23036903.7094
       154.7664        120.5974         24.5004         21.7504
 01  6 30  2 16  0.0060000  0  8G29G13G20G11G 4G 1G25G22
  31850516.15442   7433420.28944  26787626.3574   26787626.8144
     -3770.0944      -2937.7354          4.7504          4.2504
  -2171770.69345  -1424282.13545  25662044.1864   25662045.4164
      1166.4384        908.9124          8.7504          7.0004
  -8758491.11447  -6537242.23447  22270129.3894   22270135.3074
     -1580.6874      -1231.7054         25.0004         30.0004
  18692685.86444  14698692.70045  26306752.7794   26306768.2524
     -4323.3284      -3368.8274          7.2504          7.2504
   -242897.58044   -159999.72245  26677301.6934   26677309.5964
       107.5314         83.7914          7.2504          6.2504
  -6089619.61348   -544629.89546  23204053.0924   23204058.9864
      -135.1254       -105.2924         28.7504         25.0004
  13717756.94046  10818961.20046  25142610.3034   25142617.2094
     -4096.1094      -3191.7744         13.2504         12.2504
 -10939439.80647  -8407969.18146  23036077.5374   23036083.8534
       132.6724        103.3814         24.7504         21.7504
 01  6 30  2 16 30.0060000  0  8G29G13G20G11G 4G 1G25G22
  31963630.38543   7521561.18945  26809151.5764   26809164.6354
     -3771.3444      -2938.7094          5.5004          5.5004
  -2206768.82345  -1451553.34445  25655384.3894   25655390.7404
      1166.2664        908.7784          8.7504          8.5004
  -8710816.74747  -6500093.39547  22279201.6864   22279207.6154
     -1598.0944      -1245.2684         25.0004         30.2504
  18822352.73044  14799731.42545  26331427.9124   26331443.0924
     -4321.5944      -3367.4764          6.7504          6.5004
   -245907.41245   -162344.97245  26676729.0684   26676736.3264
        92.6254         72.1754          7.5004          7.0004
  -6085513.14648   -541430.02846  23204834.7254   23204840.8184
      -139.1254       -108.4094         29.5004         25.5004
  13840662.86246  10914732.00845  25165999.0764   25166004.7954
     -4098.0784      -3193.3084         13.0004         11.7504
 -10943156.47947  -8410865.24146  23035370.2094   23035376.4784
       114.5944         89.2944         24.2504         22.0004
 01  6 30  2 17  0.0060000  0  7G13G20G11G 4G 1G25G22
  -2241715.85345  -1478784.70745  25648733.5294   25648740.8344
      1163.7034        906.7824          8.5004          7.7504
  -8662573.54047  -6462501.29847  22288381.7404   22288387.8694
     -1617.9374      -1260.7314         25.0004         29.7504
  18952012.06645  14900764.29245  26356102.1934   26356117.7254
     -4322.1564      -3367.9144          8.2504          6.5004
   -248424.00144   -164306.01345  26676250.4824   26676261.6894
        75.3284         58.6974          7.2504          6.5004
  -6081240.73648   -538100.84946  23205647.6234   23205653.6934
      -145.5314       -113.4014         29.5004         25.5004
  13963673.44746  11010584.36445  25189407.0064   25189412.5724
     -4102.4224      -3196.6924         13.0004         11.5004
 -10946283.53547  -8413301.86646  23034775.2174   23034781.4164
        94.0474         73.2834         24.5004         22.0004
 01  6 30  2 17 30.0060000  0  7G13G20G11G 4G 1G25G22
  -2276587.82545  -1505957.57945  25642098.0684   25642106.7214
      1161.8444        905.3334          9.0004          8.7504
  -8613737.63747  -6424447.36247  22297675.0534   22297681.0064
     -1637.0314      -1275.6094         25.0004         30.0004
  19081684.74644  15001807.57745  26380777.3344   26380794.5184
     -4321.9064      -3367.7194          7.2504          7.0004
   -250422.53944   -165863.30045  26675870.2174   26675880.3114
        58.7034         45.7434          6.7504          6.5004
  -6076778.11848   -534623.45046  23206496.8504   23206502.7684
      -151.2194       -117.8334         29.5004         25.5004
  14086810.95246  11106535.60546  25212840.1394   25212846.1154
     -4105.9534      -3199.4444         13.7504         12.0004
 -10948795.84047  -8415259.45946  23034296.9754   23034303.2444
        74.2034         57.8214         24.5004         22.0004
 01  6 30  2 18  0.0060000  0  7G13G20G11G 4G 1G25G22
  -2311416.31745  -1533096.60545  25635470.3504   25635477.5964
      1159.9844        903.8844          9.0004          8.7504
  -8564340.38247  -6385956.01247  22307075.0374   22307080.9554
     -1656.1874      -1290.5364         25.2504         30.0004
  19211336.30545  15102834.37245  26405449.9754   26405467.0414
     -4321.5944      -3367.4764          8.0004          6.7504
   -251933.83744   -167040.97345  26675581.6004   26675592.0454
        41.9844         32.7154          6.7504          7.5004
  -6072156.68548   -531022.30247  23207376.1544   23207382.1544
      -156.9534       -122.3014         29.0004         25.7504
  14210041.74046  11202559.54146  25236288.7954   25236294.9364
     -4109.4844      -3202.1964         12.5004         12.0004
 -10950723.67747  -8416761.64346  23033929.9514   23033936.3264
        54.2344         42.2614         24.5004         22.0004
 01  6 30  2 18 30.0070000  0  7G13G20G11G 4G 1G25G22
  -2346208.70845  -1560207.44745  25628849.4014   25628855.2964
      1159.7664        903.7134          9.2504          8.7504
  -8514386.52547  -6347030.93247  22316580.9564   22316586.8394
     -1673.6564      -1304.1484         25.2504         29.7504
  19340961.61145  15203840.68945  26430116.7224   26430134.0344
     -4319.4844      -3365.8324          8.2504          6.7504
   -252963.51144   -167843.27045  26675386.2844   26675396.5544
        26.9694         21.0154          6.5004          6.5004
  -6067382.39048   -527302.03646  23208284.8394   23208290.8514
      -161.0164       -125.4674         29.0004         25.5004
  14333361.29146  11298652.64945  25259756.4874   25259762.7334
     -4111.2344      -3203.5594         12.7504         11.7504
 -10952071.31947  -8417811.71546  23033673.8154   23033679.8864
        35.8914         27.9674         24.7504         22.2504
 01  6 30  2 19  0.0070000  0  7G13G20G11G 4G 1G25G22
  -2380968.88645  -1587293.19545  25622234.5974   25622240.9484
      1157.6254        902.0454          9.2504          8.7504
  -8463885.22847  -6307679.28247  22326191.0734   22326197.0504
     -1693.0624      -1319.2694         25.2504         30.0004
  19470542.66545  15304812.59245  26454775.4954   26454794.2494
     -4319.2194      -3365.6254          7.7504          6.5004
   -253516.79544   -168274.36645  26675281.2764   26675299.0934
         9.9384          7.7444          6.7504          6.0004
  -6062461.41848   -523467.47347  23209220.9404   23209226.8584
      -167.0164       -130.1424         28.5004         25.7504
  14456753.45846  11394802.32845  25283237.6284   25283243.9094
     -4114.8594      -3206.3844         12.7504         11.0004
 -10952842.87447  -8418412.90346  23033526.8544   23033533.0894
        15.5634         12.1274         24.5004         22.0004
 01  6 30  2 19 30.0070000  0  7G13G20G11G 4G 1G25G22
  -2415681.86845  -1614342.15145  25615628.9254   25615635.6404
      1157.2974        901.7904          9.5004          8.5004
  -8412818.66647  -6267887.16947  22335908.8624   22335914.8514
     -1710.6724      -1332.9914         25.2504         29.7504
  19600097.20045  15405763.79845  26479429.6284   26479445.5814
     -4317.0314      -3363.9204          9.2504          8.0004
   -253576.62244   -168321.03844  26675269.3314   26675281.9094
        -5.2344         -4.0794          6.5004          4.2504
  -6057377.20148   -519505.71147  23210188.3864   23210194.3514
      -171.2194       -133.4174         29.0004         25.7504
  14580236.65846  11491022.94445  25306736.0344   25306742.8194
     -4116.6254      -3207.7604         12.5004         11.2504
 -10953020.64347  -8418551.39546  23033493.0034   23033499.0264
        -3.0314         -2.3624         25.2504         22.2504
 01  6 30  2 20  0.0070000  0  7G13G20G11G 4G 1G25G22
  -2450330.06045  -1641340.70745  25609035.7224   25609043.7184
      1154.0164        899.2334         10.0004          9.5004
  -8361169.20747  -6227640.84047  22345737.2144   22345743.1444
     -1731.2194      -1349.0024         25.2504         29.7504
  19729639.66945  15506705.62545  26504080.6284   26504097.4014
     -4317.7034      -3364.4444          8.0004          7.5004
   -253124.78844                  26675354.9794
       -23.4224                          7.2504
  -6052112.23448   -515403.10547  23211190.6754   23211196.6044
      -178.3754       -138.9944         30.0004         25.7504
  14703826.95446  11587326.97946  25330253.3004   25330260.4054
     -4121.2814      -3211.3884         12.5004         12.0004
 -10952585.84047  -8418212.55346  23033575.7534   23033581.9054
       -24.5784        -19.1524         25.0004         22.0004
 01  6 30  2 20 30.0070000  0  7G13G20G11G 4G 1G25G22
  -2484928.41545  -1668300.36745  25602451.4174   25602458.3004
      1152.2034        897.8214         10.5004          8.7504
  -8308951.84247  -6186952.00147  22355674.1124   22355680.0074
     -1750.2664      -1363.8434         25.2504         29.7504
  19859152.29445  15607624.13945  26528726.7534   26528744.6164
     -4316.7814      -3363.7264          7.5004          5.0004
   -252175.32545                  26675536.4794
       -40.1874                          7.5004
  -6046681.28248   -511171.16147  23212223.9014   23212229.8784
      -184.0314       -143.4014         29.7504         26.0004
  14827507.48546  11683701.36745  25353789.4564   25353795.9954
     -4124.4064      -3213.8234         12.7504         11.5004
 -10951551.87547  -8417406.84546  23033772.7454   23033778.7804
       -44.7034        -34.8344         25.0004         22.2504
 01  6 30  2 21  0.0070000  0  7G13G20G11G 4G 1G25G22
  -2519457.08245  -1695205.72745  25595880.8084   25595887.9364
      1151.3284        897.1394         10.5004          9.5004
  -8256146.84547  -6145805.26047  22365722.3704   22365728.3824
     -1768.4224      -1377.9914         25.2504         29.7504
  19988651.66345  15708532.40545  26553370.0344   26553384.8864
     -4314.8444      -3362.2164          9.0004          7.5004
   -250708.16045                  26675815.3154
       -56.0004                          7.5004
  -6041064.48348   -506794.40447  23213292.6124   23213298.6364
      -188.7814       -147.1024         29.7504         25.7504
  14951295.84646  11780159.75945  25377345.7764   25377351.7534
     -4126.5004      -3215.4554         12.2504         11.2504
 -10949897.09847  -8416117.37346  23034087.5194   23034093.8474
       -63.9844        -49.8584         24.7504         22.2504
 01  6 30  2 21 30.0070000  0  7G13G20G11G 4G 1G25G22
  -2553950.38145  -1722083.50445  25589317.1674   25589324.2844
      1148.7974        895.1664         11.0004          9.0004
  -8202788.77247  -6104227.55347  22375876.1284   22375882.1044
     -1788.2034      -1393.4054         25.5004         30.0004
  20118100.49645  15809401.21945  26578003.5504   26578018.9404
     -4314.4694      -3361.9244          8.0004          8.0004
   -248756.79545                  26676186.6124
       -73.5004                          7.7504
  -6035295.86448   -502299.34347  23214390.4644   23214396.5114
      -195.2034       -152.1064         30.0004         26.0004
  15075155.88346  11876674.02245  25400915.4794   25400921.8784
     -4130.2344      -3218.3644         12.2504         11.2504
 -10947654.13447  -8414369.58246  23034514.0194   23034520.2064
       -84.9694        -66.2094         24.7504         22.5004
 01  6 30  2 22  0.0070000  0  7G13G20G11G 4G 1G25G22
  -2588390.01845  -1748919.47345  25582763.2534   25582769.6754
      1147.9694        894.5214         11.0004          9.2504
  -8148858.94847  -6062204.32647  22386138.7064   22386144.5774
     -1806.3124      -1407.5164         25.2504         29.5004
  20247514.36243  15910242.81545  26602629.8314   26602646.9684
     -4312.3124      -3360.2444          6.0004          6.0004
   -246301.98145      1316.52555  26676653.8474   26676662.8044
       -89.3594        -69.6314          7.7504          7.0004
  -6029356.69248   -497671.38447  23215520.5654   23215526.5894
      -199.9534       -155.8084         29.7504         25.7504
  15199104.57446  11973257.35845  25424502.6204   25424509.4644
     -4132.2034      -3219.8994         12.5004         11.2504
 -10944803.46947  -8412148.25046  23035056.3624   23035062.8314
      -104.2974        -81.2704         25.0004         22.5004
 01  6 30  2 22 30.0070000  0  7G13G20G11G 4G 1G25G22
  -2622795.86945  -1775729.10645  25576216.3394   25576223.9484
      1145.8594        892.8774         11.2504          9.2504
  -8094377.53147  -6019751.28747  22396506.1124   22396512.0424
     -1825.6724      -1422.6014         25.5004         29.7504
  20376870.49845  16011039.45445  26627246.9094   26627265.5344
     -4311.2974      -3359.4524          9.0004          6.0004
   -243363.09845      3606.57445  26677213.2924   26677223.8314
      -106.4534        -82.9504          7.7504          6.2504
  -6023266.75548   -492925.94847  23216679.3784   23216685.2844
      -205.9374       -160.4714         29.5004         26.2504
  15323119.61746  12069892.37045  25448101.6754   25448108.3084
     -4135.3594      -3222.3584         12.5004         11.2504
 -10941363.74147  -8409467.90946  23035711.3394   23035717.5974
      -124.9224        -97.3424         25.5004         22.5004
 01  6 30  2 23  0.0070000  0  7G13G20G11G 4G 1G25G22
  -2657168.00645  -1802512.46345  25569674.7924   25569680.8044
      1144.8594        892.0984         11.0004          9.0004
  -8039344.81947  -5976868.66647  22406978.5114   22406984.5114
     -1843.9374      -1436.8344         25.2504         29.7504
  20506165.45545  16111788.47145  26651851.0654   26651868.3434
     -4309.1094      -3357.7484          7.5004          6.5004
   -239939.82245      6274.05945  26677864.3944   26677874.3474
      -122.5164        -95.4674          7.7504          6.5004
  -6017026.14348   -488063.10947  23217866.8864   23217872.8394
      -210.8594       -164.3064         29.7504         26.2504
  15447199.13845  12166577.63045  25471712.9174   25471720.7844
     -4137.3444      -3223.9044         11.7504         11.2504
 -10937333.54947  -8406327.46846  23036477.9094   23036484.1204
      -144.5314       -112.6224         25.0004         22.2504
